ftp/pub/palmer/observations_modified/2019/May/original_files/AR190517_BASE.txt

Download

Sample DateTime	Unit Id	WS Avg 2min	WD Avg 2min	WGS 10min	WGD 10min	Air Temp	Rel Humidity	Dew Point	Pyranometer	Quantum	Air Pressure	Snow Level	Rainfall	PW Current	Visibility	CBase 1	CBase 2	CBase 3	Vert Vis
2019/05/17 00:00:01	BASE	18.96	348	22.02	344	0.3	100	0.3	0	0	976.3	NA	0.0000		9999	330	0	0	0
2019/05/17 00:01:00	BASE	17.89	346	22.02	344	0.2	100	0.2	0	0	976.3	NA	0.0000		9999	360	0	0	0
2019/05/17 00:02:01	BASE	18.07	345	22.12	351	0.2	100	0.2	0	0	976.2	NA	0.0000		9999	330	0	0	0
2019/05/17 00:03:00	BASE	19.45	347	22.12	351	0.2	100	0.2	0	0	976.2	NA	0.0000		9999	330	0	0	0
2019/05/17 00:04:01	BASE	19.37	349	22.12	351	0.2	100	0.2	0	0	976.2	NA	0.0000		9999	260	0	0	0
2019/05/17 00:05:01	BASE	20.27	351	24.18	350	0.2	100	0.2	0	0	976.1	NA	0.0000		9999	360	0	0	0
2019/05/17 00:06:01	BASE	20.34	350	24.18	350	0.1	100	0.1	0	0	976.2	NA	0.0000		9999	330	1250	0	0
2019/05/17 00:07:00	BASE	19.21	349	24.18	350	0.1	100	0.1	0	0	976.2	NA	0.0000		9999	330	0	0	0
2019/05/17 00:08:01	BASE	19.92	348	24.18	350	0.1	100	0.1	0	0	976.1	NA	0.0000		9999	360	0	0	0
2019/05/17 00:09:00	BASE	18.84	346	24.18	350	0.1	100	0.1	0	0	976.1	NA	0.0000		9999	390	0	0	0
2019/05/17 00:10:01	BASE	17.75	346	24.18	350	0.1	100	0.1	0	0	976.1	NA	0.0000		9999	0	0	0	2560
2019/05/17 00:11:00	BASE	17.94	345	24.18	350	0.1	100	0.1	0	0	976.2	NA	0.0000		9999	330	0	0	0
2019/05/17 00:12:01	BASE	17.52	346	24.18	350	0.1	100	0.1	0	0	976.1	NA	0.0000		9999	360	0	0	0
2019/05/17 00:13:01	BASE	18.98	347	24.18	350	0.1	100	0.1	0	0	976.1	NA	0.0000		9999	360	0	0	0
2019/05/17 00:14:01	BASE	20.38	348	24.18	350	0.1	100	0.1	0	0	976.1	NA	0.0000		9999	430	0	0	0
2019/05/17 00:15:01	BASE	20.53	350	23.72	352	0.1	100	0.1	0	0	976.0	NA	0.0000		9999	460	0	0	0
2019/05/17 00:16:01	BASE	20.68	350	23.72	352	0.0	100	0.0	0	0	976.1	NA	0.0000		9999	0	0	0	4000
2019/05/17 00:17:00	BASE	19.88	349	23.72	352	0.0	100	0.0	0	0	976.1	NA	0.0000		9999	0	0	0	3970
2019/05/17 00:18:01	BASE	20.07	350	23.92	6	0.0	100	0.0	0	0	976.0	NA	0.0000		9999	5910	0	0	0
2019/05/17 00:19:00	BASE	20.79	348	23.92	6	0.0	100	0.0	0	0	976.1	NA	0.0000		9999	5610	0	0	0
2019/05/17 00:20:01	BASE	19.60	348	23.92	6	0.0	100	0.0	0	0	976.1	NA	0.0000		9999	5870	0	0	0
2019/05/17 00:21:00	BASE	17.35	350	23.92	6	0.0	100	0.0	0	0	976.2	NA	0.0000		9999	5410	0	0	0
2019/05/17 00:22:01	BASE	17.60	347	23.92	6	-0.0	100	-0.0	0	0	976.1	NA	0.0000		9999	5810	0	0	0
2019/05/17 00:23:00	BASE	19.67	346	23.92	6	-0.0	100	-0.0	0	0	976.0	NA	0.0000		9999	4460	5610	0	0
2019/05/17 00:24:01	BASE	20.53	347	23.92	6	-0.0	100	-0.0	0	0	976.0	NA	0.0000		9999	5710	0	0	0
2019/05/17 00:25:01	BASE	21.30	349	24.18	347	-0.0	100	-0.0	0	0	976.0	NA	0.0000		9999	5710	0	0	0
2019/05/17 00:26:01	BASE	20.81	351	24.18	347	-0.0	100	-0.0	0	0	976.0	NA	0.0000		9999	5450	0	0	0
2019/05/17 00:27:00	BASE	19.96	349	24.18	347	-0.0	100	-0.0	0	0	976.0	NA	0.0000		9999	5090	5870	0	0
2019/05/17 00:28:01	BASE	20.79	348	24.18	347	-0.0	100	-0.0	0	0	976.0	NA	0.0000		9999	5510	0	0	0
2019/05/17 00:29:00	BASE	20.87	347	24.18	347	0.0	100	0.0	0	0	976.1	NA	0.0000		9999	6100	0	0	0
2019/05/17 00:30:01	BASE	19.60	347	24.18	347	0.0	100	0.0	0	0	976.2	NA	0.0000		9999	5810	0	0	0
2019/05/17 00:31:00	BASE	18.39	348	24.18	347	0.0	100	0.0	0	0	976.3	NA	0.0000		9999	5870	0	0	0
2019/05/17 00:32:01	BASE	18.48	353	24.18	347	0.0	100	0.0	0	0	976.2	NA	0.0000		9999	920	0	0	0
2019/05/17 00:33:00	BASE	18.48	355	24.18	347	0.0	100	0.0	0	0	976.2	NA	0.0000		9999	360	5640	0	0
2019/05/17 00:34:01	BASE	19.34	353	24.18	347	0.0	100	0.0	0	0	976.1	NA	0.0000		9999	360	0	0	0
2019/05/17 00:35:00	BASE	20.01	355	23.10	340	0.0	100	0.0	0	0	976.2	NA	0.0000		9999	360	0	0	0
2019/05/17 00:36:01	BASE	18.75	354	23.10	340	0.0	100	0.0	0	0	976.2	NA	0.0000		9999	360	0	0	0
2019/05/17 00:37:00	BASE	17.58	353	23.10	340	0.1	100	0.1	0	0	976.3	NA	0.0000		9999	330	0	0	0
2019/05/17 00:38:01	BASE	17.36	350	23.10	340	0.1	100	0.1	0	0	976.4	NA	0.0000		9999	300	0	0	0
2019/05/17 00:39:01	BASE	17.82	349	22.84	355	0.1	100	0.1	0	0	976.4	NA	0.0000		9999	330	2620	0	0
2019/05/17 00:40:00	BASE	18.31	352	22.84	355	0.1	100	0.1	0	0	976.4	NA	0.0000		9999	360	1510	0	0
2019/05/17 00:41:00	BASE	18.91	351	22.84	355	0.1	100	0.1	0	0	976.4	NA	0.0000		9999	360	2850	0	0
2019/05/17 00:42:01	BASE	18.45	349	22.84	355	0.1	100	0.1	0	0	976.5	NA	0.0000		9999	360	0	0	0
2019/05/17 00:43:00	BASE	18.78	350	22.84	355	0.1	100	0.1	0	0	976.4	NA	0.2540		9999	360	2130	0	0
2019/05/17 00:44:01	BASE	18.82	356	22.48	354	0.1	100	0.1	0	0	976.5	NA	0.0000		9999	390	0	0	0
2019/05/17 00:45:00	BASE	16.67	1	21.86	316	0.1	100	0.1	0	0	976.5	NA	0.0000		9999	0	0	0	4300
2019/05/17 00:46:00	BASE	15.78	360	21.86	316	0.1	100	0.1	0	0	976.5	NA	0.0000		9999	0	0	0	4490
2019/05/17 00:47:00	BASE	16.33	358	21.86	316	0.1	100	0.1	0	0	976.4	NA	0.0000		9999	430	0	0	0
2019/05/17 00:48:00	BASE	16.32	357	21.86	316	0.1	100	0.1	0	0	976.4	NA	0.0000		9999	0	0	0	4330
2019/05/17 00:49:00	BASE	17.38	358	22.64	354	0.1	100	0.1	0	0	976.3	NA	0.0000		9999	0	0	0	4430
2019/05/17 00:50:00	BASE	18.27	358	22.64	354	0.1	100	0.1	0	0	976.3	NA	0.0000		9999	0	0	0	4230
2019/05/17 00:51:01	BASE	16.89	358	22.64	354	0.1	100	0.1	0	0	976.4	NA	0.0000		9999	490	0	0	0
2019/05/17 00:52:01	BASE	16.27	2	22.64	354	0.1	100	0.1	0	0	976.4	NA	0.0000		9999	1410	0	0	0
2019/05/17 00:53:00	BASE	16.76	355	22.64	354	0.2	100	0.2	0	0	976.4	NA	0.0000		9999	590	0	0	0
2019/05/17 00:54:00	BASE	17.15	354	22.64	354	0.2	100	0.2	0	0	976.4	NA	0.0000		9999	1510	0	0	0
2019/05/17 00:55:00	BASE	16.30	0	22.64	354	0.2	100	0.2	0	0	976.4	NA	0.0000		9999	1510	0	0	0
2019/05/17 00:56:00	BASE	16.58	355	22.64	354	0.1	100	0.1	0	0	976.3	NA	0.0000		9999	0	0	0	1050
2019/05/17 00:57:00	BASE	18.84	353	22.64	354	0.1	100	0.1	0	0	976.1	NA	0.0000		9999	4790	0	0	0
2019/05/17 00:58:00	BASE	17.64	356	22.64	354	0.1	100	0.1	0	0	976.3	NA	0.0000		9999	0	0	0	1280
2019/05/17 00:59:00	BASE	17.07	351	21.76	354	0.1	100	0.1	0	0	976.3	NA	0.0000		9999	0	0	0	1250
2019/05/17 01:00:01	BASE	17.52	353	21.76	354	0.1	100	0.1	0	0	976.4	NA	0.0000		9999	0	0	0	1080
2019/05/17 01:01:00	BASE	16.43	360	21.76	354	0.1	100	0.1	0	0	976.4	NA	0.0000		9999	0	0	0	1740
2019/05/17 01:02:00	BASE	16.14	357	21.76	354	0.1	100	0.1	0	0	976.5	NA	0.0000		9999	7350	0	0	0
2019/05/17 01:03:00	BASE	16.46	352	21.76	354	0.1	100	0.1	0	0	976.5	NA	0.0000		9999	920	0	0	0
2019/05/17 01:04:00	BASE	16.14	353	21.76	354	0.1	100	0.1	0	0	976.5	NA	0.0000		9999	0	0	0	5580
2019/05/17 01:05:01	BASE	15.54	352	21.76	354	0.1	100	0.1	0	0	976.5	NA	0.0000		9999	430	0	0	0
2019/05/17 01:06:01	BASE	15.63	350	21.76	354	0.1	100	0.1	0	0	976.4	NA	0.0000		9999	430	0	0	0
2019/05/17 01:07:00	BASE	16.14	355	21.50	326	0.2	100	0.2	0	0	976.4	NA	0.0000		9999	390	0	0	0
2019/05/17 01:08:00	BASE	16.09	359	21.50	326	0.2	100	0.2	0	0	976.5	NA	0.0000		9999	390	0	0	0
2019/05/17 01:09:00	BASE	15.87	2	18.78	354	0.2	100	0.2	0	0	976.4	NA	0.0000		9999	0	0	0	4720
2019/05/17 01:10:00	BASE	15.30	359	18.78	354	0.2	100	0.2	0	0	976.6	NA	0.0000		9999	0	0	0	4330
2019/05/17 01:11:00	BASE	14.47	356	18.78	354	0.2	100	0.2	0	0	976.5	NA	0.0000		9999	0	0	0	4460
2019/05/17 01:12:01	BASE	15.51	359	18.78	354	0.2	100	0.2	0	0	976.4	NA	0.0000		9999	0	0	0	4560
2019/05/17 01:13:00	BASE	16.51	1	18.47	346	0.2	100	0.2	0	0	976.4	NA	0.0000		9999	390	0	0	0
2019/05/17 01:14:01	BASE	17.42	4	20.47	10	0.2	100	0.2	0	0	976.4	NA	0.0000		9999	0	0	0	4590
2019/05/17 01:15:00	BASE	18.40	3	21.20	4	0.2	100	0.2	0	0	976.3	NA	0.0000		9999	0	0	0	4590
2019/05/17 01:16:01	BASE	18.49	4	21.20	4	0.2	100	0.2	0	0	976.3	NA	0.0000		9999	0	0	0	4790
2019/05/17 01:17:00	BASE	17.92	4	21.20	4	0.2	100	0.2	0	0	976.3	NA	0.0000		9999	360	0	0	0
2019/05/17 01:18:01	BASE	18.09	3	21.20	4	0.2	100	0.2	0	0	976.3	NA	0.0000		9999	360	0	0	0
2019/05/17 01:19:00	BASE	18.94	3	21.20	4	0.2	100	0.2	0	0	976.2	NA	0.0000		9999	0	0	0	4130
2019/05/17 01:20:01	BASE	18.64	6	21.20	4	0.2	100	0.2	0	0	976.2	NA	0.0000		9999	0	0	0	4300
2019/05/17 01:21:00	BASE	19.01	8	21.35	4	0.2	100	0.2	0	0	976.1	NA	0.0000		9999	0	0	0	4630
2019/05/17 01:22:01	BASE	18.87	8	21.35	4	0.2	100	0.2	0	0	976.1	NA	0.0000		9999	0	0	0	6730
2019/05/17 01:23:00	BASE	18.50	10	21.35	4	0.2	100	0.2	0	0	976.1	NA	0.0000		9999	0	0	0	6760
2019/05/17 01:24:01	BASE	19.59	10	22.12	3	0.2	100	0.2	0	0	976.0	NA	0.0000		9999	0	0	0	6560
2019/05/17 01:25:01	BASE	20.50	10	22.12	8	0.2	100	0.2	0	0	975.9	NA	0.0000		9999	0	0	0	6790
2019/05/17 01:26:01	BASE	20.95	9	22.22	12	0.2	100	0.2	0	0	975.9	NA	0.0000		9999	5280	0	0	0
2019/05/17 01:27:00	BASE	19.73	9	22.22	12	0.2	100	0.2	0	0	976.0	NA	0.0000		9999	460	0	0	0
2019/05/17 01:28:00	BASE	18.69	9	22.22	12	0.2	100	0.2	0	0	976.0	NA	0.0000		9999	460	0	0	0
2019/05/17 01:29:00	BASE	18.15	9	22.22	12	0.2	100	0.2	0	0	976.0	NA	0.0000		9999	0	0	0	6560
2019/05/17 01:30:00	BASE	18.42	9	22.22	12	0.2	100	0.2	0	0	976.0	NA	0.0000		9999	0	0	0	6040
2019/05/17 01:31:00	BASE	19.46	10	22.22	12	0.3	100	0.3	0	0	975.9	NA	0.0000		9999	0	0	0	6530
2019/05/17 01:32:01	BASE	19.38	11	22.22	12	0.3	100	0.3	0	0	975.9	NA	0.0000		9999	0	0	0	6400
2019/05/17 01:33:00	BASE	19.23	12	22.22	12	0.3	100	0.3	0	0	975.9	NA	0.0000		9999	0	0	0	6630
2019/05/17 01:34:01	BASE	19.13	11	22.22	12	0.3	100	0.3	0	0	975.9	NA	0.0000		9999	0	0	0	6630
2019/05/17 01:35:00	BASE	19.26	10	22.22	12	0.3	100	0.3	0	0	975.9	NA	0.0000		9999	0	0	0	5320
2019/05/17 01:36:01	BASE	19.53	10	21.04	8	0.3	100	0.3	0	0	975.8	NA	0.0000		9999	0	0	0	5350
2019/05/17 01:37:01	BASE	19.22	10	21.04	8	0.3	100	0.3	0	0	975.9	NA	0.0000		9999	0	0	0	4990
2019/05/17 01:38:00	BASE	18.74	10	21.04	8	0.3	100	0.3	0	0	975.9	NA	0.0000		9999	0	0	0	3810
2019/05/17 01:39:00	BASE	18.99	9	21.04	8	0.4	100	0.4	0	0	975.9	NA	0.0000		9999	620	0	0	0
2019/05/17 01:40:00	BASE	20.39	9	22.84	6	0.4	100	0.4	0	0	975.8	NA	0.0000		9999	0	0	0	4560
2019/05/17 01:41:00	BASE	21.38	8	22.84	6	0.4	100	0.4	0	0	975.8	NA	0.0000	UP	9999	0	0	0	5180
2019/05/17 01:42:01	BASE	21.40	8	23.05	8	0.4	100	0.4	0	0	975.9	NA	0.0000	UP	9999	0	0	0	3580
2019/05/17 01:43:00	BASE	20.81	9	23.05	8	0.4	100	0.4	0	0	975.9	NA	0.0000	UP	9999	330	0	0	0
2019/05/17 01:44:01	BASE	20.89	7	23.61	8	0.4	100	0.4	0	0	975.9	NA	0.0000	UP	9999	0	0	0	4040
2019/05/17 01:45:00	BASE	21.70	7	23.61	8	0.4	100	0.4	0	0	975.8	NA	0.0000	UP	9999	0	0	0	4200
2019/05/17 01:46:01	BASE	22.03	7	23.61	8	0.4	100	0.4	0	0	975.8	NA	0.0000	UP	9999	0	0	0	4300
2019/05/17 01:47:00	BASE	22.00	7	23.72	6	0.4	100	0.4	0	0	975.8	NA	0.0000	UP	9999	0	0	0	4170
2019/05/17 01:48:01	BASE	21.78	7	23.92	5	0.4	100	0.4	0	0	975.8	NA	0.0000	UP	9999	0	0	0	5320
2019/05/17 01:49:00	BASE	21.20	5	23.92	5	0.4	100	0.4	0	0	975.8	NA	0.0000	UP	9999	0	0	0	4460
2019/05/17 01:50:00	BASE	21.35	5	23.92	5	0.4	100	0.4	0	0	975.8	NA	0.0000	UP	9999	0	0	0	4460
2019/05/17 01:51:00	BASE	21.72	5	23.92	5	0.4	100	0.4	0	0	975.8	NA	0.0000	UP	9999	0	0	0	4920
2019/05/17 01:52:01	BASE	20.53	3	23.92	5	0.4	100	0.4	0	0	975.9	NA	0.0000	UP	9999	0	0	0	4790
2019/05/17 01:53:00	BASE	19.76	5	23.92	5	0.3	100	0.3	0	0	975.8	NA	0.0000	UP	9999	0	0	0	4860
2019/05/17 01:54:00	BASE	19.49	6	23.92	5	0.3	100	0.3	0	0	975.9	NA	0.0000	UP	9999	0	0	0	4630
2019/05/17 01:55:00	BASE	18.35	7	23.92	5	0.3	100	0.3	0	0	975.9	NA	0.0000	UP	9999	0	0	0	4460
2019/05/17 01:56:00	BASE	18.07	9	23.92	5	0.3	100	0.3	0	0	975.8	NA	0.0000	UP	9999	0	0	0	4530
2019/05/17 01:57:00	BASE	19.54	8	23.92	5	0.3	100	0.3	0	0	975.7	NA	0.0000	UP	9999	0	0	0	4660
2019/05/17 01:58:00	BASE	20.09	8	23.36	6	0.3	100	0.3	0	0	975.8	NA	0.0000	UP	9999	0	0	0	6300
2019/05/17 01:59:00	BASE	19.59	9	23.36	6	0.3	100	0.3	0	0	975.8	NA	0.0000		9999	0	0	0	5970
2019/05/17 02:00:00	BASE	19.96	9	22.64	4	0.3	100	0.3	0	0	975.8	NA	0.0000		9999	0	0	0	6170
2019/05/17 02:01:00	BASE	20.15	10	22.48	9	0.3	100	0.3	0	0	975.8	NA	0.0000		9999	0	0	0	6170
2019/05/17 02:02:01	BASE	19.59	12	22.48	9	0.3	100	0.3	0	0	975.8	NA	0.0000		9999	0	0	0	6590
2019/05/17 02:03:00	BASE	20.21	12	23.20	5	0.3	100	0.3	0	0	975.8	NA	0.0000		9999	0	0	0	6230
2019/05/17 02:04:00	BASE	21.08	11	23.20	5	0.3	100	0.3	0	0	975.8	NA	0.0000		9999	0	0	0	6270
2019/05/17 02:05:00	BASE	20.78	10	23.20	5	0.3	100	0.3	0	0	975.8	NA	0.0000		9999	0	0	0	6000
2019/05/17 02:06:00	BASE	21.26	9	23.87	6	0.3	100	0.3	0	0	975.7	NA	0.0000		9999	0	0	0	5580
2019/05/17 02:07:00	BASE	21.50	9	23.87	6	0.3	100	0.3	0	0	975.8	NA	0.0000		9999	0	0	0	4660
2019/05/17 02:08:00	BASE	20.80	8	23.87	6	0.3	100	0.3	0	0	975.8	NA	0.0000		9999	0	0	0	4530
2019/05/17 02:09:00	BASE	20.32	10	23.87	6	0.3	100	0.3	0	0	975.8	NA	0.0000		9999	0	0	0	5580
2019/05/17 02:10:00	BASE	20.45	11	23.87	6	0.3	100	0.3	0	0	975.8	NA	0.0000		9999	0	0	0	4560
2019/05/17 02:11:00	BASE	21.50	9	23.87	6	0.3	100	0.3	0	0	975.8	NA	0.0000		9999	0	0	0	3770
2019/05/17 02:12:00	BASE	21.30	8	23.87	6	0.3	100	0.3	0	0	975.9	NA	0.0000		9999	0	0	0	3870
2019/05/17 02:13:00	BASE	20.36	8	23.87	6	0.3	100	0.3	0	0	975.8	NA	0.0000	UP	9999	0	0	0	5410
2019/05/17 02:14:00	BASE	20.69	7	23.87	6	0.3	100	0.3	0	0	975.8	NA	0.0000	UP	9999	0	0	0	5450
2019/05/17 02:15:00	BASE	19.96	7	23.87	6	0.3	100	0.3	0	0	975.9	NA	0.0000	UP	9999	0	0	0	5480
2019/05/17 02:16:00	BASE	19.62	6	23.56	8	0.3	100	0.3	0	0	975.8	NA	0.0000	UP	9999	0	0	0	5480
2019/05/17 02:17:00	BASE	20.70	7	23.56	8	0.3	100	0.3	0	0	975.8	NA	0.0000	UP	9999	360	0	0	0
2019/05/17 02:18:01	BASE	21.18	7	23.56	8	0.3	100	0.3	0	0	975.8	NA	0.0000	UP	9999	0	0	0	3770
2019/05/17 02:19:00	BASE	21.82	8	23.77	6	0.3	100	0.3	0	0	975.8	NA	0.0000	UP	9999	0	0	0	4300
2019/05/17 02:20:00	BASE	21.91	10	23.77	6	0.3	100	0.3	0	0	975.8	NA	0.0000	UP	9999	0	0	0	5250
2019/05/17 02:21:00	BASE	20.75	10	23.77	6	0.3	100	0.3	0	0	975.8	NA	0.0000	UP	9999	0	0	0	5380
2019/05/17 02:22:00	BASE	20.33	10	23.77	6	0.3	100	0.3	0	0	975.8	NA	0.0000	UP	9999	0	0	0	5480
2019/05/17 02:23:00	BASE	20.91	10	23.77	6	0.3	100	0.3	0	0	975.7	NA	0.0000	UP	9999	0	0	0	5840
2019/05/17 02:24:00	BASE	21.07	9	23.77	6	0.3	100	0.3	0	0	975.7	NA	0.0000	UP	9999	0	0	0	4100
2019/05/17 02:25:00	BASE	21.04	7	23.77	6	0.3	100	0.3	0	0	975.7	NA	0.0000	UP	9999	390	0	0	0
2019/05/17 02:26:00	BASE	20.19	9	23.77	6	0.3	100	0.3	0	0	975.7	NA	0.0000	UP	9999	0	0	0	5150
2019/05/17 02:27:00	BASE	19.96	10	23.77	6	0.3	100	0.3	0	0	975.7	NA	0.0000	UP	9999	0	0	0	2990
2019/05/17 02:28:00	BASE	20.93	10	23.77	6	0.3	100	0.3	0	0	975.7	NA	0.0000	UP	9999	0	0	0	2920
2019/05/17 02:29:00	BASE	21.23	10	23.92	9	0.3	100	0.3	0	0	975.7	NA	0.0000	UP	9999	3080	0	0	0
2019/05/17 02:30:00	BASE	21.32	10	24.54	10	0.3	100	0.3	0	0	975.7	NA	0.0000	UP	9999	6790	0	0	0
2019/05/17 02:31:00	BASE	21.68	9	24.54	10	0.3	100	0.3	0	0	975.6	NA	0.0000		9999	6560	0	0	0
2019/05/17 02:32:00	BASE	22.41	8	25.88	8	0.3	100	0.3	0	0	975.6	NA	0.0000		9999	0	0	0	2760
2019/05/17 02:33:00	BASE	22.78	8	25.88	8	0.4	100	0.4	0	0	975.6	NA	0.0000		9999	0	0	0	6960
2019/05/17 02:34:00	BASE	22.34	8	25.88	8	0.4	100	0.4	0	0	975.7	NA	0.0000		9999	4790	0	0	0
2019/05/17 02:35:00	BASE	21.66	8	25.88	8	0.4	100	0.4	0	0	975.7	NA	0.0000		9999	4690	0	0	0
2019/05/17 02:36:00	BASE	21.25	8	25.88	8	0.4	100	0.4	0	0	975.7	NA	0.0000		9999	4790	0	0	0
2019/05/17 02:37:00	BASE	20.88	8	25.88	8	0.4	100	0.4	0	0	975.7	NA	0.0000		9999	4230	0	0	0
2019/05/17 02:38:00	BASE	20.54	11	25.88	8	0.4	100	0.4	0	0	975.8	NA	0.0000		9999	3900	0	0	0
2019/05/17 02:39:00	BASE	20.24	13	25.88	8	0.4	100	0.4	0	0	975.8	NA	0.0000		9999	0	0	0	5220
2019/05/17 02:40:00	BASE	20.58	12	25.88	8	0.4	100	0.4	0	0	975.8	NA	0.0000		9999	3940	4990	0	0
2019/05/17 02:41:00	BASE	21.26	11	25.88	8	0.4	100	0.4	0	0	975.8	NA	0.0000		9999	3870	0	0	0
2019/05/17 02:42:00	BASE	21.00	12	23.92	9	0.4	100	0.4	0	0	975.8	NA	0.0000		9999	3870	0	0	0
2019/05/17 02:43:00	BASE	20.53	11	23.20	10	0.4	100	0.4	0	0	975.9	NA	0.0000		9999	1640	0	0	0
2019/05/17 02:44:00	BASE	20.09	10	23.10	12	0.4	100	0.4	0	0	975.9	NA	0.0000		9999	0	0	0	5050
2019/05/17 02:45:00	BASE	20.27	10	23.10	12	0.4	100	0.4	0	0	975.9	NA	0.0000		9999	0	0	0	4430
2019/05/17 02:46:00	BASE	20.65	9	23.10	12	0.4	100	0.4	0	0	975.9	NA	0.0000		9999	0	0	0	4200
2019/05/17 02:47:00	BASE	20.21	9	23.10	12	0.4	100	0.4	0	0	975.9	NA	0.0000		9999	0	0	0	3770
2019/05/17 02:48:00	BASE	20.54	10	23.20	14	0.4	100	0.4	0	0	975.8	NA	0.0000	UP	9999	300	0	0	0
2019/05/17 02:49:00	BASE	21.07	12	24.28	14	0.4	100	0.4	0	0	975.9	NA	0.0000	UP	9000	0	0	0	3120
2019/05/17 02:50:01	BASE	20.87	12	24.28	14	0.4	100	0.4	0	0	975.8	NA	0.0000	-SN	9000	0	0	0	2920
2019/05/17 02:51:00	BASE	20.69	12	24.28	14	0.3	100	0.3	0	0	975.8	NA	0.0000	-SN	7000	260	0	0	0
2019/05/17 02:52:00	BASE	19.90	13	24.28	14	0.3	100	0.3	0	0	975.8	NA	0.0000	-SN	8000	0	0	0	3410
2019/05/17 02:53:00	BASE	20.06	14	24.28	14	0.3	100	0.3	0	0	975.8	NA	0.0000	-SN	9999	0	0	0	3380
2019/05/17 02:54:00	BASE	21.12	14	24.28	14	0.3	100	0.3	0	0	975.7	NA	0.0000	-SN	9999	390	0	0	0
2019/05/17 02:55:00	BASE	21.72	14	24.28	14	0.3	100	0.3	0	0	975.7	NA	0.0000	-SN	9999	0	0	0	5320
2019/05/17 02:56:00	BASE	21.76	15	24.28	14	0.3	100	0.3	0	0	975.7	NA	0.0000	-SN	9999	0	0	0	5510
2019/05/17 02:57:00	BASE	21.06	16	24.28	14	0.3	100	0.3	0	0	975.7	NA	0.0000	-SN	9999	0	0	0	5410
2019/05/17 02:58:00	BASE	21.40	16	24.28	14	0.3	100	0.3	0	0	975.7	NA	0.0000	-SN	9999	0	0	0	4790
2019/05/17 02:59:00	BASE	22.03	16	24.18	14	0.3	100	0.3	0	0	975.6	NA	0.0000	-SN	9999	0	0	0	4920
2019/05/17 03:00:01	BASE	21.36	16	24.18	14	0.4	100	0.4	0	0	975.7	NA	0.0000	-SN	9999	0	0	0	4790
2019/05/17 03:01:00	BASE	21.28	16	24.18	14	0.4	100	0.4	0	0	975.7	NA	0.0000	-SN	9999	0	0	0	4760
2019/05/17 03:02:00	BASE	21.35	17	24.18	14	0.4	100	0.4	0	0	975.7	NA	0.0000	-SN	9999	0	0	0	4460
2019/05/17 03:03:00	BASE	20.90	17	24.18	14	0.4	100	0.4	0	0	975.7	NA	0.0000	-SN	9999	0	0	0	5710
2019/05/17 03:04:00	BASE	21.25	18	24.54	16	0.4	100	0.4	0	0	975.7	NA	0.0000	-SN	9999	0	0	0	3740
2019/05/17 03:05:00	BASE	21.24	17	24.54	16	0.4	100	0.4	0	0	975.7	NA	0.0000	-SN	9999	0	0	0	3250
2019/05/17 03:06:00	BASE	20.92	18	24.54	16	0.4	100	0.4	0	0	975.7	NA	0.0000	-SN	8000	0	0	0	3120
2019/05/17 03:07:00	BASE	21.24	20	24.54	16	0.4	100	0.4	0	0	975.7	NA	0.0000	-SN	7000	0	0	0	3840
2019/05/17 03:08:00	BASE	21.00	20	24.54	16	0.4	100	0.4	0	0	975.7	NA	0.0000	-SN	7000	0	0	0	3120
2019/05/17 03:09:00	BASE	21.48	19	24.54	17	0.4	100	0.4	0	0	975.7	NA	0.0000	-SN BR	6000	0	0	0	2890
2019/05/17 03:10:00	BASE	22.40	19	24.85	20	0.4	100	0.4	0	0	975.7	NA	0.0000	-SN BR	5000	0	0	0	2720
2019/05/17 03:11:00	BASE	22.42	19	24.85	20	0.4	100	0.4	0	0	975.7	NA	0.0000	-SN BR	3800	300	0	0	0
2019/05/17 03:12:00	BASE	22.54	19	24.85	20	0.4	100	0.4	0	0	975.7	NA	0.0000	-SN BR	3400	0	0	0	2490
2019/05/17 03:13:00	BASE	22.40	18	24.85	20	0.4	100	0.4	0	0	975.7	NA	0.0000	-SN BR	2500	0	0	0	2260
2019/05/17 03:14:00	BASE	22.51	18	24.90	17	0.4	100	0.4	0	0	975.7	NA	0.0000	-SN BR	2300	0	0	0	2590
2019/05/17 03:15:00	BASE	22.74	19	24.90	17	0.4	100	0.4	0	0	975.7	NA	0.0000	-SN BR	2900	0	0	0	2950
2019/05/17 03:16:00	BASE	22.57	19	24.90	17	0.4	100	0.4	0	0	975.7	NA	0.0000	-SN BR	2900	0	0	0	3180
2019/05/17 03:17:00	BASE	22.68	21	24.90	17	0.4	100	0.4	0	0	975.7	NA	0.0000	-SN BR	2900	0	0	0	3020
2019/05/17 03:18:00	BASE	22.57	20	24.90	17	0.4	100	0.4	0	0	975.7	NA	0.0000	-SN BR	3400	0	0	0	3050
2019/05/17 03:19:00	BASE	22.54	18	24.90	17	0.3	100	0.3	0	0	975.7	NA	0.0000	-SN BR	3900	260	0	0	0
2019/05/17 03:20:00	BASE	22.99	18	24.90	17	0.3	100	0.3	0	0	975.7	NA	0.0000	-SN BR	4700	0	0	0	4070
2019/05/17 03:21:00	BASE	22.83	19	24.90	17	0.3	100	0.3	0	0	975.8	NA	0.0000	-SN BR	5000	0	0	0	4330
2019/05/17 03:22:00	BASE	22.74	20	24.90	17	0.3	100	0.3	0	0	975.8	NA	0.0000	-SN BR	6000	0	0	0	5150
2019/05/17 03:23:00	BASE	23.31	21	25.77	21	0.3	100	0.3	0	0	975.8	NA	0.0000	-SN BR	6000	0	0	0	5610
2019/05/17 03:24:00	BASE	23.77	21	25.77	21	0.3	100	0.3	0	0	975.8	NA	0.0000	-SN BR	5000	0	0	0	5710
2019/05/17 03:25:00	BASE	23.81	20	25.77	21	0.3	100	0.3	0	0	975.8	NA	0.0000	-SN BR	4900	0	0	0	5840
2019/05/17 03:26:00	BASE	24.06	20	25.77	21	0.3	100	0.3	0	0	975.7	NA	0.0000	-SN BR	5000	0	0	0	5810
2019/05/17 03:27:00	BASE	24.44	20	26.03	23	0.3	100	0.3	0	0	975.7	NA	0.0000	-SN BR	8000	0	0	0	5250
2019/05/17 03:28:00	BASE	24.70	21	27.01	19	0.3	100	0.3	0	0	975.8	NA	0.0000	-SN BR	9999	0	0	0	3940
2019/05/17 03:29:00	BASE	24.82	21	27.01	19	0.4	100	0.4	0	0	975.8	NA	0.0000	-SN BR	7000	0	0	0	3770
2019/05/17 03:30:00	BASE	24.37	21	27.01	19	0.4	100	0.4	0	0	975.8	NA	0.0000	-SN BR	5000	0	0	0	3870
2019/05/17 03:31:00	BASE	24.68	22	27.01	19	0.4	100	0.4	0	0	975.7	NA	0.0000	-SN BR	5000	0	0	0	5450
2019/05/17 03:32:00	BASE	24.92	22	27.01	19	0.4	100	0.4	0	0	975.8	NA	0.0000	-SN BR	8000	0	0	0	5870
2019/05/17 03:33:00	BASE	24.81	22	27.68	18	0.4	100	0.4	0	0	975.8	NA	0.0000	-SN BR	9999	3870	0	0	0
2019/05/17 03:34:00	BASE	25.37	21	27.68	18	0.4	100	0.4	0	0	975.7	NA	0.0000	-SN BR	9999	0	0	0	5710
2019/05/17 03:35:00	BASE	25.63	21	27.68	18	0.4	100	0.4	0	0	975.8	NA	0.0000	-SN BR	9999	0	0	0	5680
2019/05/17 03:36:00	BASE	25.00	22	27.68	18	0.4	100	0.4	0	0	975.8	NA	0.0000	-SN BR	9999	3840	0	0	0
2019/05/17 03:37:00	BASE	24.62	21	27.68	18	0.4	100	0.4	0	0	975.8	NA	0.0000	-SN BR	9999	3710	0	0	0
2019/05/17 03:38:00	BASE	25.21	21	27.68	18	0.4	100	0.4	0	0	975.7	NA	0.0000	-SN BR	9999	3710	0	0	0
2019/05/17 03:39:00	BASE	25.17	21	27.68	18	0.4	100	0.4	0	0	975.8	NA	0.0000	-SN BR	9999	0	0	0	5640
2019/05/17 03:40:00	BASE	24.65	22	27.68	18	0.4	100	0.4	0	0	975.8	NA	0.0000	-SN	9999	0	0	0	7250
2019/05/17 03:41:00	BASE	25.93	22	28.35	20	0.4	100	0.4	0	0	975.7	NA	0.0000	-SN	9999	0	0	0	6330
2019/05/17 03:42:00	BASE	27.01	22	28.96	23	0.4	100	0.4	0	0	975.7	NA	0.0000	-SN	9999	0	0	0	4990
2019/05/17 03:43:00	BASE	26.47	22	29.48	17	0.4	100	0.4	0	0	975.8	NA	0.0000	-SN	9999	0	0	0	4170
2019/05/17 03:44:00	BASE	26.33	21	29.48	17	0.4	100	0.4	0	0	975.8	NA	0.0000	-SN	5000	0	0	0	2460
2019/05/17 03:45:00	BASE	26.77	22	29.48	17	0.4	100	0.4	0	0	975.8	NA	0.0000	-SN BR	2800	300	0	0	0
2019/05/17 03:46:00	BASE	27.44	22	29.48	17	0.4	100	0.4	0	0	975.7	NA	0.0000	-SN BR	2400	0	0	0	2260
2019/05/17 03:47:00	BASE	27.31	22	29.48	17	0.4	100	0.4	0	0	975.8	NA	0.0000	-SN BR	3300	0	0	0	2850
2019/05/17 03:48:00	BASE	26.65	22	29.48	17	0.4	100	0.4	0	0	975.8	NA	0.0000	-SN BR	3800	260	0	0	0
2019/05/17 03:49:00	BASE	26.44	22	29.48	17	0.4	100	0.4	0	0	975.8	NA	0.0000	-SN BR	3300	0	0	0	3180
2019/05/17 03:50:00	BASE	26.38	23	29.48	17	0.4	100	0.4	0	0	975.7	NA	0.0000	-SN BR	4700	0	0	0	3540
2019/05/17 03:51:00	BASE	27.18	24	30.35	22	0.4	100	0.4	0	0	975.7	NA	0.0000	-SN BR	4900	0	0	0	2590
2019/05/17 03:52:00	BASE	27.16	23	30.35	22	0.4	100	0.4	0	0	975.7	NA	0.0000	-SN BR	3300	0	0	0	2920
2019/05/17 03:53:00	BASE	26.94	22	30.35	22	0.4	100	0.4	0	0	975.7	NA	0.0000	-SN BR	2800	0	0	0	3610
2019/05/17 03:54:00	BASE	27.31	21	30.35	22	0.4	100	0.4	0	0	975.7	NA	0.0000	-SN BR	2600	300	0	0	0
2019/05/17 03:55:00	BASE	27.15	21	30.35	22	0.4	100	0.4	0	0	975.7	NA	0.0000	-SN BR	2500	260	0	0	0
2019/05/17 03:56:00	BASE	27.52	22	30.35	22	0.4	100	0.4	0	0	975.7	NA	0.0000	-SN BR	1900	0	0	0	1800
2019/05/17 03:57:00	BASE	27.50	22	30.35	22	0.4	100	0.4	0	0	975.7	NA	0.0000	-SN BR	2000	260	0	0	0
2019/05/17 03:58:00	BASE	27.12	22	30.35	22	0.4	100	0.4	0	0	975.7	NA	0.0000	-SN BR	2400	0	0	0	3670
2019/05/17 03:59:00	BASE	27.20	21	30.35	22	0.4	100	0.4	0	0	975.7	NA	0.0000	-SN BR	2500	0	0	0	3250
2019/05/17 04:00:00	BASE	27.02	22	30.35	22	0.4	100	0.4	0	0	975.7	NA	0.0000	-SN BR	2500	0	0	0	2400
2019/05/17 04:01:00	BASE	27.00	23	29.17	21	0.4	100	0.4	0	0	975.7	NA	0.0000	-SN BR	1700	0	0	0	2590
2019/05/17 04:02:01	BASE	27.22	23	29.32	24	0.4	100	0.4	0	0	M	NA	0.0000	-SN BR	1500	0	0	0	2850
2019/05/17 04:03:01	BASE	27.34	23	29.32	23	0.4	100	0.4	0	0	975.7	NA	0.0000	-SN BR	2000	0	0	0	2920
2019/05/17 04:04:00	BASE	26.46	23	29.32	23	0.4	100	0.4	0	0	975.8	NA	0.0000	-SN BR	2200	0	0	0	2950
2019/05/17 04:05:00	BASE	26.39	21	29.32	23	0.4	100	0.4	0	0	975.7	NA	0.0000	-SN BR	2700	0	0	0	2760
2019/05/17 04:06:01	BASE	27.03	21	29.84	20	0.4	100	0.4	0	0	975.7	NA	0.0000	-SN BR	2600	0	0	0	2100
2019/05/17 04:07:00	BASE	27.24	22	29.84	20	0.4	100	0.4	0	0	975.7	NA	0.0000	-SN BR	2300	0	0	0	2400
2019/05/17 04:08:01	BASE	27.50	22	29.94	20	0.4	100	0.4	0	0	975.7	NA	0.0000	-SN BR	2600	0	0	0	2890
2019/05/17 04:09:00	BASE	27.42	22	29.94	20	0.4	100	0.4	0	0	975.7	NA	0.0000	-SN BR	3600	0	0	0	2490
2019/05/17 04:10:00	BASE	27.26	20	29.94	20	0.4	100	0.4	0	0	975.7	NA	0.0000	-SN BR	4100	0	0	0	2360
2019/05/17 04:11:00	BASE	27.63	21	30.87	23	0.4	100	0.4	0	0	975.8	NA	0.0000	-SN BR	3400	0	0	0	2530
2019/05/17 04:12:00	BASE	27.69	21	30.87	23	0.4	100	0.4	0	0	975.7	NA	0.0000	-SN BR	5000	0	0	0	2950
2019/05/17 04:13:00	BASE	27.15	20	30.87	23	0.4	100	0.4	0	0	975.8	NA	0.0000	-SN BR	7000	0	0	0	3380
2019/05/17 04:14:00	BASE	26.82	19	30.87	23	0.4	100	0.4	0	0	975.8	NA	0.0000	-SN BR	5000	0	0	0	5680
2019/05/17 04:15:00	BASE	25.74	18	30.87	23	0.4	100	0.4	0	0	975.9	NA	0.0000	-SN BR	3300	260	0	0	0
2019/05/17 04:16:00	BASE	25.54	18	30.87	23	0.4	100	0.4	0	0	975.8	NA	0.0000	-SN BR	3400	0	0	0	5150
2019/05/17 04:17:00	BASE	26.88	18	30.87	23	0.3	100	0.3	0	0	975.8	NA	0.0000	-SN BR	3600	300	0	0	0
2019/05/17 04:18:01	BASE	26.73	19	30.87	23	0.3	100	0.3	0	0	975.9	NA	0.0000	-SN BR	2800	230	0	0	0
2019/05/17 04:19:00	BASE	27.00	19	30.87	23	0.3	100	0.3	0	0	975.8	NA	0.0000	-SN BR	3400	0	0	0	3670
2019/05/17 04:20:00	BASE	27.40	18	30.87	23	0.3	100	0.3	0	0	975.9	NA	0.0000	-SN BR	3900	0	0	0	3540
2019/05/17 04:21:00	BASE	25.90	18	29.89	19	0.3	100	0.3	0	0	976.0	NA	0.0000	-SN BR	7000	0	0	0	5810
2019/05/17 04:22:00	BASE	25.88	18	29.89	19	0.3	100	0.3	0	0	975.9	NA	0.0000	-SN BR	3700	0	0	0	5870
2019/05/17 04:23:00	BASE	26.72	19	29.89	19	0.3	100	0.3	0	0	976.0	NA	0.0000	-SN BR	3700	300	0	0	0
2019/05/17 04:24:00	BASE	26.33	18	29.89	19	0.3	100	0.3	0	0	976.0	NA	0.0000	-SN BR	3700	0	0	0	2990
2019/05/17 04:25:00	BASE	24.95	14	29.89	19	0.3	100	0.3	0	0	976.1	NA	0.0000	-SN BR	3700	300	0	0	0
2019/05/17 04:26:00	BASE	24.66	11	29.89	19	0.3	100	0.3	0	0	976.2	NA	0.0000	-SN BR	3900	0	0	0	3380
2019/05/17 04:27:00	BASE	24.38	7	29.43	21	0.3	100	0.3	0	0	976.3	NA	0.0000	-SN BR	4500	0	0	0	2690
2019/05/17 04:28:00	BASE	22.25	6	29.43	21	0.3	100	0.3	0	0	976.3	NA	0.0000	-SN BR	9999	260	0	0	0
2019/05/17 04:29:00	BASE	21.82	11	29.43	21	0.3	100	0.3	0	0	976.3	NA	0.0000	-SN BR	9999	260	0	0	0
2019/05/17 04:30:00	BASE	21.89	13	29.43	21	0.3	100	0.3	0	0	976.4	NA	0.0000	-SN BR	3700	0	0	0	3870
2019/05/17 04:31:00	BASE	21.64	10	29.43	21	0.3	100	0.3	0	0	976.3	NA	0.0000	-SN BR	3900	260	0	0	0
2019/05/17 04:32:00	BASE	22.66	9	29.43	21	0.3	100	0.3	0	0	976.3	NA	0.0000	-SN BR	5000	260	0	0	0
2019/05/17 04:33:00	BASE	22.32	10	27.83	18	0.3	100	0.3	0	0	976.4	NA	0.0000	-SN BR	5000	260	0	0	0
2019/05/17 04:34:00	BASE	21.16	10	26.29	14	0.3	100	0.3	0	0	976.4	NA	0.0000	-SN BR	9999	300	0	0	0
2019/05/17 04:35:00	BASE	22.48	13	26.29	14	0.3	100	0.3	0	0	976.4	NA	0.0000	-SN BR	9999	0	0	0	4100
2019/05/17 04:36:00	BASE	23.16	15	26.13	15	0.3	100	0.3	0	0	976.4	NA	0.0000	-SN BR	6000	0	0	0	3970
2019/05/17 04:37:00	BASE	22.69	15	26.13	15	0.3	100	0.3	0	0	976.5	NA	0.0000	-SN BR	5000	0	0	0	3940
2019/05/17 04:38:00	BASE	23.00	13	26.34	7	0.3	100	0.3	0	0	976.4	NA	0.0000	-SN BR	6000	0	0	0	3310
2019/05/17 04:39:00	BASE	23.30	13	26.34	7	0.3	100	0.3	0	0	976.4	NA	0.0000	-SN BR	5000	0	0	0	2760
2019/05/17 04:40:00	BASE	22.96	14	26.34	7	0.3	100	0.3	0	0	976.5	NA	0.0000	-SN BR	3900	230	0	0	0
2019/05/17 04:41:00	BASE	22.52	13	26.34	7	0.3	100	0.3	0	0	976.5	NA	0.0000	-SN BR	9999	300	0	0	0
2019/05/17 04:42:00	BASE	23.50	13	26.34	7	0.2	100	0.2	0	0	976.5	NA	0.0000	-SN BR	9000	300	0	0	0
2019/05/17 04:43:00	BASE	23.63	11	26.34	7	0.2	100	0.2	0	0	976.5	NA	0.0000	-SN BR	9000	0	0	0	3540
2019/05/17 04:44:00	BASE	22.80	8	26.34	7	0.2	100	0.2	0	0	976.6	NA	0.0000	-SN BR	9999	0	0	0	4070
2019/05/17 04:45:00	BASE	22.80	7	26.34	7	0.2	100	0.2	0	0	976.6	NA	0.0000	-SN BR	9999	0	0	0	4100
2019/05/17 04:46:00	BASE	22.72	7	26.34	7	0.2	100	0.2	0	0	976.6	NA	0.0000	-SN BR	9999	0	0	0	4070
2019/05/17 04:47:00	BASE	22.04	7	26.34	7	0.2	100	0.2	0	0	976.7	NA	0.0000	-SN BR	9999	0	0	0	4300
2019/05/17 04:48:00	BASE	21.48	7	26.13	10	0.2	100	0.2	0	0	976.7	NA	0.0000	-SN BR	9999	0	0	0	4130
2019/05/17 04:49:00	BASE	21.47	6	25.57	10	0.2	100	0.2	0	0	976.7	NA	0.0000	-SN	9999	0	0	0	4130
2019/05/17 04:50:00	BASE	21.30	6	25.57	10	0.2	100	0.2	0	0	976.8	NA	0.0000	-SN	9999	0	0	0	3050
2019/05/17 04:51:00	BASE	21.09	6	25.57	10	0.2	100	0.2	0	0	976.8	NA	0.0000	-SN	9999	390	0	0	0
2019/05/17 04:52:00	BASE	21.08	7	24.28	7	0.2	100	0.2	0	0	976.8	NA	0.0000	-SN	9999	390	0	0	0
2019/05/17 04:53:00	BASE	20.77	7	24.28	7	0.2	100	0.2	0	0	976.8	NA	0.0000	-SN	9999	360	0	0	0
2019/05/17 04:54:00	BASE	20.65	7	24.28	7	0.2	100	0.2	0	0	976.9	NA	0.0000	-SN	9999	300	0	0	0
2019/05/17 04:55:00	BASE	19.61	7	24.28	7	0.3	100	0.3	0	0	977.0	NA	0.0000	-SN	9999	260	0	0	0
2019/05/17 04:56:00	BASE	18.67	5	24.28	7	0.3	100	0.3	0	0	977.0	NA	0.0000	-SN	9999	260	0	0	0
2019/05/17 04:57:00	BASE	18.38	1	23.10	5	0.3	100	0.3	0	0	977.0	NA	0.0000	-SN	9999	260	0	0	0
2019/05/17 04:58:00	BASE	17.97	359	23.10	5	0.3	100	0.3	0	0	977.0	NA	0.0000	-SN	9999	0	0	0	2030
2019/05/17 04:59:00	BASE	18.07	359	23.10	5	0.3	100	0.3	0	0	977.0	NA	0.0000	-SN	9999	0	0	0	2230
2019/05/17 05:00:01	BASE	19.82	357	25.00	353	0.2	100	0.2	0	0	976.9	NA	0.0000	-SN	9999	360	0	0	0
2019/05/17 05:01:00	BASE	21.27	356	26.03	353	0.2	100	0.2	0	0	977.0	NA	0.0000	-SN	9999	330	0	0	0
2019/05/17 05:02:00	BASE	20.14	352	26.03	353	0.3	100	0.3	0	0	977.1	NA	0.0000	-SN	9999	330	0	0	0
2019/05/17 05:03:00	BASE	18.56	349	26.03	353	0.3	100	0.3	0	0	977.2	NA	0.0000	-SN	9999	300	0	0	0
2019/05/17 05:04:00	BASE	18.22	342	26.03	353	0.3	100	0.3	0	0	977.2	NA	0.0000	-SN	9999	330	0	0	0
2019/05/17 05:05:00	BASE	18.69	337	26.03	353	0.3	100	0.3	0	0	977.3	NA	0.0000	-SN	9999	330	0	0	0
2019/05/17 05:06:00	BASE	19.20	338	26.03	353	0.3	100	0.3	0	0	977.3	NA	0.0000		9999	300	0	0	0
2019/05/17 05:07:00	BASE	18.33	337	26.03	353	0.3	100	0.2	0	0	977.3	NA	0.0000		9999	330	0	0	0
2019/05/17 05:08:00	BASE	17.40	338	26.03	353	0.2	100	0.2	0	0	977.3	NA	0.0000		9999	330	0	0	0
2019/05/17 05:09:00	BASE	18.35	337	26.03	353	0.2	100	0.2	0	0	977.3	NA	0.0000		9999	330	0	0	0
2019/05/17 05:10:00	BASE	18.94	338	26.03	353	0.2	100	0.2	0	0	977.3	NA	0.0000		9999	330	0	0	0
2019/05/17 05:11:00	BASE	18.46	336	21.81	338	0.2	100	0.2	0	0	977.3	NA	0.0000		9999	300	0	0	0
2019/05/17 05:12:00	BASE	18.29	333	21.81	338	0.2	100	0.2	0	0	977.4	NA	0.0000		9999	330	0	0	0
2019/05/17 05:13:01	BASE	18.59	334	21.81	338	0.2	100	0.2	0	0	977.4	NA	0.0000		9999	360	0	0	0
2019/05/17 05:14:01	BASE	18.78	333	21.81	338	0.2	100	0.2	0	0	977.4	NA	0.0000		9999	330	0	0	0
2019/05/17 05:15:01	BASE	18.25	331	21.81	338	0.2	100	0.2	0	0	977.5	NA	0.0000		9999	330	1510	0	0
2019/05/17 05:16:01	BASE	16.71	332	21.81	338	0.1	100	0.1	0	0	977.6	NA	0.0000		9999	330	0	0	0
2019/05/17 05:17:00	BASE	16.13	332	21.81	338	0.1	100	0.1	0	0	977.6	NA	0.0000		9999	0	0	0	3810
2019/05/17 05:18:01	BASE	15.97	333	21.81	338	0.1	100	0.1	0	0	977.6	NA	0.0000		9999	330	0	0	0
2019/05/17 05:19:01	BASE	15.28	333	21.40	331	0.1	100	0.1	0	0	977.7	NA	0.0000		9999	330	0	0	0
2019/05/17 05:20:00	BASE	14.56	333	21.40	331	0.1	100	0.1	0	0	977.7	NA	0.0000		9999	360	0	0	0
2019/05/17 05:21:00	BASE	14.77	333	21.40	331	0.1	100	0.1	0	0	977.7	NA	0.0000		9999	360	0	0	0
2019/05/17 05:22:00	BASE	14.58	333	20.68	334	0.1	100	0.1	0	0	977.7	NA	0.0000		9999	360	0	0	0
2019/05/17 05:23:00	BASE	13.87	334	20.17	332	0.1	100	0.1	0	0	977.8	NA	0.0000		9999	360	0	0	0
2019/05/17 05:24:00	BASE	13.78	333	18.73	327	0.0	100	0.0	0	0	977.8	NA	0.0000		9999	0	0	0	3740
2019/05/17 05:25:00	BASE	13.42	331	17.03	332	0.0	100	0.0	0	0	977.8	NA	0.0000		9999	360	0	0	0
2019/05/17 05:26:00	BASE	12.57	330	17.03	332	0.0	100	0.0	0	0	977.9	NA	0.0000		9999	360	0	0	0
2019/05/17 05:27:00	BASE	11.26	330	16.87	331	0.0	100	0.0	0	0	977.9	NA	0.0000		9999	330	0	0	0
2019/05/17 05:28:00	BASE	10.66	331	16.87	331	0.0	100	0.0	0	0	977.9	NA	0.0000		9999	360	1770	0	0
2019/05/17 05:29:00	BASE	10.59	330	16.87	331	0.0	100	0.0	0	0	977.9	NA	0.0000		9999	330	0	0	0
2019/05/17 05:30:00	BASE	10.21	330	16.87	331	-0.0	100	-0.0	0	0	977.9	NA	0.0000		9999	300	0	0	0
2019/05/17 05:31:00	BASE	9.85	331	14.92	336	-0.0	100	-0.0	0	0	977.9	NA	0.0000		9999	330	0	0	0
2019/05/17 05:32:00	BASE	10.05	331	14.66	333	-0.0	100	-0.0	0	0	977.9	NA	0.0000		9999	230	0	0	0
2019/05/17 05:33:00	BASE	10.40	329	14.46	327	-0.0	100	-0.0	0	0	977.9	NA	0.0000		9999	260	0	0	0
2019/05/17 05:34:00	BASE	10.08	326	14.46	327	-0.0	100	-0.0	0	0	978.0	NA	0.0000		9999	300	0	0	0
2019/05/17 05:35:00	BASE	9.64	325	12.60	329	-0.1	100	-0.1	0	0	978.0	NA	0.0000		9999	300	0	0	0
2019/05/17 05:36:00	BASE	10.01	324	11.88	332	-0.1	100	-0.1	0	0	978.0	NA	0.0000		9999	330	0	0	0
2019/05/17 05:37:00	BASE	10.31	323	11.88	332	-0.1	100	-0.1	0	0	978.1	NA	0.0000		9999	300	0	0	0
2019/05/17 05:38:00	BASE	10.06	325	11.42	329	-0.1	100	-0.1	0	0	978.1	NA	0.0000		9999	260	0	0	0
2019/05/17 05:39:00	BASE	9.68	326	11.42	329	-0.1	100	-0.1	0	0	978.1	NA	0.0000		9999	300	0	0	0
2019/05/17 05:40:00	BASE	9.33	327	11.42	329	-0.1	100	-0.1	0	0	978.1	NA	0.0000		9999	300	0	0	0
2019/05/17 05:41:00	BASE	8.92	328	11.42	329	-0.1	100	-0.1	0	0	978.1	NA	0.0000		9999	300	0	0	0
2019/05/17 05:42:00	BASE	8.79	330	11.42	329	-0.1	100	-0.1	0	0	978.1	NA	0.0000		9999	300	0	0	0
2019/05/17 05:43:00	BASE	8.54	336	10.91	324	-0.1	100	-0.1	0	0	978.1	NA	0.0000		9999	360	0	0	0
2019/05/17 05:44:00	BASE	7.69	339	10.91	324	-0.0	100	-0.0	0	0	978.1	NA	0.0000		9999	330	0	0	0
2019/05/17 05:45:00	BASE	7.27	340	10.91	324	-0.0	100	-0.0	0	0	978.1	NA	0.0000		9999	330	0	0	0
2019/05/17 05:46:00	BASE	7.31	342	10.91	324	0.0	100	0.0	0	0	978.2	NA	0.0000		9999	330	0	0	0
2019/05/17 05:47:00	BASE	6.92	346	10.80	324	-0.0	100	-0.0	0	0	978.2	NA	0.2540		9999	360	0	0	0
2019/05/17 05:48:00	BASE	7.27	348	10.08	327	-0.0	100	-0.0	0	0	978.2	NA	0.0000		9999	360	0	0	0
2019/05/17 05:49:00	BASE	8.20	348	9.88	324	-0.0	100	-0.0	0	0	978.1	NA	0.0000		9999	330	0	0	0
2019/05/17 05:50:00	BASE	9.07	350	11.01	353	-0.0	100	-0.0	0	0	978.1	NA	0.0000		9999	360	0	0	0
2019/05/17 05:51:00	BASE	9.80	349	11.01	353	-0.0	100	-0.0	0	0	978.1	NA	0.0000		9999	360	0	0	0
2019/05/17 05:52:00	BASE	9.72	347	11.01	353	0.0	100	0.0	0	0	978.1	NA	0.0000		9999	360	0	0	0
2019/05/17 05:53:00	BASE	9.04	350	11.01	353	0.0	100	0.0	0	0	978.2	NA	0.0000		9999	330	0	0	0
2019/05/17 05:54:00	BASE	8.35	351	11.01	353	0.0	100	0.0	0	0	978.2	NA	0.0000		9999	330	0	0	0
2019/05/17 05:55:00	BASE	8.38	350	11.01	353	0.0	100	0.0	0	0	978.3	NA	0.0000		9999	300	0	0	0
2019/05/17 05:56:00	BASE	8.48	348	11.01	353	0.0	100	0.0	0	0	978.3	NA	0.0000		9999	260	0	0	0
2019/05/17 05:57:00	BASE	8.24	348	11.01	353	0.0	100	0.0	0	0	978.3	NA	0.0000		9999	0	0	0	1670
2019/05/17 05:58:00	BASE	7.89	345	11.01	353	0.0	100	0.0	0	0	978.3	NA	0.0000		9999	0	0	0	1710
2019/05/17 05:59:00	BASE	7.79	340	11.01	353	0.0	100	0.0	0	0	978.3	NA	0.0000	-SN	9999	230	0	0	0
2019/05/17 06:00:00	BASE	7.90	338	10.44	350	0.0	100	0.0	0	0	978.3	NA	0.0000	-SN	9999	260	0	0	0
2019/05/17 06:01:00	BASE	8.00	339	10.19	349	0.0	100	0.0	0	0	978.3	NA	0.0000	-SN	9999	260	0	0	0
2019/05/17 06:02:00	BASE	8.14	340	9.47	352	-0.0	100	-0.0	0	0	978.3	NA	0.0000	-SN	9999	300	0	0	0
2019/05/17 06:03:00	BASE	8.42	341	9.62	349	-0.0	100	-0.0	0	0	978.3	NA	0.0000	-SN	9999	260	0	0	0
2019/05/17 06:04:00	BASE	8.68	341	9.93	345	-0.0	100	-0.0	0	0	978.3	NA	0.0000	-SN	9999	260	0	0	0
2019/05/17 06:05:00	BASE	8.72	337	9.93	345	-0.0	100	-0.0	0	0	978.4	NA	0.0000	-SN	9999	260	0	0	0
2019/05/17 06:06:00	BASE	8.86	337	9.93	339	-0.0	100	-0.0	0	0	978.4	NA	0.0000	-SN	9999	260	0	0	0
2019/05/17 06:07:00	BASE	9.31	338	10.08	329	-0.0	100	-0.0	0	0	978.4	NA	0.0000	-SN	9999	300	0	0	0
2019/05/17 06:08:00	BASE	10.63	335	12.55	332	-0.1	100	-0.1	0	0	978.4	NA	0.0000	-SN	9999	360	0	0	0
2019/05/17 06:09:00	BASE	12.11	336	13.27	337	-0.1	100	-0.1	0	0	978.3	NA	0.0000	-SN	9999	430	0	0	0
2019/05/17 06:10:00	BASE	12.34	334	13.38	332	-0.1	100	-0.1	0	0	978.4	NA	0.0000	-SN	9999	390	0	0	0
2019/05/17 06:11:00	BASE	12.30	335	13.38	332	-0.1	100	-0.1	0	0	978.4	NA	0.0000	-SN	9999	430	2000	0	0
2019/05/17 06:12:00	BASE	12.40	336	13.38	332	-0.2	100	-0.2	0	0	978.4	NA	0.0000	-SN	9999	1020	1640	0	0
2019/05/17 06:13:00	BASE	12.33	335	13.38	334	-0.2	100	-0.2	0	0	978.4	NA	0.0000	-SN	9999	0	0	0	3150
2019/05/17 06:14:00	BASE	12.34	335	13.38	334	-0.2	100	-0.2	0	0	978.4	NA	0.0000	-SN	9999	620	1280	0	0
2019/05/17 06:15:00	BASE	12.14	335	13.38	334	-0.2	100	-0.2	0	0	978.4	NA	0.0000	-SN	9999	850	2820	0	0
2019/05/17 06:16:00	BASE	11.62	334	13.38	334	-0.2	100	-0.2	0	0	978.5	NA	0.0000	-SN	9999	620	1510	0	0
2019/05/17 06:17:00	BASE	10.90	334	13.38	334	-0.2	100	-0.2	0	0	978.5	NA	0.0000	-SN	9999	890	1740	0	0
2019/05/17 06:18:00	BASE	10.50	333	13.38	334	-0.1	100	-0.1	0	0	978.5	NA	0.0000	-SN	9999	790	0	0	0
2019/05/17 06:19:00	BASE	11.44	331	14.92	323	-0.1	100	-0.1	0	0	978.5	NA	0.0000		9999	430	0	0	0
2019/05/17 06:20:00	BASE	12.41	329	14.92	323	-0.1	100	-0.1	0	0	978.4	NA	0.0000		9999	1350	1970	0	0
2019/05/17 06:21:00	BASE	12.92	331	14.92	323	-0.2	100	-0.2	0	0	978.4	NA	0.0000		9999	1480	2130	0	0
2019/05/17 06:22:00	BASE	13.01	332	14.92	323	-0.2	100	-0.2	0	0	978.5	NA	0.0000		9999	1640	2360	0	0
2019/05/17 06:23:00	BASE	12.72	333	14.92	323	-0.2	100	-0.2	0	0	978.5	NA	0.0000		9999	1640	0	0	0
2019/05/17 06:24:00	BASE	12.81	333	14.92	323	-0.2	100	-0.2	0	0	978.5	NA	0.0000		9999	460	0	0	0
2019/05/17 06:25:00	BASE	12.67	331	14.92	323	-0.2	100	-0.2	0	0	978.5	NA	0.0000		9999	430	2530	0	0
2019/05/17 06:26:00	BASE	11.87	333	14.92	323	-0.2	100	-0.2	0	0	978.5	NA	0.0000	-SN	9999	0	0	0	3080
2019/05/17 06:27:00	BASE	11.66	336	14.92	323	-0.2	100	-0.2	0	0	978.5	NA	0.0000	-SN	9999	1610	0	0	0
2019/05/17 06:28:00	BASE	12.24	333	14.92	323	-0.2	100	-0.2	0	0	978.5	NA	0.0000	-SN	9999	1800	0	0	0
2019/05/17 06:29:00	BASE	12.13	333	14.46	333	-0.2	100	-0.2	0	0	978.5	NA	0.0000	-SN	9999	430	0	0	0
2019/05/17 06:30:00	BASE	12.36	337	14.46	333	-0.2	100	-0.2	0	0	978.5	NA	0.0000	-SN	9999	1900	0	0	0
2019/05/17 06:31:00	BASE	12.93	335	14.46	333	-0.2	100	-0.2	0	0	978.6	NA	0.0000		9999	360	0	0	0
2019/05/17 06:32:00	BASE	12.25	332	14.46	333	-0.2	100	-0.2	0	0	978.6	NA	0.0000	-SN	9999	360	0	0	0
2019/05/17 06:33:00	BASE	11.49	333	14.46	333	-0.2	100	-0.2	0	0	978.6	NA	0.0000	-SN	9999	390	0	0	0
2019/05/17 06:34:00	BASE	11.16	333	14.10	332	-0.2	100	-0.2	0	0	978.6	NA	0.0000	-SN	9999	1510	0	0	0
2019/05/17 06:35:00	BASE	10.81	332	14.10	332	-0.2	100	-0.2	0	0	978.6	NA	0.0000	-SN	9999	430	0	0	0
2019/05/17 06:36:00	BASE	10.79	330	14.10	332	-0.2	100	-0.2	0	0	978.6	NA	0.0000	-SN	9999	330	0	0	0
2019/05/17 06:37:00	BASE	10.66	328	14.10	332	-0.2	100	-0.2	0	0	978.7	NA	0.0000	-SN	9999	360	0	0	0
2019/05/17 06:38:00	BASE	10.47	331	14.10	332	-0.2	100	-0.2	0	0	978.7	NA	0.0000	-SN	9999	360	0	0	0
2019/05/17 06:39:00	BASE	10.26	332	14.10	332	-0.2	100	-0.2	0	0	978.7	NA	0.0000	-SN	9999	0	0	0	2490
2019/05/17 06:40:00	BASE	10.19	330	14.10	332	-0.2	100	-0.2	0	0	978.7	NA	0.0000	-SN	9999	0	0	0	2430
2019/05/17 06:41:00	BASE	10.06	329	12.55	334	-0.2	100	-0.2	0	0	978.7	NA	0.0000	-SN	9999	2300	0	0	0
2019/05/17 06:42:00	BASE	9.86	332	12.55	334	-0.2	100	-0.2	0	0	978.7	NA	0.0000	-SN	9999	330	0	0	0
2019/05/17 06:43:00	BASE	9.82	334	12.55	334	-0.2	100	-0.2	0	0	978.7	NA	0.0000	-SN	9999	360	0	0	0
2019/05/17 06:44:00	BASE	9.85	334	12.55	334	-0.2	100	-0.2	0	0	978.7	NA	0.0000	-SN	9999	360	0	0	0
2019/05/17 06:45:00	BASE	9.94	334	11.47	329	-0.2	100	-0.2	0	0	978.7	NA	0.0000	-SN	9999	300	0	0	0
2019/05/17 06:46:00	BASE	9.96	334	11.47	329	-0.2	100	-0.2	0	0	978.7	NA	0.0000	-SN	9999	330	0	0	0
2019/05/17 06:47:00	BASE	9.87	332	10.96	335	-0.2	100	-0.2	0	0	978.7	NA	0.0000	-SN	9999	260	0	0	0
2019/05/17 06:48:00	BASE	9.78	330	10.96	335	-0.3	100	-0.3	0	0	978.7	NA	0.0000	-SN	9999	0	0	0	2330
2019/05/17 06:49:00	BASE	9.34	330	10.96	335	-0.3	100	-0.3	0	0	978.7	NA	0.0000	-SN	9999	330	0	0	0
2019/05/17 06:50:00	BASE	8.57	328	10.96	335	-0.3	100	-0.3	0	0	978.8	NA	0.0000	-SN	9999	330	0	0	0
2019/05/17 06:51:00	BASE	8.42	327	10.96	335	-0.3	100	-0.3	0	0	978.7	NA	0.0000	-SN	9999	330	0	0	0
2019/05/17 06:52:00	BASE	8.56	325	10.96	335	-0.3	100	-0.3	0	0	978.7	NA	0.0000	-SN	9999	300	0	0	0
2019/05/17 06:53:00	BASE	8.96	322	10.96	335	-0.3	100	-0.3	0	0	978.7	NA	0.0000	-SN	9000	0	0	0	1540
2019/05/17 06:54:00	BASE	9.08	322	10.96	335	-0.3	100	-0.3	0	0	978.7	NA	0.0000	-SN	6000	0	0	0	1440
2019/05/17 06:55:00	BASE	8.61	324	10.96	335	-0.4	100	-0.4	0	0	978.8	NA	0.0000	-SN	7000	0	0	0	1380
2019/05/17 06:56:00	BASE	8.27	325	10.55	324	-0.4	100	-0.4	0	0	978.8	NA	0.0000	-SN	7000	0	0	0	1350
2019/05/17 06:57:00	BASE	8.17	326	10.19	329	-0.4	100	-0.4	0	0	978.8	NA	0.0000	-SN BR	6000	0	0	0	1280
2019/05/17 06:58:00	BASE	8.10	325	10.08	327	-0.4	100	-0.4	0	0	978.9	NA	0.0000	-SN BR	6000	0	0	0	1210
2019/05/17 06:59:00	BASE	7.71	326	10.03	325	-0.4	100	-0.4	0	0	978.9	NA	0.0000	-SN BR	8000	0	0	0	1150
2019/05/17 07:00:00	BASE	7.51	328	10.03	325	-0.4	100	-0.4	0	0	978.9	NA	0.0000	-SN BR	7000	0	0	0	1020
2019/05/17 07:01:00	BASE	7.92	328	10.03	325	-0.4	100	-0.4	0	0	978.8	NA	0.0000	-SN BR	7000	0	0	0	950
2019/05/17 07:02:00	BASE	8.59	329	10.03	325	-0.4	100	-0.4	0	0	978.8	NA	0.0000	-SN BR	7000	0	0	0	920
2019/05/17 07:03:00	BASE	8.77	330	9.62	323	-0.4	100	-0.4	0	0	978.8	NA	0.0000	-SN BR	8000	0	0	0	1080
2019/05/17 07:04:00	BASE	8.86	328	10.96	319	-0.4	100	-0.4	0	0	978.8	NA	0.0000	-SN BR	9999	230	0	0	0
2019/05/17 07:05:00	BASE	9.13	328	10.96	319	-0.4	100	-0.4	0	0	978.7	NA	0.0000	-SN BR	9999	300	0	0	0
2019/05/17 07:06:00	BASE	9.34	333	11.57	332	-0.4	100	-0.4	0	0	978.7	NA	0.0000	-SN BR	9999	300	1050	0	0
2019/05/17 07:07:00	BASE	9.91	332	11.57	332	-0.4	100	-0.4	0	0	978.7	NA	0.0000	-SN BR	9999	260	0	0	0
2019/05/17 07:08:00	BASE	10.57	331	11.63	338	-0.4	100	-0.4	0	0	978.8	NA	0.0000	-SN BR	9999	0	0	0	1440
2019/05/17 07:09:00	BASE	10.45	331	11.63	338	-0.4	100	-0.4	0	0	978.9	NA	0.0000	-SN BR	9999	0	0	0	1440
2019/05/17 07:10:00	BASE	10.49	331	11.78	326	-0.4	100	-0.4	0	0	978.9	NA	0.0000	-SN BR	9999	0	0	0	1250
2019/05/17 07:11:00	BASE	10.69	332	11.78	326	-0.4	100	-0.4	0	0	978.9	NA	0.0000	-SN	9999	230	0	0	0
2019/05/17 07:12:00	BASE	10.87	334	11.88	326	-0.4	100	-0.4	0	0	978.9	NA	0.0000	-SN	9999	230	0	0	0
2019/05/17 07:13:00	BASE	11.18	336	11.88	339	-0.4	100	-0.4	0	0	978.9	NA	0.0000	-SN	9999	0	0	0	1210
2019/05/17 07:14:00	BASE	10.53	338	11.88	339	-0.4	100	-0.4	0	0	978.9	NA	0.0000	-SN	9999	0	0	0	950
2019/05/17 07:15:00	BASE	10.07	337	11.88	339	-0.5	100	-0.5	0	0	978.9	NA	0.0000		9999	260	0	0	0
2019/05/17 07:16:00	BASE	10.49	335	12.24	335	-0.5	100	-0.5	0	0	978.9	NA	0.0000		9999	230	0	0	0
2019/05/17 07:17:00	BASE	11.24	335	12.24	335	-0.5	100	-0.5	0	0	978.9	NA	0.0000	-SN	9999	230	0	0	0
2019/05/17 07:18:00	BASE	11.47	335	12.24	335	-0.5	100	-0.5	0	0	978.9	NA	0.0000	-SN	9999	260	0	0	0
2019/05/17 07:19:00	BASE	10.68	336	12.24	335	-0.5	100	-0.5	0	0	978.9	NA	0.0000	-SN	9999	260	0	0	0
2019/05/17 07:20:00	BASE	10.07	338	12.24	335	-0.5	100	-0.5	0	0	978.9	NA	0.0000	-SN	9999	260	0	0	0
2019/05/17 07:21:00	BASE	9.96	339	12.24	335	-0.5	100	-0.5	0	0	978.9	NA	0.0000		9999	260	0	0	0
2019/05/17 07:22:00	BASE	10.16	336	12.24	335	-0.6	100	-0.6	0	0	978.9	NA	0.0000		9999	300	850	0	0
2019/05/17 07:23:00	BASE	10.48	333	12.24	335	-0.6	100	-0.6	0	0	978.9	NA	0.0000		9999	360	0	0	0
2019/05/17 07:24:00	BASE	10.21	334	12.24	335	-0.6	100	-0.6	0	0	978.9	NA	0.0000		9999	360	0	0	0
2019/05/17 07:25:01	BASE	9.88	334	12.24	335	-0.6	100	-0.6	0	0	979.0	NA	0.0000		9999	360	0	0	0
2019/05/17 07:26:00	BASE	9.75	333	12.09	331	-0.6	100	-0.6	0	0	979.0	NA	0.0000		9999	330	0	0	0
2019/05/17 07:27:00	BASE	9.65	338	12.09	331	-0.6	100	-0.6	0	0	978.9	NA	0.0000		9999	330	0	0	0
2019/05/17 07:28:00	BASE	9.62	340	11.83	330	-0.6	100	-0.6	0	0	978.9	NA	0.0000		9999	330	0	0	0
2019/05/17 07:29:00	BASE	8.93	341	11.83	330	-0.6	100	-0.6	0	0	978.9	NA	0.0000		9999	330	0	0	0
2019/05/17 07:30:00	BASE	8.58	344	11.83	330	-0.6	100	-0.6	0	0	978.9	NA	0.0000	-SN	9999	360	0	0	0
2019/05/17 07:31:00	BASE	8.92	344	11.83	330	-0.6	100	-0.6	0	0	978.9	NA	0.0000	-SN	9999	330	0	0	0
2019/05/17 07:32:00	BASE	9.15	342	11.37	334	-0.6	100	-0.6	0	0	978.9	NA	0.0000	-SN	9999	330	0	0	0
2019/05/17 07:33:00	BASE	9.65	342	10.91	329	-0.6	100	-0.6	0	0	978.9	NA	0.0000	-SN	9999	330	0	0	0
2019/05/17 07:34:00	BASE	10.08	343	11.88	342	-0.6	100	-0.6	0	0	978.8	NA	0.0000	-SN	9999	330	0	0	0
2019/05/17 07:35:00	BASE	10.79	343	11.88	345	-0.6	100	-0.6	0	0	978.8	NA	0.0000	-SN	9999	360	0	0	0
2019/05/17 07:36:00	BASE	10.98	341	11.88	345	-0.7	100	-0.7	0	0	978.7	NA	0.0000	-SN	9999	330	0	0	0
2019/05/17 07:37:00	BASE	10.97	340	12.09	344	-0.7	100	-0.7	0	0	978.7	NA	0.0000	-SN	9999	390	0	0	0
2019/05/17 07:38:00	BASE	11.19	339	12.09	344	-0.7	100	-0.7	0	0	978.7	NA	0.0000	-SN	9999	1280	0	0	0
2019/05/17 07:39:00	BASE	10.79	337	12.09	344	-0.7	100	-0.7	0	0	978.7	NA	0.0000	-SN	9999	1350	0	0	0
2019/05/17 07:40:00	BASE	10.81	335	12.09	344	-0.7	100	-0.7	0	0	978.7	NA	0.0000	-SN	9999	1380	0	0	0
2019/05/17 07:41:00	BASE	10.97	335	12.09	344	-0.7	100	-0.7	0	0	978.7	NA	0.0000	-SN	9999	1380	0	0	0
2019/05/17 07:42:00	BASE	11.25	337	12.60	340	-0.7	100	-0.7	0	0	978.7	NA	0.0000	-SN	9999	1410	0	0	0
2019/05/17 07:43:00	BASE	11.24	339	12.60	340	-0.7	100	-0.7	0	0	978.7	NA	0.0000	-SN	9999	2430	0	0	0
2019/05/17 07:44:00	BASE	10.93	340	12.60	340	-0.7	100	-0.7	0	0	978.7	NA	0.0000	-SN	9999	2490	0	0	0
2019/05/17 07:45:00	BASE	11.08	341	12.60	340	-0.7	100	-0.7	0	0	978.7	NA	0.0000	-SN	9999	1480	2200	0	0
2019/05/17 07:46:00	BASE	10.87	339	12.60	340	-0.7	100	-0.7	0	0	978.7	NA	0.0000	-SN	9999	1410	0	0	0
2019/05/17 07:47:00	BASE	10.29	339	12.60	340	-0.7	100	-0.7	0	0	978.7	NA	0.0000	-SN	9999	1480	2170	0	0
2019/05/17 07:48:00	BASE	10.14	339	12.60	340	-0.7	100	-0.7	0	0	978.7	NA	0.0000	-SN	9999	1510	2430	0	0
2019/05/17 07:49:00	BASE	10.43	338	12.60	340	-0.7	100	-0.7	0	0	978.7	NA	0.0000	-SN	9999	2360	0	0	0
2019/05/17 07:50:01	BASE	10.06	338	12.60	340	-0.7	100	-0.7	0	0	978.7	NA	0.0000	-SN	9999	1870	0	0	0
2019/05/17 07:51:00	BASE	9.43	338	12.60	340	-0.7	100	-0.7	0	0	978.7	NA	0.0000	-SN	9999	1670	2300	0	0
2019/05/17 07:52:00	BASE	9.13	337	12.24	344	-0.7	100	-0.7	0	0	978.7	NA	0.0000	-SN	9999	2200	0	0	0
2019/05/17 07:53:00	BASE	9.01	337	12.24	344	-0.7	100	-0.7	0	0	978.7	NA	0.0000	-SN	9999	390	2660	0	0
2019/05/17 07:54:00	BASE	8.98	337	11.94	345	-0.7	100	-0.7	0	0	978.7	NA	0.0000	-SN	9999	390	3310	0	0
2019/05/17 07:55:00	BASE	9.14	336	11.21	336	-0.7	100	-0.7	0	0	978.7	NA	0.0000	-SN	9999	430	0	0	0
2019/05/17 07:56:00	BASE	9.66	336	11.21	336	-0.7	100	-0.7	0	0	978.7	NA	0.0000	-SN	9999	390	0	0	0
2019/05/17 07:57:00	BASE	9.59	337	11.21	336	-0.7	100	-0.7	0	0	978.7	NA	0.0000	-SN	9999	390	4460	0	0
2019/05/17 07:58:00	BASE	9.67	337	11.21	336	-0.7	100	-0.7	0	0	978.8	NA	0.0000	-SN	9999	2660	4430	0	0
2019/05/17 07:59:00	BASE	10.20	336	11.01	337	-0.7	100	-0.7	0	0	978.8	NA	0.2540	-SN	9999	3770	0	0	0
2019/05/17 08:00:00	BASE	10.07	335	11.01	337	-0.7	100	-0.7	0	0	978.9	NA	0.0000	-SN	9999	1380	2430	0	0
2019/05/17 08:01:00	BASE	9.19	332	11.01	337	-0.7	100	-0.7	0	0	978.9	NA	0.0000	-SN	9999	1310	2300	0	0
2019/05/17 08:02:00	BASE	8.87	331	11.01	337	-0.7	100	-0.7	0	0	978.9	NA	0.0000	-SN	9999	1410	2300	0	0
2019/05/17 08:03:00	BASE	8.99	332	11.01	337	-0.7	100	-0.7	0	0	978.9	NA	0.0000		9999	1380	2430	0	0
2019/05/17 08:04:00	BASE	8.56	333	11.01	337	-0.7	100	-0.7	0	0	978.9	NA	0.0000		9999	1570	0	0	0
2019/05/17 08:05:00	BASE	8.36	331	11.01	337	-0.7	100	-0.7	0	0	979.0	NA	0.0000		9999	1480	0	0	0
2019/05/17 08:06:00	BASE	8.35	329	11.01	337	-0.7	100	-0.7	0	0	979.0	NA	0.0000		9999	1350	0	0	0
2019/05/17 08:07:00	BASE	8.53	326	11.01	337	-0.6	100	-0.6	0	0	979.0	NA	0.0000		9999	1310	0	0	0
2019/05/17 08:08:00	BASE	8.74	324	11.01	337	-0.6	100	-0.6	0	0	979.0	NA	0.0000		9999	1210	1940	0	0
2019/05/17 08:09:00	BASE	8.46	325	10.29	336	-0.6	100	-0.6	0	0	979.0	NA	0.0000		9999	390	1770	0	0
2019/05/17 08:10:00	BASE	8.18	325	10.03	335	-0.6	100	-0.6	0	0	979.0	NA	0.0000		9999	300	0	0	0
2019/05/17 08:11:00	BASE	7.79	323	10.03	335	-0.6	100	-0.6	0	0	979.0	NA	0.0000		9999	300	0	0	0
2019/05/17 08:12:00	BASE	7.49	324	9.77	317	-0.6	100	-0.6	0	0	979.0	NA	0.0000		9999	330	0	0	0
2019/05/17 08:13:00	BASE	8.35	324	10.13	319	-0.6	100	-0.6	0	0	979.0	NA	0.0000		9999	300	0	0	0
2019/05/17 08:14:00	BASE	9.12	323	10.13	319	-0.7	100	-0.7	0	0	979.0	NA	0.0000		9999	260	0	0	0
2019/05/17 08:15:00	BASE	9.11	324	10.39	323	-0.7	100	-0.7	0	0	979.0	NA	0.0000		9999	0	0	0	1250
2019/05/17 08:16:00	BASE	9.18	324	10.39	323	-0.7	100	-0.7	0	0	979.0	NA	0.0000		8000	0	0	0	1310
2019/05/17 08:17:00	BASE	9.25	324	10.39	323	-0.7	100	-0.7	0	0	979.0	NA	0.0000	-SN	7000	0	0	0	1150
2019/05/17 08:18:00	BASE	9.10	324	10.39	323	-0.7	100	-0.7	0	0	979.0	NA	0.0000	-SN	7000	0	0	0	1740
2019/05/17 08:19:00	BASE	8.65	324	10.39	323	-0.7	100	-0.7	0	0	979.1	NA	0.0000	-SN BR	7000	0	0	0	1800
2019/05/17 08:20:00	BASE	8.40	326	10.39	323	-0.8	100	-0.8	0	0	979.1	NA	0.0000	-SN BR	6000	0	0	0	1900
2019/05/17 08:21:00	BASE	8.11	327	10.39	323	-0.8	100	-0.8	0	0	979.1	NA	0.0000	-SN BR	7000	0	0	0	1900
2019/05/17 08:22:00	BASE	7.80	328	10.39	323	-0.8	100	-0.8	0	0	979.1	NA	0.0000	-SN BR	8000	230	0	0	0
2019/05/17 08:23:00	BASE	7.47	330	10.39	323	-0.8	100	-0.8	0	0	979.1	NA	0.0000	-SN BR	9000	0	0	0	2460
2019/05/17 08:24:00	BASE	7.35	331	10.39	323	-0.8	100	-0.8	0	0	979.1	NA	0.0000	-SN BR	9999	1410	2100	0	0
2019/05/17 08:25:00	BASE	7.55	333	10.03	319	-0.8	100	-0.8	0	0	979.1	NA	0.0000	-SN BR	9999	390	1840	0	0
2019/05/17 08:26:00	BASE	7.84	337	9.77	323	-0.8	100	-0.8	0	0	979.2	NA	0.0000	-SN BR	9999	300	0	0	0
2019/05/17 08:27:00	BASE	7.65	338	9.52	327	-0.8	100	-0.8	0	0	979.2	NA	0.0000	-SN BR	9999	360	0	0	0
2019/05/17 08:28:00	BASE	6.95	337	9.31	323	-0.8	100	-0.8	0	0	979.2	NA	0.0000	-SN BR	9999	360	0	0	0
2019/05/17 08:29:00	BASE	6.52	339	8.75	343	-0.8	100	-0.8	0	0	979.2	NA	0.0000	-SN	9999	300	0	0	0
2019/05/17 08:30:00	BASE	6.66	337	8.75	343	-0.8	100	-0.8	0	0	979.2	NA	0.0000	-SN	9999	0	0	0	1380
2019/05/17 08:31:00	BASE	7.01	340	8.75	343	-0.8	100	-0.8	0	0	979.2	NA	0.0000	-SN	9999	0	0	0	1380
2019/05/17 08:32:00	BASE	7.16	342	8.75	343	-0.8	100	-0.8	0	0	979.2	NA	0.0000	-SN	9999	360	0	0	0
2019/05/17 08:33:00	BASE	7.26	338	8.75	343	-0.8	100	-0.8	0	0	979.2	NA	0.0000	-SN	9999	590	0	0	0
2019/05/17 08:34:00	BASE	7.61	336	8.75	343	-0.8	100	-0.8	0	0	979.2	NA	0.0000	-SN	9999	690	0	0	0
2019/05/17 08:35:00	BASE	7.94	339	8.75	343	-0.8	100	-0.8	0	0	979.2	NA	0.0000	-SN	9999	820	0	0	0
2019/05/17 08:36:00	BASE	7.92	340	8.64	337	-0.8	100	-0.8	0	0	979.2	NA	0.0000	-SN	9999	1020	0	0	0
2019/05/17 08:37:00	BASE	7.99	342	8.64	337	-0.8	100	-0.8	0	0	979.2	NA	0.0000	-SN	9999	1120	0	0	0
2019/05/17 08:38:00	BASE	8.06	342	9.00	339	-0.8	100	-0.8	0	0	979.2	NA	0.0000	-SN	9999	1150	0	0	0
2019/05/17 08:39:00	BASE	8.63	341	9.62	344	-0.8	100	-0.8	0	0	979.2	NA	0.0000	-SN	9999	1180	0	0	0
2019/05/17 08:40:00	BASE	9.65	341	10.55	338	-0.8	100	-0.8	0	0	979.2	NA	0.0000	-SN	9999	1050	0	0	0
2019/05/17 08:41:00	BASE	9.16	343	10.55	338	-0.8	100	-0.8	0	0	979.2	NA	0.0000	-SN	9999	950	0	0	0
2019/05/17 08:42:00	BASE	8.03	347	10.55	338	-0.8	100	-0.8	0	0	979.2	NA	0.0000		9999	1080	0	0	0
2019/05/17 08:43:00	BASE	7.80	349	10.55	338	-0.8	100	-0.8	0	0	979.2	NA	0.0000		9999	1050	0	0	0
2019/05/17 08:44:00	BASE	7.69	348	10.55	338	-0.9	100	-0.9	0	0	979.2	NA	0.0000		9999	980	0	0	0
2019/05/17 08:45:00	BASE	8.26	345	10.55	338	-0.8	100	-0.8	0	0	979.2	NA	0.0000		9999	920	0	0	0
2019/05/17 08:46:00	BASE	8.97	344	10.55	338	-0.9	100	-0.9	0	0	979.2	NA	0.0000		9999	850	0	0	0
2019/05/17 08:47:00	BASE	8.58	341	10.55	338	-0.9	100	-0.9	0	0	979.2	NA	0.0000		9999	1020	0	0	0
2019/05/17 08:48:00	BASE	8.25	340	10.55	338	-0.9	100	-0.9	0	0	979.2	NA	0.0000		9999	1180	0	0	0
2019/05/17 08:49:00	BASE	8.06	343	10.55	338	-0.9	100	-0.9	0	0	979.2	NA	0.0000		9999	1180	0	0	0
2019/05/17 08:50:00	BASE	7.91	341	9.93	341	-0.9	100	-0.9	0	0	979.2	NA	0.0000		9999	950	0	0	0
2019/05/17 08:51:00	BASE	8.39	341	9.93	341	-0.9	100	-0.9	0	0	979.2	NA	0.0000		9999	850	0	0	0
2019/05/17 08:52:00	BASE	8.96	341	9.98	339	-0.9	100	-0.9	0	0	979.2	NA	0.0000		9999	920	0	0	0
2019/05/17 08:53:00	BASE	9.07	338	9.98	338	-0.9	100	-0.9	0	0	979.2	NA	0.0000		9999	890	1570	0	0
2019/05/17 08:54:00	BASE	8.96	336	9.98	340	-0.9	100	-0.9	0	0	979.2	NA	0.0000		9999	690	0	0	0
2019/05/17 08:55:00	BASE	9.47	331	11.11	326	-0.9	100	-0.9	0	0	979.2	NA	0.0000		9999	660	0	0	0
2019/05/17 08:56:00	BASE	10.35	327	11.32	328	-0.9	100	-0.9	0	0	979.2	NA	0.0000		9999	620	0	0	0
2019/05/17 08:57:00	BASE	10.60	326	11.32	322	-0.9	100	-0.9	0	0	979.2	NA	0.0000		9999	430	0	0	0
2019/05/17 08:58:00	BASE	10.31	325	11.32	322	-0.9	100	-0.9	0	0	979.2	NA	0.0000		9999	430	1440	0	0
2019/05/17 08:59:00	BASE	10.36	326	11.32	322	-0.9	100	-0.9	0	0	979.2	NA	0.0000		9999	390	1540	0	0
2019/05/17 09:00:00	BASE	10.79	327	11.88	329	-0.9	100	-0.9	0	0	979.2	NA	0.0000		9999	430	1380	0	0
2019/05/17 09:01:00	BASE	11.15	326	11.99	329	-1.0	100	-1.0	0	0	979.2	NA	0.0000		9999	390	0	0	0
2019/05/17 09:02:00	BASE	11.08	326	11.99	329	-1.0	100	-1.0	0	0	979.2	NA	0.0000		9999	390	0	0	0
2019/05/17 09:03:00	BASE	10.61	327	11.99	329	-1.0	100	-1.0	0	0	979.2	NA	0.0000		9999	360	0	0	0
2019/05/17 09:04:00	BASE	10.08	328	11.99	329	-1.1	100	-1.1	0	0	979.2	NA	0.0000		9999	390	1410	0	0
2019/05/17 09:05:00	BASE	10.30	329	11.99	329	-1.1	100	-1.1	0	0	979.2	NA	0.0000		9999	490	0	0	0
2019/05/17 09:06:00	BASE	10.40	329	11.99	329	-1.1	100	-1.1	0	0	979.2	NA	0.0000		9999	490	0	0	0
2019/05/17 09:07:00	BASE	9.52	329	11.99	329	-1.1	100	-1.1	0	0	979.2	NA	0.0000		9999	520	0	0	0
2019/05/17 09:08:00	BASE	8.68	329	11.99	329	-1.1	100	-1.1	0	0	979.2	NA	0.0000		9999	690	0	0	0
2019/05/17 09:09:00	BASE	8.16	329	11.99	329	-1.1	100	-1.1	0	0	979.2	NA	0.0000		9999	520	1380	0	0
2019/05/17 09:10:00	BASE	8.36	330	11.99	329	-1.1	100	-1.1	0	0	979.2	NA	0.0000		9999	590	0	0	0
2019/05/17 09:11:00	BASE	8.39	333	11.32	325	-1.0	100	-1.0	0	0	979.2	NA	0.0000		9999	620	0	0	0
2019/05/17 09:12:00	BASE	8.60	332	11.32	325	-1.0	100	-1.0	0	0	979.2	NA	0.0000		9999	590	0	0	0
2019/05/17 09:13:00	BASE	9.13	329	11.32	325	-1.1	100	-1.1	0	0	979.2	NA	0.0000		9999	790	0	0	0
2019/05/17 09:14:00	BASE	9.15	327	11.32	325	-1.1	100	-1.1	0	0	979.2	NA	0.0000		9999	720	0	0	0
2019/05/17 09:15:00	BASE	9.19	328	10.65	330	-1.1	100	-1.1	0	0	979.2	NA	0.0000		9999	720	0	0	0
2019/05/17 09:16:00	BASE	9.72	331	10.80	333	-1.1	100	-1.1	0	0	979.2	NA	0.0000		9999	660	0	0	0
2019/05/17 09:17:00	BASE	10.05	332	10.80	333	-1.1	100	-1.1	0	0	979.2	NA	0.0000		9999	720	0	0	0
2019/05/17 09:18:00	BASE	9.82	333	10.80	333	-1.1	100	-1.1	0	0	979.2	NA	0.0000		9999	620	0	0	0
2019/05/17 09:19:00	BASE	9.86	333	10.91	335	-1.1	100	-1.1	0	0	979.2	NA	0.0000		9999	620	0	0	0
2019/05/17 09:20:00	BASE	10.00	334	10.91	335	-1.1	100	-1.1	0	0	979.2	NA	0.0000		9999	560	0	0	0
2019/05/17 09:21:00	BASE	9.81	333	10.91	335	-1.1	100	-1.1	0	0	979.2	NA	0.0000		9999	980	0	0	0
2019/05/17 09:22:00	BASE	9.49	332	10.91	335	-1.1	100	-1.1	0	0	979.2	NA	0.0000		9999	390	0	0	0
2019/05/17 09:23:00	BASE	9.31	333	10.91	335	-1.1	100	-1.1	0	0	979.2	NA	0.0000		9999	390	0	0	0
2019/05/17 09:24:00	BASE	8.99	333	10.91	335	-1.1	100	-1.1	0	0	979.2	NA	0.0000		9999	360	0	0	0
2019/05/17 09:25:00	BASE	8.52	335	10.91	335	-1.1	100	-1.1	0	0	979.2	NA	0.0000		9999	390	0	0	0
2019/05/17 09:26:00	BASE	8.23	329	10.91	335	-1.1	100	-1.1	0	0	979.2	NA	0.0000		9999	390	0	0	0
2019/05/17 09:27:00	BASE	8.09	325	10.91	335	-1.1	100	-1.1	0	0	979.2	NA	0.0000		9999	430	0	0	0
2019/05/17 09:28:00	BASE	7.83	327	10.91	335	-1.1	100	-1.1	0	0	979.2	NA	0.0000		9999	460	0	0	0
2019/05/17 09:29:00	BASE	7.58	328	10.55	336	-1.1	100	-1.1	0	0	979.2	NA	0.0000		9999	490	0	0	0
2019/05/17 09:30:00	BASE	7.64	328	10.08	334	-1.1	100	-1.1	0	0	979.2	NA	0.0000		9999	460	0	0	0
2019/05/17 09:31:00	BASE	8.15	329	9.88	336	-1.1	100	-1.1	0	0	979.2	NA	0.0000		9999	660	0	0	0
2019/05/17 09:32:00	BASE	8.47	329	9.83	331	-1.1	100	-1.1	0	0	979.2	NA	0.0000		9999	750	0	0	0
2019/05/17 09:33:00	BASE	8.38	330	9.36	334	-1.1	100	-1.1	0	0	979.2	NA	0.0000		9999	790	0	0	0
2019/05/17 09:34:00	BASE	8.66	330	10.08	329	-1.1	100	-1.1	0	0	979.2	NA	0.0000		9999	820	0	0	0
2019/05/17 09:35:00	BASE	8.74	328	10.08	329	-1.1	100	-1.1	0	0	979.2	NA	0.0000		9999	660	0	0	0
2019/05/17 09:36:00	BASE	8.55	328	10.08	329	-1.1	100	-1.1	0	0	979.2	NA	0.0000		9999	660	0	0	0
2019/05/17 09:37:00	BASE	9.36	324	10.80	319	-1.2	100	-1.2	0	0	979.2	NA	0.0000		9999	660	0	0	0
2019/05/17 09:38:00	BASE	9.89	322	10.80	319	-1.2	100	-1.2	0	0	979.2	NA	0.0000		9999	690	0	0	0
2019/05/17 09:39:00	BASE	9.59	322	10.80	319	-1.2	100	-1.2	0	0	979.2	NA	0.0000		9999	720	0	0	0
2019/05/17 09:40:00	BASE	9.30	323	10.80	319	-1.2	100	-1.2	0	0	979.2	NA	0.0000		9999	720	0	0	0
2019/05/17 09:41:00	BASE	8.69	323	10.80	319	-1.2	100	-1.2	0	0	979.2	NA	0.0000		9999	720	0	0	0
2019/05/17 09:42:00	BASE	8.67	323	10.80	319	-1.2	100	-1.2	0	0	979.2	NA	0.0000		9999	750	0	0	0
2019/05/17 09:43:00	BASE	8.75	326	10.80	319	-1.2	100	-1.2	0	0	979.2	NA	0.0000		9999	920	0	0	0
2019/05/17 09:44:00	BASE	8.47	328	10.80	319	-1.2	100	-1.2	0	0	979.2	NA	0.0000		9999	750	0	0	0
2019/05/17 09:45:00	BASE	8.88	327	10.80	319	-1.2	100	-1.2	0	0	979.2	NA	0.0000		9999	850	0	0	0
2019/05/17 09:46:00	BASE	9.03	327	10.80	319	-1.2	100	-1.2	0	0	979.2	NA	0.0000		9999	1350	0	0	0
2019/05/17 09:47:00	BASE	8.71	329	10.24	318	-1.2	100	-1.2	0	0	979.3	NA	0.0000		9999	1380	2000	0	0
2019/05/17 09:48:00	BASE	8.47	331	10.08	329	-1.2	100	-1.2	0	0	979.3	NA	0.0000		9999	1540	0	0	0
2019/05/17 09:49:00	BASE	8.33	331	10.08	329	-1.2	100	-1.2	0	0	979.3	NA	0.0000		9999	1510	0	0	0
2019/05/17 09:50:00	BASE	8.27	334	9.88	324	-1.3	100	-1.3	0	0	979.3	NA	0.0000		9999	820	0	0	0
2019/05/17 09:51:00	BASE	8.02	334	9.88	324	-1.3	100	-1.3	0	0	979.3	NA	0.0000		9999	750	0	0	0
2019/05/17 09:52:00	BASE	8.08	332	9.88	324	-1.2	100	-1.2	0	0	979.4	NA	0.0000		9999	1150	0	0	0
2019/05/17 09:53:00	BASE	8.33	332	9.88	324	-1.3	100	-1.3	0	0	979.5	NA	0.0000		9999	1050	0	0	0
2019/05/17 09:54:00	BASE	8.33	333	9.88	324	-1.3	100	-1.3	0	0	979.5	NA	0.0000		9999	890	0	0	0
2019/05/17 09:55:00	BASE	8.10	334	9.52	328	-1.3	100	-1.3	0	0	979.5	NA	0.0000		9999	920	0	0	0
2019/05/17 09:56:00	BASE	7.62	333	9.11	333	-1.2	100	-1.2	0	0	979.5	NA	0.0000		9999	920	0	0	0
2019/05/17 09:57:00	BASE	7.43	331	8.95	330	-1.2	100	-1.2	0	0	979.5	NA	0.0000		9999	950	0	0	0
2019/05/17 09:58:00	BASE	7.90	329	8.95	330	-1.2	100	-1.2	0	0	979.5	NA	0.0000		9999	790	0	0	0
2019/05/17 09:59:00	BASE	8.08	333	9.00	342	-1.2	100	-1.2	0	0	979.4	NA	0.0000		9999	790	0	0	0
2019/05/17 10:00:00	BASE	8.04	334	9.00	342	-1.2	100	-1.2	0	0	979.4	NA	0.0000		9999	820	0	0	0
2019/05/17 10:01:00	BASE	7.98	334	9.00	342	-1.2	100	-1.2	0	0	979.3	NA	0.0000		9999	750	0	0	0
2019/05/17 10:02:00	BASE	8.05	339	9.00	342	-1.2	100	-1.2	0	0	979.3	NA	0.0000		9999	720	0	0	0
2019/05/17 10:03:00	BASE	8.22	337	9.16	332	-1.2	100	-1.2	0	0	979.3	NA	0.0000		9999	750	0	0	0
2019/05/17 10:04:00	BASE	7.96	333	9.16	332	-1.2	100	-1.2	0	0	979.3	NA	0.0000		9999	590	0	0	0
2019/05/17 10:05:00	BASE	8.14	335	9.62	339	-1.2	100	-1.2	0	0	979.3	NA	0.0000		9999	1020	0	0	0
2019/05/17 10:06:00	BASE	8.71	338	9.62	339	-1.2	100	-1.2	0	0	979.3	NA	0.0000		9999	980	0	0	0
2019/05/17 10:07:00	BASE	8.50	336	9.62	339	-1.2	100	-1.2	0	0	979.3	NA	0.0000		9999	560	0	0	0
2019/05/17 10:08:00	BASE	7.82	336	9.62	339	-1.2	100	-1.2	0	0	979.3	NA	0.0000		9999	560	0	0	0
2019/05/17 10:09:00	BASE	7.66	340	9.62	339	-1.2	100	-1.2	0	0	979.3	NA	0.0000		9999	460	0	0	0
2019/05/17 10:10:00	BASE	7.87	341	9.62	339	-1.2	100	-1.2	0	0	979.3	NA	0.0000		9999	430	0	0	0
2019/05/17 10:11:00	BASE	7.69	340	9.62	339	-1.2	100	-1.2	0	0	979.3	NA	0.0000		9999	720	0	0	0
2019/05/17 10:12:00	BASE	7.32	343	9.62	339	-1.2	100	-1.2	0	0	979.3	NA	0.0000		9999	620	0	0	0
2019/05/17 10:13:00	BASE	7.50	344	9.62	339	-1.2	100	-1.2	0	0	979.3	NA	0.0000		9999	620	0	0	0
2019/05/17 10:14:00	BASE	7.65	341	9.62	339	-1.2	100	-1.2	0	0	979.3	NA	0.0000		9999	790	0	0	0
2019/05/17 10:15:00	BASE	7.92	343	9.52	332	-1.2	100	-1.2	0	0	979.3	NA	0.0000		9999	980	0	0	0
2019/05/17 10:16:00	BASE	8.03	345	9.16	344	-1.2	100	-1.2	0	0	979.3	NA	0.0000		9999	750	0	0	0
2019/05/17 10:17:00	BASE	7.61	345	9.16	344	-1.2	100	-1.2	0	0	979.3	NA	0.0000		9999	1210	0	0	0
2019/05/17 10:18:00	BASE	7.51	345	9.16	344	-1.2	100	-1.2	0	0	979.3	NA	0.0000		9999	1020	0	0	0
2019/05/17 10:19:00	BASE	7.26	345	9.16	344	-1.2	100	-1.2	0	0	979.3	NA	0.0000		9999	1050	1710	0	0
2019/05/17 10:20:00	BASE	6.92	344	9.16	344	-1.2	100	-1.2	0	0	979.3	NA	0.0000		9999	1640	0	0	0
2019/05/17 10:21:00	BASE	6.44	342	9.16	344	-1.2	100	-1.2	0	0	979.3	NA	0.0000		9999	1350	2560	0	0
2019/05/17 10:22:00	BASE	5.84	340	9.16	344	-1.2	100	-1.2	0	0	979.3	NA	0.0000		9999	1640	2460	0	0
2019/05/17 10:23:00	BASE	5.90	339	9.16	344	-1.2	100	-1.2	0	0	979.3	NA	0.0000		9999	1740	2400	0	0
2019/05/17 10:24:00	BASE	6.24	339	9.16	344	-1.2	100	-1.2	0	0	979.3	NA	0.0000		9999	1740	2430	0	0
2019/05/17 10:25:00	BASE	6.38	338	8.49	345	-1.2	100	-1.2	0	0	979.3	NA	0.0000		9999	1840	0	0	0
2019/05/17 10:26:00	BASE	6.20	338	8.08	349	-1.2	100	-1.2	0	0	979.3	NA	0.0000		9999	1710	0	0	0
2019/05/17 10:27:00	BASE	5.89	338	8.08	349	-1.2	100	-1.2	0	0	979.4	NA	0.0000		9999	1280	2360	0	0
2019/05/17 10:28:00	BASE	6.20	338	7.61	348	-1.2	100	-1.2	0	0	979.5	NA	0.0000		9999	1280	0	0	0
2019/05/17 10:29:00	BASE	6.59	340	7.72	348	-1.2	100	-1.2	0	0	979.5	NA	0.0000		9999	1210	0	0	0
2019/05/17 10:30:00	BASE	7.22	339	8.23	288	-1.2	100	-1.2	0	0	979.5	NA	0.0000		9999	1210	0	0	0
2019/05/17 10:31:00	BASE	7.91	343	9.16	354	-1.2	100	-1.2	0	0	979.5	NA	0.0000		9999	1150	0	0	0
2019/05/17 10:32:00	BASE	7.39	344	9.16	354	-1.2	100	-1.2	0	0	979.5	NA	0.0000		9999	1150	0	0	0
2019/05/17 10:33:00	BASE	7.20	340	9.16	354	-1.2	100	-1.2	0	0	979.5	NA	0.0000		9999	1020	0	0	0
2019/05/17 10:34:00	BASE	7.64	340	9.16	354	-1.2	100	-1.2	0	0	979.5	NA	0.0000		9999	980	0	0	0
2019/05/17 10:35:00	BASE	7.57	337	9.16	354	-1.2	100	-1.2	0	0	979.5	NA	0.0000		9999	1020	0	0	0
2019/05/17 10:36:00	BASE	6.96	332	9.16	354	-1.2	100	-1.2	0	0	979.5	NA	0.0000		9999	980	0	0	0
2019/05/17 10:37:00	BASE	6.47	330	9.16	354	-1.2	100	-1.2	0	0	979.5	NA	0.0000		9999	980	0	0	0
2019/05/17 10:38:00	BASE	6.55	328	9.16	354	-1.2	100	-1.2	0	0	979.5	NA	0.0000		9999	950	0	0	0
2019/05/17 10:39:00	BASE	6.78	325	9.16	354	-1.2	100	-1.2	0	0	979.5	NA	0.0000		9999	980	0	0	0
2019/05/17 10:40:00	BASE	6.78	325	9.16	354	-1.2	100	-1.2	0	0	979.5	NA	0.0000		9999	1050	0	0	0
2019/05/17 10:41:00	BASE	6.52	326	8.49	316	-1.2	100	-1.2	0	0	979.5	NA	0.0000		9999	1120	0	0	0
2019/05/17 10:42:00	BASE	6.83	327	8.49	316	-1.2	100	-1.2	0	0	979.5	NA	0.0000		9999	1020	0	0	0
2019/05/17 10:43:00	BASE	7.01	328	8.49	316	-1.2	100	-1.2	0	0	979.5	NA	0.0000		9999	980	0	0	0
2019/05/17 10:44:00	BASE	6.24	331	8.49	316	-1.2	100	-1.2	0	0	979.5	NA	0.0000		9999	950	0	0	0
2019/05/17 10:45:00	BASE	6.51	333	8.49	316	-1.2	100	-1.2	0	0	979.5	NA	0.0000		9999	1050	0	0	0
2019/05/17 10:46:00	BASE	7.23	331	8.49	316	-1.2	100	-1.2	0	0	979.5	NA	0.0000		9999	920	0	0	0
2019/05/17 10:47:00	BASE	6.45	330	8.49	316	-1.2	100	-1.2	0	0	979.5	NA	0.0000		9999	1080	0	0	0
2019/05/17 10:48:00	BASE	5.73	330	8.49	316	-1.2	100	-1.2	0	0	979.5	NA	0.0000		9999	1080	3640	0	0
2019/05/17 10:49:00	BASE	5.47	332	8.23	328	-1.2	100	-1.2	0	0	979.5	NA	0.0000		9999	1310	3610	0	0
2019/05/17 10:50:00	BASE	5.40	332	8.23	328	-1.2	100	-1.2	0	0	979.5	NA	0.0000		9999	1410	3670	0	0
2019/05/17 10:51:00	BASE	5.17	332	8.23	328	-1.2	100	-1.2	0	0	979.6	NA	0.0000		9999	1280	3810	0	0
2019/05/17 10:52:00	BASE	4.48	338	7.97	332	-1.2	100	-1.2	0	0	979.6	NA	0.0000		9999	1350	3740	0	0
2019/05/17 10:53:00	BASE	4.36	336	7.97	332	-1.2	100	-1.2	0	0	979.6	NA	0.0000		9999	1350	3770	0	0
2019/05/17 10:54:00	BASE	4.21	336	7.97	332	-1.2	100	-1.2	0	0	979.6	NA	0.0000		9999	3770	0	0	0
2019/05/17 10:55:00	BASE	4.25	345	7.56	327	-1.2	100	-1.2	0	0	979.7	NA	0.0000		9999	3740	0	0	0
2019/05/17 10:56:00	BASE	4.64	343	6.79	329	-1.2	100	-1.2	0	0	979.7	NA	0.0000		9999	1670	3770	0	0
2019/05/17 10:57:00	BASE	4.39	340	6.58	323	-1.2	100	-1.2	0	0	979.7	NA	0.0000		9999	1610	3840	0	0
2019/05/17 10:58:00	BASE	4.54	343	6.58	323	-1.2	100	-1.2	0	0	979.7	NA	0.0000		9999	1510	3900	0	0
2019/05/17 10:59:00	BASE	5.10	342	6.58	323	-1.2	100	-1.2	0	0	979.7	NA	0.0000		9999	1480	3900	0	0
2019/05/17 11:00:00	BASE	5.19	342	6.12	354	-1.2	100	-1.2	0	0	979.7	NA	0.0000		9999	1440	3940	0	0
2019/05/17 11:01:00	BASE	4.76	345	6.12	354	-1.2	100	-1.2	0	0	979.8	NA	0.0000		9999	1440	3900	0	0
2019/05/17 11:02:00	BASE	4.30	345	6.12	354	-1.2	100	-1.2	0	0	979.8	NA	0.0000		9999	1510	2620	3870	0
2019/05/17 11:03:00	BASE	4.68	343	6.12	354	-1.2	100	-1.2	0	0	979.8	NA	0.0000		9999	1510	2560	3940	0
2019/05/17 11:04:00	BASE	5.15	341	6.38	350	-1.1	100	-1.1	0	0	979.7	NA	0.0000		9999	1410	0	0	0
2019/05/17 11:05:00	BASE	4.45	341	6.38	350	-1.1	100	-1.1	0	0	979.8	NA	0.0000		9999	1380	2590	0	0
2019/05/17 11:06:00	BASE	3.37	341	6.38	350	-1.1	100	-1.1	0	0	979.8	NA	0.0000		9999	1440	2590	4040	0
2019/05/17 11:07:00	BASE	3.67	337	6.38	350	-1.1	100	-1.1	0	0	979.8	NA	0.0000		9999	1440	2490	0	0
2019/05/17 11:08:00	BASE	4.06	338	6.38	350	-1.1	100	-1.1	0	0	979.8	NA	0.0000		9999	1410	2460	0	0
2019/05/17 11:09:00	BASE	3.72	336	6.38	350	-1.1	100	-1.1	0	0	979.8	NA	0.0000		9999	1410	2460	0	0
2019/05/17 11:10:00	BASE	3.31	333	6.38	350	-1.1	100	-1.1	0	0	979.8	NA	0.0000		9999	1480	2330	4360	0
2019/05/17 11:11:00	BASE	2.83	338	6.38	350	-1.1	100	-1.1	0	0	979.8	NA	0.0000		9999	1570	2430	0	0
2019/05/17 11:12:00	BASE	2.38	340	6.38	350	-1.1	100	-1.1	0	0	979.8	NA	0.0000		9999	1510	0	0	0
2019/05/17 11:13:00	BASE	2.13	344	6.38	350	-1.1	100	-1.1	0	0	979.8	NA	0.0000		9999	1480	0	0	0
2019/05/17 11:14:00	BASE	2.50	345	5.14	333	-1.1	100	-1.1	0	0	979.8	NA	0.0000		9999	1410	0	0	0
2019/05/17 11:15:00	BASE	2.59	337	5.14	333	-1.1	100	-1.1	0	0	979.8	NA	0.0000		9999	1410	0	0	0
2019/05/17 11:16:00	BASE	2.39	342	5.14	333	-1.1	100	-1.1	0	0	979.8	NA	0.0000		9999	1410	0	0	0
2019/05/17 11:17:00	BASE	2.23	356	4.32	343	-1.1	100	-1.1	0	0	979.8	NA	0.0000		9999	1380	0	0	0
2019/05/17 11:18:00	BASE	2.13	11	4.01	325	-1.1	100	-1.1	0	0	979.8	NA	0.0000		9999	1410	0	0	0
2019/05/17 11:19:00	BASE	2.05	15	3.70	331	-1.1	100	-1.1	0	0	979.8	NA	0.0000		9999	1350	0	0	0
2019/05/17 11:20:00	BASE	2.17	12	3.45	325	-1.1	100	-1.1	0	0	979.9	NA	0.0000		9999	1380	0	0	0
2019/05/17 11:21:00	BASE	2.59	9	3.40	349	-1.1	100	-1.1	0	0	979.9	NA	0.0000		9999	1440	0	0	0
2019/05/17 11:22:00	BASE	3.01	11	3.96	27	-1.1	100	-1.1	0	0	979.9	NA	0.0000		9999	1380	0	0	0
2019/05/17 11:23:00	BASE	2.84	5	3.96	27	-1.1	100	-1.1	0	0	979.9	NA	0.0000		9999	1380	0	0	0
2019/05/17 11:24:00	BASE	2.75	6	3.96	27	-1.1	100	-1.1	0	0	979.9	NA	0.0000		9999	1310	0	0	0
2019/05/17 11:25:00	BASE	3.02	13	3.96	27	-1.1	100	-1.1	0	0	979.9	NA	0.0000		9999	1380	0	0	0
2019/05/17 11:26:00	BASE	2.61	5	3.96	27	-1.1	100	-1.1	0	0	979.9	NA	0.0000		9999	1380	0	0	0
2019/05/17 11:27:00	BASE	2.00	20	3.96	27	-1.0	100	-1.0	0	0	979.9	NA	0.0000		9999	1380	0	0	0
2019/05/17 11:28:00	BASE	1.58	49	3.96	27	-1.0	100	-1.0	0	0	979.9	NA	0.0000		9999	1380	0	0	0
2019/05/17 11:29:00	BASE	1.44	61	3.96	27	-1.0	100	-1.0	0	0	979.9	NA	0.0000		9999	1410	0	0	0
2019/05/17 11:30:00	BASE	1.48	65	3.96	27	-1.0	100	-1.0	0	0	979.9	NA	0.0000		9999	1440	0	0	0
2019/05/17 11:31:00	BASE	1.81	62	3.96	27	-1.1	100	-1.1	0	0	979.9	NA	0.0000		9999	1440	0	0	0
2019/05/17 11:32:00	BASE	2.14	52	3.81	12	-1.1	100	-1.1	0	0	979.8	NA	0.0000		9999	1510	0	0	0
2019/05/17 11:33:00	BASE	2.03	48	3.81	12	-1.1	100	-1.1	0	0	979.8	NA	0.0000		9999	1440	0	0	0
2019/05/17 11:34:00	BASE	2.05	49	3.55	10	-1.1	100	-1.1	0	0	979.8	NA	0.0000		9999	1410	0	0	0
2019/05/17 11:35:00	BASE	2.19	57	2.73	64	-1.1	100	-1.1	0	0	979.8	NA	0.0000		9999	1410	0	0	0
2019/05/17 11:36:00	BASE	2.01	55	2.73	64	-1.1	100	-1.1	0	0	979.8	NA	0.0000		9999	1440	0	0	0
2019/05/17 11:37:00	BASE	2.26	53	3.19	56	-1.1	100	-1.1	0	0	979.8	NA	0.0000		9999	1380	0	0	0
2019/05/17 11:38:00	BASE	2.90	49	4.22	37	-1.1	100	-1.1	0	0	979.8	NA	0.0000		9999	1310	0	0	0
2019/05/17 11:39:00	BASE	3.06	41	4.22	37	-1.1	100	-1.1	0	0	979.7	NA	0.0000		9999	1310	0	0	0
2019/05/17 11:40:00	BASE	2.60	39	4.22	37	-1.1	100	-1.1	0	0	979.8	NA	0.0000		9999	1250	0	0	0
2019/05/17 11:41:00	BASE	1.69	40	4.22	37	-1.1	100	-1.1	0	0	979.7	NA	0.0000		9999	1250	0	0	0
2019/05/17 11:42:00	BASE	1.64	40	4.22	37	-1.1	100	-1.1	0	0	979.8	NA	0.0000		9999	1180	0	0	0
2019/05/17 11:43:00	BASE	2.27	43	4.22	37	-1.1	100	-1.1	0	0	979.8	NA	0.0000		9999	1180	0	0	0
2019/05/17 11:44:00	BASE	2.58	45	4.22	37	-1.1	100	-1.1	0	0	979.7	NA	0.0000		9999	1210	0	0	0
2019/05/17 11:45:00	BASE	2.77	38	4.22	37	-1.1	100	-1.1	0	0	979.8	NA	0.0000		9999	1210	0	0	0
2019/05/17 11:46:00	BASE	3.01	32	4.22	37	-1.1	100	-1.1	0	0	979.8	NA	0.0000		9999	1210	0	0	0
2019/05/17 11:47:00	BASE	3.38	29	4.22	37	-1.1	100	-1.1	0	0	979.8	NA	0.0000		9999	1210	0	0	0
2019/05/17 11:48:00	BASE	3.86	26	5.25	22	-1.1	100	-1.1	0	0	979.7	NA	0.0000		9999	1180	0	0	0
2019/05/17 11:49:00	BASE	4.53	23	5.25	23	-1.1	100	-1.1	0	0	979.7	NA	0.0000		9999	1210	0	0	0
2019/05/17 11:50:00	BASE	5.07	20	5.35	23	-1.1	100	-1.1	0	0	979.7	NA	0.0000		9999	1250	0	0	0
2019/05/17 11:51:00	BASE	5.18	17	5.56	16	-1.1	100	-1.1	0	0	979.7	NA	0.0000		9999	1180	0	0	0
2019/05/17 11:52:00	BASE	4.97	19	5.56	16	-1.1	100	-1.1	0	0	979.7	NA	0.0000		9999	1210	0	0	0
2019/05/17 11:53:00	BASE	5.15	17	7.00	17	-1.1	100	-1.1	0	0	979.7	NA	0.0000		9999	1250	0	0	0
2019/05/17 11:54:00	BASE	5.92	15	7.00	17	-1.1	100	-1.1	0	0	979.7	NA	0.0000		9999	1210	0	0	0
2019/05/17 11:55:00	BASE	5.84	11	7.00	17	-1.1	100	-1.1	0	0	979.8	NA	0.0000		9999	1250	0	0	0
2019/05/17 11:56:00	BASE	5.13	8	7.00	17	-1.1	100	-1.1	0	0	979.8	NA	0.0000		9999	1250	0	0	0
2019/05/17 11:57:00	BASE	5.05	13	7.00	17	-1.1	100	-1.1	0	0	979.8	NA	0.0000		9999	1210	0	0	0
2019/05/17 11:58:00	BASE	5.30	19	7.00	17	-1.1	100	-1.1	0	0	979.7	NA	0.0000		9999	1250	0	0	0
2019/05/17 11:59:00	BASE	5.82	20	7.00	17	-1.1	100	-1.1	0	0	979.7	NA	0.0000		9999	1210	0	0	0
2019/05/17 12:00:00	BASE	6.01	15	7.00	17	-1.1	100	-1.1	0	0	979.7	NA	0.0000		9999	1180	0	0	0
2019/05/17 12:01:00	BASE	5.36	12	7.00	17	-1.1	100	-1.1	0	0	979.7	NA	0.0000		9999	1180	0	0	0
2019/05/17 12:02:00	BASE	4.91	11	7.00	17	-1.2	100	-1.2	0	0	979.6	NA	0.0000		9999	1210	0	0	0
2019/05/17 12:03:00	BASE	4.62	8	6.84	17	-1.2	100	-1.2	0	0	979.6	NA	0.0000		9999	1050	0	0	0
2019/05/17 12:04:00	BASE	4.24	12	6.74	20	-1.2	100	-1.2	0	0	979.6	NA	0.0000		9999	1840	0	0	0
2019/05/17 12:05:00	BASE	3.86	14	6.74	20	-1.2	100	-1.2	0	0	979.6	NA	0.0000		9999	1180	0	0	0
2019/05/17 12:06:00	BASE	3.79	8	6.74	20	-1.2	100	-1.2	0	0	979.6	NA	0.0000		9999	1150	2030	0	0
2019/05/17 12:07:00	BASE	4.40	4	6.74	20	-1.3	100	-1.3	0	0	979.5	NA	0.0000		9999	2000	0	0	0
2019/05/17 12:08:00	BASE	4.63	2	6.74	20	-1.3	100	-1.3	0	0	979.4	NA	0.0000		9999	2000	0	0	0
2019/05/17 12:09:00	BASE	4.54	354	6.12	14	-1.3	100	-1.3	0	0	979.4	NA	0.0000		9999	0	0	0	620
2019/05/17 12:10:00	BASE	4.75	352	5.30	17	-1.3	100	-1.3	0	0	979.4	NA	0.0000		9999	1840	0	0	0
2019/05/17 12:11:00	BASE	5.25	355	5.71	355	-1.3	100	-1.3	0	0	979.3	NA	0.0000		9999	1840	0	0	0
2019/05/17 12:12:00	BASE	5.64	354	5.92	353	-1.4	100	-1.4	0	0	979.3	NA	0.0000		9999	1740	0	0	0
2019/05/17 12:13:00	BASE	5.63	357	6.07	352	-1.4	100	-1.4	0	0	979.3	NA	0.0000		9999	0	0	0	0
2019/05/17 12:14:00	BASE	5.90	356	6.43	353	-1.4	100	-1.4	0	0	979.3	NA	0.0000		9999	0	0	0	0
2019/05/17 12:15:00	BASE	6.07	355	6.43	353	-1.4	100	-1.4	0	0	979.3	NA	0.0000		9999	2070	0	0	0
2019/05/17 12:16:00	BASE	5.98	354	6.43	353	-1.4	100	-1.4	0	0	979.3	NA	0.0000		9999	2070	0	0	0
2019/05/17 12:17:00	BASE	6.07	349	6.43	345	-1.3	100	-1.3	0	0	979.3	NA	0.0000		9999	2100	0	0	0
2019/05/17 12:18:00	BASE	6.37	348	7.15	348	-1.3	100	-1.3	0	0	979.3	NA	0.0000		9999	2070	0	0	0
2019/05/17 12:19:00	BASE	6.61	348	7.15	348	-1.3	100	-1.3	0	0	979.3	NA	0.0000		9999	2000	0	0	0
2019/05/17 12:20:00	BASE	6.62	346	7.15	348	-1.4	100	-1.4	0	0	979.3	NA	0.0000		9999	2070	0	0	0
2019/05/17 12:21:00	BASE	6.55	342	7.15	348	-1.4	100	-1.4	0	0	979.3	NA	0.0000		9999	2100	0	0	0
2019/05/17 12:22:00	BASE	6.36	342	7.15	348	-1.4	100	-1.4	0	0	979.3	NA	0.0000		9999	0	0	0	0
2019/05/17 12:23:00	BASE	5.58	342	7.15	348	-1.4	100	-1.4	0	0	979.2	NA	0.0000		9999	0	0	0	0
2019/05/17 12:24:00	BASE	5.01	340	7.15	348	-1.4	100	-1.4	0	0	979.2	NA	0.0000		9999	0	0	0	0
2019/05/17 12:25:00	BASE	4.81	340	7.15	348	-1.4	100	-1.4	0	0	979.2	NA	0.0000		9999	0	0	0	0
2019/05/17 12:26:00	BASE	4.72	341	7.15	348	-1.4	100	-1.4	0	0	979.2	NA	0.0000		9999	5840	0	0	0
2019/05/17 12:27:00	BASE	4.88	347	7.15	348	-1.5	100	-1.5	0	0	979.2	NA	0.0000		9999	5810	0	0	0
2019/05/17 12:28:00	BASE	4.58	354	6.94	341	-1.5	100	-1.5	0	0	979.2	NA	0.0000		9999	5840	0	0	0
2019/05/17 12:29:00	BASE	4.24	0	6.94	341	-1.5	100	-1.5	0	0	979.2	NA	0.0000		9999	2260	5810	0	0
2019/05/17 12:30:01	BASE	3.88	12	6.89	344	-1.5	100	-1.5	0	0	979.2	NA	0.0000		9999	2230	5840	0	0
2019/05/17 12:31:00	BASE	4.11	25	6.69	346	-1.5	100	-1.5	0	0	979.2	NA	0.0000		9999	2230	4590	5810	0
2019/05/17 12:32:00	BASE	4.70	29	5.66	20	-1.5	100	-1.5	0	0	979.2	NA	0.0000		9999	2200	0	0	0
2019/05/17 12:33:00	BASE	4.57	26	5.66	20	-1.4	100	-1.4	0	0	979.2	NA	0.0000		9999	2070	0	0	0
2019/05/17 12:34:00	BASE	3.70	27	5.66	20	-1.4	100	-1.4	0	0	979.2	NA	0.0000		9999	2130	0	0	0
2019/05/17 12:35:00	BASE	3.05	38	5.66	20	-1.4	100	-1.4	0	0	979.2	NA	0.0000		9999	2100	3250	0	0
2019/05/17 12:36:00	BASE	2.94	46	5.66	20	-1.4	100	-1.4	0	0	979.1	NA	0.0000		9999	2030	0	0	0
2019/05/17 12:37:00	BASE	2.46	60	5.66	20	-1.5	100	-1.5	0	0	979.1	NA	0.0000		9999	2000	0	0	0
2019/05/17 12:38:00	BASE	2.00	90	5.66	20	-1.5	100	-1.5	0	0	979.1	NA	0.0000		9999	2030	0	0	0
2019/05/17 12:39:00	BASE	1.65	106	5.66	20	-1.6	100	-1.6	0	0	979.0	NA	0.0000		9999	2230	3120	0	0
2019/05/17 12:40:00	BASE	1.26	96	5.66	20	-1.6	100	-1.6	0	0	979.0	NA	0.0000		9999	2300	3020	0	0
2019/05/17 12:41:00	BASE	1.33	87	5.14	26	-1.6	100	-1.6	0	0	979.0	NA	0.0000		9999	2230	0	0	0
2019/05/17 12:42:00	BASE	2.30	92	5.09	29	-1.7	100	-1.7	0	0	978.9	NA	0.0000		9999	2230	0	0	0
2019/05/17 12:43:00	BASE	3.05	88	3.45	22	-1.7	100	-1.7	0	0	978.9	NA	0.0000		9999	2230	0	0	0
2019/05/17 12:44:00	BASE	3.18	75	4.01	63	-1.7	100	-1.7	0	0	979.0	NA	0.0000		9999	2200	0	0	0
2019/05/17 12:45:00	BASE	3.72	64	4.99	55	-1.7	100	-1.7	0	0	979.0	NA	0.0000		9999	2200	3510	0	0
2019/05/17 12:46:00	BASE	4.35	51	5.30	49	-1.7	100	-1.7	0	0	978.9	NA	0.0000		9999	2200	3540	0	0
2019/05/17 12:47:00	BASE	4.16	41	5.30	49	-1.7	100	-1.7	0	0	978.9	NA	0.0000		9999	2130	3870	0	0
2019/05/17 12:48:00	BASE	4.16	30	5.30	49	-1.8	100	-1.8	1	0	978.8	NA	0.0000		9999	0	0	0	0
2019/05/17 12:49:00	BASE	4.57	18	5.30	49	-1.8	100	-1.8	1	0	978.7	NA	0.0000		9999	3410	0	0	0
2019/05/17 12:50:00	BASE	4.49	9	5.30	49	-1.8	100	-1.8	1	0	978.7	NA	0.0000		9999	3380	0	0	0
2019/05/17 12:51:00	BASE	4.24	4	5.30	49	-1.7	100	-1.7	1	0	978.7	NA	0.0000		9999	3220	0	0	0
2019/05/17 12:52:00	BASE	4.01	3	5.30	49	-1.7	100	-1.7	1	0	978.6	NA	0.0000		9999	3280	0	0	0
2019/05/17 12:53:00	BASE	4.14	9	5.30	49	-1.6	100	-1.6	1	0	978.6	NA	0.0000		9999	3310	0	0	0
2019/05/17 12:54:00	BASE	4.23	16	5.30	49	-1.6	100	-1.6	1	0	978.6	NA	0.0000		9999	3380	0	0	0
2019/05/17 12:55:00	BASE	3.82	13	5.30	49	-1.6	100	-1.6	1	0	978.6	NA	0.0000		9999	3410	0	0	0
2019/05/17 12:56:00	BASE	3.49	10	5.04	6	-1.5	100	-1.5	1	0	978.6	NA	0.0000		9999	3480	4170	0	0
2019/05/17 12:57:00	BASE	3.34	4	5.04	6	-1.5	100	-1.5	1	0	978.5	NA	0.0000		9999	3480	4170	0	0
2019/05/17 12:58:00	BASE	3.18	3	5.04	6	-1.5	100	-1.5	1	0	978.5	NA	0.0000		9999	3450	4130	0	0
2019/05/17 12:59:00	BASE	2.89	13	5.04	6	-1.5	100	-1.5	1	0	978.5	NA	0.0000		9999	3310	4200	0	0
2019/05/17 13:00:00	BASE	2.27	16	4.58	15	-1.5	100	-1.5	1	0	978.5	NA	0.0000		9999	3380	0	0	0
2019/05/17 13:01:00	BASE	2.05	12	4.58	15	-1.5	100	-1.5	2	0	978.5	NA	0.0000		9999	0	0	0	0
2019/05/17 13:02:00	BASE	1.77	9	4.58	15	-1.5	100	-1.5	2	0	978.5	NA	0.0000		9999	0	0	0	0
2019/05/17 13:03:00	BASE	1.44	11	4.32	16	-1.5	100	-1.5	2	0	978.4	NA	0.0000		9999	0	0	0	0
2019/05/17 13:04:00	BASE	1.16	15	3.96	14	-1.5	100	-1.5	2	0	978.5	NA	0.0000		9999	3580	0	0	0
2019/05/17 13:05:00	BASE	0.63	18	3.96	14	-1.5	100	-1.5	2	0	978.4	NA	0.0000		9999	3610	0	0	0
2019/05/17 13:06:00	BASE	0.50	21	3.70	230	-1.5	100	-1.5	2	0	978.4	NA	0.0000		9999	3580	0	0	0
2019/05/17 13:07:00	BASE	0.54	25	3.45	9	-1.5	100	-1.5	2	0	978.5	NA	0.0000		9999	3540	0	0	0
2019/05/17 13:08:00	BASE	0.27	19	3.29	20	-1.5	100	-1.5	2	0	978.5	NA	0.0000		9999	3540	0	0	0
2019/05/17 13:09:00	BASE	0.05	8	2.47	8	-1.5	100	-1.5	2	0	978.4	NA	0.0000		9999	3510	4360	0	0
2019/05/17 13:10:00	BASE	0.04	1	2.47	8	-1.5	100	-1.5	2	0	978.4	NA	0.0000		9999	3410	0	0	0
2019/05/17 13:11:00	BASE	0.04	0	1.75	11	-1.5	100	-1.5	2	0	978.4	NA	0.0000		9999	3540	0	0	0
2019/05/17 13:12:00	BASE	0.00	19	1.75	11	-1.5	100	-1.5	3	0	978.4	NA	0.0000		9999	3450	0	0	0
2019/05/17 13:13:00	BASE	0.11	33	1.44	24	-1.5	100	-1.5	3	0	978.4	NA	0.0000		9999	3480	4300	0	0
2019/05/17 13:14:00	BASE	0.88	8	1.85	343	-1.5	100	-1.5	3	0	978.3	NA	0.0000		9999	3480	4100	0	0
2019/05/17 13:15:00	BASE	0.81	6	1.85	343	-1.5	100	-1.5	3	0	978.2	NA	0.0000		9999	3610	4200	0	0
2019/05/17 13:16:00	BASE	0.05	34	1.85	343	-1.5	100	-1.5	3	0	978.3	NA	0.0000		9999	3710	0	0	0
2019/05/17 13:17:00	BASE	0.49	48	1.85	343	-1.5	100	-1.5	3	0	978.3	NA	0.0000		9999	0	0	0	0
2019/05/17 13:18:00	BASE	0.59	67	1.85	343	-1.4	100	-1.4	4	0	978.3	NA	0.0000		9999	2890	0	0	0
2019/05/17 13:19:00	BASE	0.47	75	1.85	343	-1.4	100	-1.4	4	0	978.2	NA	0.0000		9999	2790	0	0	0
2019/05/17 13:20:00	BASE	0.70	78	1.85	343	-1.4	100	-1.4	4	0	978.3	NA	0.0000		9999	2760	0	0	0
2019/05/17 13:21:00	BASE	1.01	71	1.85	343	-1.4	100	-1.4	4	0	978.3	NA	0.0000		9999	2720	4330	0	0
2019/05/17 13:22:00	BASE	1.60	47	1.95	41	-1.4	100	-1.4	5	0	978.3	NA	0.0000		9999	2720	0	0	0
2019/05/17 13:23:00	BASE	1.90	35	2.26	40	-1.5	100	-1.5	5	0	978.2	NA	0.0000		9999	2620	0	0	0
2019/05/17 13:24:00	BASE	1.85	41	2.26	40	-1.6	100	-1.6	5	0	978.2	NA	0.0000		9999	2620	0	0	0
2019/05/17 13:25:00	BASE	1.16	54	2.26	40	-1.6	100	-1.6	5	0	978.2	NA	0.0000		9999	2560	0	0	0
2019/05/17 13:26:00	BASE	0.49	62	2.26	40	-1.7	100	-1.7	5	0	978.2	NA	0.0000		9999	2490	0	0	0
2019/05/17 13:27:00	BASE	0.27	59	2.26	40	-1.7	100	-1.7	6	0	978.1	NA	0.0000		9999	2620	0	0	0
2019/05/17 13:28:00	BASE	0.46	66	2.26	40	-1.7	100	-1.7	6	0	978.2	NA	0.0000		9999	2690	0	0	0
2019/05/17 13:29:00	BASE	0.94	79	2.26	40	-1.6	100	-1.6	6	0	978.2	NA	0.0000		9999	2530	0	0	0
2019/05/17 13:30:00	BASE	1.40	80	2.26	40	-1.6	100	-1.6	6	0	978.1	NA	0.0000		9999	2620	0	0	0
2019/05/17 13:31:00	BASE	1.62	84	2.26	40	-1.6	100	-1.6	6	0	978.1	NA	0.0000		9999	2560	0	0	0
2019/05/17 13:32:00	BASE	1.63	101	2.26	40	-1.7	100	-1.7	7	0	978.1	NA	0.0000		9999	2530	0	0	0
2019/05/17 13:33:00	BASE	1.57	113	2.16	38	-1.7	100	-1.7	7	0	978.1	NA	0.0000		9999	2490	0	0	0
2019/05/17 13:34:00	BASE	1.09	116	2.06	90	-1.7	100	-1.7	7	0	978.1	NA	0.0000		9999	2330	0	0	0
2019/05/17 13:35:00	BASE	0.95	122	2.06	90	-1.8	100	-1.8	7	0	978.1	NA	0.0000		9999	2400	0	0	0
2019/05/17 13:36:00	BASE	1.19	131	2.06	90	-1.8	100	-1.8	7	0	978.0	NA	0.0000		9999	2300	0	0	0
2019/05/17 13:37:00	BASE	0.95	135	2.06	90	-1.8	100	-1.8	8	0	978.0	NA	0.0000		9999	2360	0	0	0
2019/05/17 13:38:00	BASE	0.34	139	2.06	90	-1.8	100	-1.8	8	0	978.1	NA	0.0000		9999	2360	0	0	0
2019/05/17 13:39:00	BASE	0.00	138	2.06	90	-1.8	100	-1.8	8	0	978.1	NA	0.0000		9999	2260	0	0	0
2019/05/17 13:40:00	BASE	0.00	134	2.06	90	-1.8	100	-1.8	8	0	978.1	NA	0.0000		9999	2330	0	0	0
2019/05/17 13:41:00	BASE	0.00	133	1.85	111	-1.7	100	-1.7	9	0	978.1	NA	0.0000		9999	2330	0	0	0
2019/05/17 13:42:00	BASE	0.00	133	1.65	112	-1.7	100	-1.7	9	0	978.1	NA	0.0000		9999	2300	0	0	0
2019/05/17 13:43:00	BASE	0.00	133	1.39	134	-1.6	100	-1.6	9	0	978.1	NA	0.0000		9999	2170	0	0	0
2019/05/17 13:44:00	BASE	0.00	134	1.39	134	-1.6	100	-1.6	10	0	978.1	NA	0.0000		9999	2230	0	0	0
2019/05/17 13:45:00	BASE	0.00	105	1.39	134	-1.5	100	-1.5	10	0	978.1	NA	0.0000		9999	2230	0	0	0
2019/05/17 13:46:00	BASE	0.00	31	1.34	137	-1.5	100	-1.5	10	0	978.1	NA	0.0000		9999	2100	0	0	0
2019/05/17 13:47:00	BASE	0.00	38	M	M	-1.5	100	-1.5	11	0	978.1	NA	0.0000		9999	1970	0	0	0
2019/05/17 13:48:00	BASE	0.00	59	M	M	-1.5	100	-1.5	11	0	978.1	NA	0.0000		9999	2030	0	0	0
2019/05/17 13:49:00	BASE	0.13	60	1.18	37	-1.6	100	-1.6	12	0	978.1	NA	0.0000		9999	2030	0	0	0
2019/05/17 13:50:00	BASE	0.64	48	1.39	43	-1.6	100	-1.6	12	0	978.1	NA	0.0000		9999	2030	0	0	0
2019/05/17 13:51:00	BASE	0.98	42	1.44	47	-1.6	100	-1.6	13	0	978.0	NA	0.0000		9999	2100	0	0	0
2019/05/17 13:52:00	BASE	1.06	47	1.44	47	-1.7	100	-1.7	14	0	977.9	NA	0.0000		9999	1970	0	0	0
2019/05/17 13:53:00	BASE	0.80	53	1.44	47	-1.7	100	-1.7	15	0	977.9	NA	0.0000		9999	2070	0	0	0
2019/05/17 13:54:00	BASE	0.21	53	1.44	47	-1.8	100	-1.8	16	0	977.8	NA	0.0000		9999	2000	0	0	0
2019/05/17 13:55:00	BASE	0.00	33	1.44	47	-1.8	100	-1.8	16	0	977.9	NA	0.0000		9999	1970	0	0	0
2019/05/17 13:56:00	BASE	0.00	12	1.44	47	-1.8	100	-1.8	17	0	977.8	NA	0.0000		9999	1840	0	0	0
2019/05/17 13:57:00	BASE	0.00	13	1.44	47	-1.7	100	-1.7	17	0	977.9	NA	0.0000		9999	1800	0	0	0
2019/05/17 13:58:00	BASE	0.00	20	1.44	47	-1.6	100	-1.6	18	0	977.9	NA	0.0000		9999	1740	0	0	0
2019/05/17 13:59:00	BASE	0.00	65	1.44	47	-1.6	100	-1.6	17	0	977.7	NA	0.0000		9999	1670	0	0	0
2019/05/17 14:00:00	BASE	0.00	76	1.44	47	-1.6	100	-1.6	17	0	977.7	NA	0.0000		9999	1640	0	0	0
2019/05/17 14:01:00	BASE	0.00	32	1.29	62	-1.5	100	-1.5	17	0	977.7	NA	0.0000		9999	1640	0	0	0
2019/05/17 14:02:00	BASE	0.00	14	1.29	62	-1.5	100	-1.5	16	0	977.8	NA	0.0000		9999	1710	0	0	0
2019/05/17 14:03:00	BASE	0.00	102	M	M	-1.5	100	-1.5	16	0	977.8	NA	0.0000		9999	1610	0	0	0
2019/05/17 14:04:00	BASE	0.00	147	M	M	-1.5	100	-1.5	16	0	977.8	NA	0.0000		9999	1540	0	0	0
2019/05/17 14:05:00	BASE	0.00	136	M	M	-1.5	100	-1.5	16	0	977.8	NA	0.0000		9999	1510	0	0	0
2019/05/17 14:06:00	BASE	0.00	132	M	M	-1.5	100	-1.5	16	0	977.8	NA	0.0000		9999	1570	0	0	0
2019/05/17 14:07:00	BASE	0.00	241	M	M	-1.5	100	-1.5	16	0	977.8	NA	0.0000		9999	1670	0	0	0
2019/05/17 14:08:00	BASE	0.00	302	M	M	-1.5	100	-1.5	16	0	977.8	NA	0.0000		9999	1770	0	0	0
2019/05/17 14:09:00	BASE	0.00	328	M	M	-1.6	100	-1.6	16	0	977.8	NA	0.0000		9999	1710	0	0	0
2019/05/17 14:10:00	BASE	0.00	357	M	M	-1.6	100	-1.6	15	0	977.8	NA	0.0000		9999	1570	0	0	0
2019/05/17 14:11:00	BASE	0.00	11	M	M	-1.6	100	-1.6	15	0	977.8	NA	0.0000		9999	1610	0	0	0
2019/05/17 14:12:00	BASE	0.00	4	M	M	-1.6	100	-1.6	15	0	977.7	NA	0.0000		9999	1570	0	0	0
2019/05/17 14:13:00	BASE	0.00	0	M	M	-1.6	100	-1.6	15	0	977.8	NA	0.0000		9999	1570	0	0	0
2019/05/17 14:14:00	BASE	0.40	360	1.29	351	-1.6	100	-1.6	16	0	977.9	NA	0.0000		9999	1570	0	0	0
2019/05/17 14:15:00	BASE	1.04	356	1.34	350	-1.7	100	-1.7	16	0	977.9	NA	0.0000		9999	1540	0	0	0
2019/05/17 14:16:00	BASE	1.29	349	1.39	352	-1.7	100	-1.7	15	0	977.8	NA	0.0000		9999	1510	0	0	0
2019/05/17 14:17:00	BASE	1.23	348	1.39	352	-1.8	100	-1.8	15	0	977.8	NA	0.0000		9999	1540	0	0	0
2019/05/17 14:18:00	BASE	1.24	355	1.39	3	-1.8	100	-1.8	15	0	977.8	NA	0.0000		9999	1540	0	0	0
2019/05/17 14:19:00	BASE	1.44	358	1.75	353	-1.8	100	-1.8	14	0	977.8	NA	0.0000		9999	1510	0	0	0
2019/05/17 14:20:00	BASE	1.54	358	1.75	9	-1.8	100	-1.8	14	0	977.8	NA	0.0000		9999	1540	0	0	0
2019/05/17 14:21:00	BASE	1.47	11	1.75	9	-1.8	100	-1.8	13	0	977.8	NA	0.0000		9999	1510	0	0	0
2019/05/17 14:22:00	BASE	1.40	19	1.75	9	-1.8	100	-1.8	13	0	977.8	NA	0.0000		9999	1480	0	0	0
2019/05/17 14:23:00	BASE	1.39	9	1.75	9	-1.8	100	-1.8	12	0	977.8	NA	0.0000		9999	1410	0	0	0
2019/05/17 14:24:00	BASE	1.34	7	1.75	9	-1.8	100	-1.8	12	0	977.8	NA	0.0000		9999	1440	0	0	0
2019/05/17 14:25:00	BASE	1.31	19	1.75	9	-1.8	100	-1.8	12	0	977.8	NA	0.0000		9999	1380	0	0	0
2019/05/17 14:26:00	BASE	1.50	18	1.95	18	-1.8	100	-1.8	12	0	977.8	NA	0.0000		9999	1250	0	0	0
2019/05/17 14:27:00	BASE	1.70	14	1.95	18	-1.8	100	-1.8	12	0	977.8	NA	0.0000		9999	1210	0	0	0
2019/05/17 14:28:00	BASE	1.83	14	2.11	3	-1.8	100	-1.8	12	0	977.9	NA	0.0000		9999	1210	0	0	0
2019/05/17 14:29:00	BASE	2.05	7	2.62	354	-1.8	100	-1.8	13	0	977.9	NA	0.0000		9999	1210	0	0	0
2019/05/17 14:30:00	BASE	2.11	1	2.62	354	-1.9	100	-1.9	13	0	977.9	NA	0.0000		9999	1210	0	0	0
2019/05/17 14:31:00	BASE	2.31	354	2.68	345	-1.9	100	-1.9	13	0	977.9	NA	0.0000		9999	1180	0	0	0
2019/05/17 14:32:00	BASE	2.53	350	2.68	348	-1.9	100	-1.9	13	0	977.8	NA	0.0000		9999	1210	0	0	0
2019/05/17 14:33:00	BASE	2.45	348	2.78	347	-1.9	100	-1.9	13	0	977.8	NA	0.0000		9999	1180	0	0	0
2019/05/17 14:34:00	BASE	2.52	343	2.93	343	-1.9	100	-1.9	14	0	977.7	NA	0.0000		9999	1120	0	0	0
2019/05/17 14:35:00	BASE	2.50	342	2.93	343	-1.9	100	-1.9	14	0	977.8	NA	0.0000		9999	1050	0	0	0
2019/05/17 14:36:00	BASE	2.59	340	3.04	333	-1.9	100	-1.9	14	0	977.8	NA	0.0000		9999	1050	0	0	0
2019/05/17 14:37:00	BASE	2.99	337	3.40	341	-1.9	100	-1.9	14	0	977.7	NA	0.0000		9999	980	0	0	0
2019/05/17 14:38:00	BASE	3.21	338	3.40	336	-2.0	100	-2.0	14	0	977.7	NA	0.0000		9999	950	0	0	0
2019/05/17 14:39:00	BASE	3.17	338	3.40	336	-2.0	100	-2.0	15	0	977.7	NA	0.0000		9999	950	0	0	0
2019/05/17 14:40:00	BASE	3.24	341	3.50	344	-2.0	100	-2.0	15	0	977.8	NA	0.0000		9999	750	0	0	0
2019/05/17 14:41:00	BASE	3.22	341	3.50	344	-2.0	100	-2.0	15	0	977.8	NA	0.0000		9999	690	0	0	0
2019/05/17 14:42:00	BASE	3.09	338	3.50	344	-2.0	100	-2.0	15	0	977.7	NA	0.0000		9999	620	0	0	0
2019/05/17 14:43:00	BASE	3.26	337	3.55	339	-2.0	100	-2.0	15	0	977.7	NA	0.0000		9999	660	0	0	0
2019/05/17 14:44:00	BASE	3.51	337	3.65	338	-2.0	100	-2.0	16	0	977.8	NA	0.0000		9999	690	0	0	0
2019/05/17 14:45:00	BASE	3.59	338	3.76	341	-2.0	100	-2.0	17	0	977.7	NA	0.0000		9999	660	0	0	0
2019/05/17 14:46:00	BASE	3.54	340	3.76	341	-2.0	100	-2.0	17	0	977.8	NA	0.0000		9999	690	0	0	0
2019/05/17 14:47:00	BASE	3.52	342	3.76	343	-2.0	100	-2.0	18	0	977.7	NA	0.0000		9999	720	0	0	0
2019/05/17 14:48:00	BASE	3.51	344	3.76	343	-2.0	100	-2.0	19	0	977.7	NA	0.0000		9999	750	0	0	0
2019/05/17 14:49:00	BASE	3.65	346	4.37	347	-1.9	100	-1.9	20	0	977.8	NA	0.0000		9999	750	0	0	0
2019/05/17 14:50:00	BASE	4.03	348	4.37	347	-1.9	100	-1.9	21	0	977.8	NA	0.0000		9999	820	0	0	0
2019/05/17 14:51:00	BASE	4.36	347	4.73	346	-1.9	100	-1.9	22	0	977.7	NA	0.0000		9999	790	0	0	0
2019/05/17 14:52:00	BASE	4.40	348	4.73	346	-1.9	100	-1.9	23	0	977.7	NA	0.0000		9999	820	0	0	0
2019/05/17 14:53:00	BASE	4.20	349	4.73	346	-1.9	100	-1.9	23	0	977.8	NA	0.0000		9999	750	0	0	0
2019/05/17 14:54:00	BASE	4.01	348	4.73	346	-1.9	100	-1.9	24	0	977.7	NA	0.0000		9999	820	0	0	0
2019/05/17 14:55:00	BASE	3.87	348	4.73	346	-1.9	100	-1.9	25	0	977.7	NA	0.0000		9999	850	0	0	0
2019/05/17 14:56:00	BASE	3.93	351	4.73	346	-1.8	100	-1.8	25	0	977.7	NA	0.0000		9999	850	0	0	0
2019/05/17 14:57:00	BASE	3.91	349	4.73	346	-1.8	100	-1.8	26	0	977.7	NA	0.0000		9999	790	0	0	0
2019/05/17 14:58:00	BASE	3.91	345	4.73	346	-1.8	100	-1.8	27	0	977.7	NA	0.0000		9999	920	0	0	0
2019/05/17 14:59:00	BASE	4.04	352	4.73	346	-1.8	100	-1.8	28	0	977.7	NA	0.0000		9999	980	0	0	0
2019/05/17 15:00:00	BASE	4.21	359	4.94	354	-1.7	100	-1.7	29	0	977.7	NA	0.0000		9999	850	0	0	0
2019/05/17 15:01:00	BASE	4.24	0	4.94	354	-1.7	100	-1.7	30	0	977.6	NA	0.0000		9999	820	0	0	0
2019/05/17 15:02:00	BASE	4.11	358	4.94	354	-1.7	100	-1.7	32	0	977.7	NA	0.0000		9999	890	0	0	0
2019/05/17 15:03:00	BASE	4.17	3	4.94	354	-1.6	100	-1.6	33	0	977.6	NA	0.0000		9999	750	0	0	0
2019/05/17 15:04:00	BASE	4.56	11	5.25	11	-1.6	100	-1.6	33	0	977.6	NA	0.0000		9999	950	0	0	0
2019/05/17 15:05:00	BASE	4.73	14	5.25	11	-1.6	100	-1.6	34	0	977.6	NA	0.0000		9999	920	0	0	0
2019/05/17 15:06:00	BASE	4.41	11	5.25	11	-1.6	100	-1.6	33	0	977.7	NA	0.0000		9999	890	0	0	0
2019/05/17 15:07:00	BASE	4.23	7	5.25	11	-1.6	100	-1.6	33	0	977.6	NA	0.0000		9999	890	0	0	0
2019/05/17 15:08:00	BASE	4.21	9	5.25	11	-1.6	100	-1.6	32	0	977.6	NA	0.0000		9999	820	0	0	0
2019/05/17 15:09:00	BASE	4.17	10	5.25	11	-1.6	100	-1.6	31	0	977.6	NA	0.0000		9999	890	0	0	0
2019/05/17 15:10:00	BASE	4.21	12	5.25	11	-1.7	100	-1.7	31	0	977.6	NA	0.0000		9999	890	0	0	0
2019/05/17 15:11:00	BASE	4.23	16	5.25	11	-1.7	100	-1.7	31	0	977.6	NA	0.0000		9999	850	0	0	0
2019/05/17 15:12:00	BASE	4.00	16	5.25	11	-1.7	100	-1.7	31	0	977.6	NA	0.0000		9999	980	0	0	0
2019/05/17 15:13:00	BASE	3.83	12	5.25	11	-1.8	100	-1.8	31	0	977.6	NA	0.0000		9999	920	0	0	0
2019/05/17 15:14:00	BASE	3.84	13	4.73	11	-1.8	100	-1.8	31	0	977.6	NA	0.0000		9999	820	0	0	0
2019/05/17 15:15:01	BASE	3.85	16	4.58	18	-1.8	100	-1.8	31	0	977.5	NA	0.0000		9999	750	0	0	0
2019/05/17 15:16:00	BASE	3.82	18	4.58	18	-1.8	100	-1.8	31	0	977.6	NA	0.0000		9999	820	0	0	0
2019/05/17 15:17:00	BASE	3.77	16	4.58	18	-1.8	100	-1.8	31	0	977.5	NA	0.0000		9999	820	0	0	0
2019/05/17 15:18:00	BASE	3.81	16	4.58	18	-1.8	100	-1.8	31	0	977.5	NA	0.0000		9999	850	0	0	0
2019/05/17 15:19:00	BASE	3.77	17	4.58	18	-1.8	100	-1.8	32	0	977.5	NA	0.0000		9999	850	0	0	0
2019/05/17 15:20:00	BASE	3.64	17	4.32	20	-1.8	100	-1.8	33	0	977.5	NA	0.0000		9999	820	0	0	0
2019/05/17 15:21:00	BASE	3.64	17	4.12	14	-1.8	100	-1.8	34	0	977.4	NA	0.0000		9999	820	0	0	0
2019/05/17 15:22:00	BASE	3.64	17	4.12	14	-1.8	100	-1.8	35	0	977.4	NA	0.0000		9999	790	1640	0	0
2019/05/17 15:23:00	BASE	3.56	17	4.12	14	-1.9	100	-1.9	36	0	977.4	NA	0.0000		9999	750	1570	0	0
2019/05/17 15:24:00	BASE	3.47	18	4.12	14	-1.9	100	-1.9	37	0	977.4	NA	0.0000		9999	820	1570	0	0
2019/05/17 15:25:00	BASE	3.34	23	4.12	14	-1.9	100	-1.9	37	0	977.4	NA	0.0000		9999	750	1610	0	0
2019/05/17 15:26:00	BASE	3.31	30	4.12	14	-1.9	100	-1.9	37	0	977.4	NA	0.0000		9999	690	1440	0	0
2019/05/17 15:27:00	BASE	3.30	34	4.12	14	-1.9	100	-1.9	36	0	977.4	NA	0.0000		9999	950	0	0	0
2019/05/17 15:28:00	BASE	3.34	35	3.96	13	-1.9	100	-1.9	36	0	977.4	NA	0.0000		9999	980	0	0	0
2019/05/17 15:29:00	BASE	3.57	34	3.96	13	-1.9	100	-1.9	35	0	977.4	NA	0.0000		9999	1020	0	0	0
2019/05/17 15:30:00	BASE	3.60	33	3.96	13	-1.9	100	-1.9	35	0	977.3	NA	0.0000		9999	1020	0	0	0
2019/05/17 15:31:00	BASE	3.34	33	3.96	13	-1.9	100	-1.9	35	0	977.3	NA	0.0000		9999	980	0	0	0
2019/05/17 15:32:00	BASE	3.09	34	3.96	13	-1.9	100	-1.9	35	0	977.3	NA	0.0000		9999	1020	0	0	0
2019/05/17 15:33:00	BASE	3.04	35	3.96	13	-1.9	100	-1.9	35	0	977.3	NA	0.0000		9999	1150	0	0	0
2019/05/17 15:34:00	BASE	3.09	38	3.86	31	-1.9	100	-1.9	36	0	977.2	NA	0.0000		9999	1120	0	0	0
2019/05/17 15:35:00	BASE	3.08	42	3.86	31	-1.9	100	-1.9	37	0	977.2	NA	0.0000		9999	1080	0	0	0
2019/05/17 15:36:00	BASE	2.81	42	3.86	31	-1.9	100	-1.9	38	0	977.1	NA	0.0000		9999	1120	0	0	0
2019/05/17 15:37:00	BASE	2.54	41	3.86	31	-1.9	100	-1.9	38	0	977.1	NA	0.0000		9999	1080	0	0	0
2019/05/17 15:38:00	BASE	2.52	41	3.86	31	-1.9	100	-1.9	39	0	977.1	NA	0.0000		9999	1310	0	0	0
2019/05/17 15:39:00	BASE	2.47	43	3.81	34	-1.9	100	-1.9	39	0	977.0	NA	0.0000		9999	1210	0	0	0
2019/05/17 15:40:00	BASE	2.27	49	3.34	44	-1.9	100	-1.9	39	0	977.0	NA	0.0000		9999	1210	0	0	0
2019/05/17 15:41:00	BASE	2.11	55	3.34	44	-1.9	100	-1.9	39	0	977.0	NA	0.0000		9999	1180	0	0	0
2019/05/17 15:42:00	BASE	2.11	58	3.34	44	-1.9	100	-1.9	39	0	977.0	NA	0.0000		9999	1150	0	0	0
2019/05/17 15:43:00	BASE	2.09	60	3.34	44	-1.9	100	-1.9	38	0	976.9	NA	0.0000		9999	1050	0	0	0
2019/05/17 15:44:00	BASE	2.15	57	3.24	44	-1.9	100	-1.9	38	0	976.8	NA	0.0000		9999	1280	0	0	0
2019/05/17 15:45:00	BASE	2.24	55	2.68	40	-1.9	100	-1.9	37	0	976.8	NA	0.0000		9999	1020	0	0	0
2019/05/17 15:46:00	BASE	2.26	58	2.68	40	-1.9	100	-1.9	37	0	976.9	NA	0.0000		9999	1250	0	0	0
2019/05/17 15:47:00	BASE	2.29	60	2.68	40	-1.9	100	-1.9	36	0	976.8	NA	0.0000		9999	1280	0	0	0
2019/05/17 15:48:00	BASE	2.40	58	2.78	52	-1.9	100	-1.9	36	0	976.9	NA	0.0000		9999	1280	0	0	0
2019/05/17 15:49:00	BASE	2.68	52	3.04	48	-1.9	100	-1.9	35	0	976.9	NA	0.0000		9999	1250	0	0	0
2019/05/17 15:50:00	BASE	2.80	48	3.04	48	-1.9	100	-1.9	34	0	976.9	NA	0.0000		9999	1180	0	0	0
2019/05/17 15:51:00	BASE	2.53	51	3.04	48	-1.9	100	-1.9	33	0	976.9	NA	0.0000		9999	1120	0	0	0
2019/05/17 15:52:00	BASE	2.01	59	3.04	48	-1.9	100	-1.9	33	0	976.8	NA	0.0000		9999	1150	0	0	0
2019/05/17 15:53:00	BASE	1.62	58	3.04	48	-1.9	100	-1.9	33	0	976.8	NA	0.0000		9999	1120	0	0	0
2019/05/17 15:54:00	BASE	1.76	54	3.04	48	-1.9	100	-1.9	32	0	976.8	NA	0.0000		9999	920	0	0	0
2019/05/17 15:55:00	BASE	2.21	55	3.04	48	-1.9	100	-1.9	32	0	976.8	NA	0.0000		9999	890	0	0	0
2019/05/17 15:56:00	BASE	2.26	57	3.04	48	-1.9	100	-1.9	32	0	976.8	NA	0.0000		9999	890	0	0	0
2019/05/17 15:57:00	BASE	2.01	56	3.04	48	-1.9	100	-1.9	32	0	976.8	NA	0.0000		9999	820	0	0	0
2019/05/17 15:58:00	BASE	1.85	57	3.04	48	-1.9	100	-1.9	32	0	976.7	NA	0.0000		9999	790	0	0	0
2019/05/17 15:59:00	BASE	1.87	62	2.98	45	-1.9	100	-1.9	32	0	976.7	NA	0.0000		9999	720	0	0	0
2019/05/17 16:00:00	BASE	1.83	66	2.68	52	-1.9	100	-1.9	33	0	976.7	NA	0.0000		9999	660	0	0	0
2019/05/17 16:01:00	BASE	1.70	69	2.68	52	-1.9	100	-1.9	33	0	976.7	NA	0.0000		9999	660	0	0	0
2019/05/17 16:02:00	BASE	1.58	75	2.68	52	-1.9	100	-1.9	33	0	976.7	NA	0.0000		9999	890	0	0	0
2019/05/17 16:03:00	BASE	1.42	82	2.68	52	-1.9	100	-1.9	34	0	976.7	NA	0.0000		9999	790	0	0	0
2019/05/17 16:04:00	BASE	1.46	87	2.68	52	-1.9	100	-1.9	34	0	976.7	NA	0.0000		9999	720	0	0	0
2019/05/17 16:05:00	BASE	1.52	90	2.37	63	-1.9	100	-1.9	34	0	976.7	NA	0.0000		9999	690	0	0	0
2019/05/17 16:06:00	BASE	1.39	85	2.11	55	-1.9	100	-1.9	34	0	976.7	NA	0.0000		9999	820	0	0	0
2019/05/17 16:07:00	BASE	1.29	86	2.06	63	-1.9	100	-1.9	35	0	976.7	NA	0.0000		9999	790	0	0	0
2019/05/17 16:08:00	BASE	1.22	92	2.06	63	-1.9	100	-1.9	35	0	976.7	NA	0.0000		9999	720	0	0	0
2019/05/17 16:09:00	BASE	0.86	93	1.85	93	-1.9	100	-1.9	35	0	976.7	NA	0.0000		9999	660	0	0	0
2019/05/17 16:10:00	BASE	0.27	94	1.85	93	-1.9	100	-1.9	35	0	976.7	NA	0.0000		9999	1020	0	0	0
2019/05/17 16:11:00	BASE	0.00	93	1.85	93	-1.9	100	-1.9	34	0	976.7	NA	0.0000		9999	950	0	0	0
2019/05/17 16:12:00	BASE	0.00	93	1.85	93	-1.9	100	-1.9	34	0	976.7	NA	0.0000		9999	920	0	0	0
2019/05/17 16:13:00	BASE	0.00	94	1.85	93	-1.9	100	-1.9	33	0	976.7	NA	0.0000		9999	890	0	0	0
2019/05/17 16:14:00	BASE	0.00	94	1.65	100	-1.9	100	-1.9	33	0	976.7	NA	0.0000		9999	920	0	0	0
2019/05/17 16:15:00	BASE	0.00	94	1.39	93	-1.9	100	-1.9	32	0	976.7	NA	0.0000		9999	920	0	0	0
2019/05/17 16:16:00	BASE	0.00	94	1.39	93	-1.9	100	-1.9	32	0	976.6	NA	0.0000		9999	920	0	0	0
2019/05/17 16:17:00	BASE	0.00	93	1.34	93	-1.8	100	-1.8	31	0	976.6	NA	0.0000		9999	890	0	0	0
2019/05/17 16:18:00	BASE	0.00	106	1.18	93	-1.8	100	-1.8	30	0	976.6	NA	0.0000		9999	850	0	0	0
2019/05/17 16:19:00	BASE	0.00	133	M	M	-1.8	100	-1.8	30	0	976.6	NA	0.0000		9999	850	0	0	0
2019/05/17 16:20:00	BASE	0.00	146	M	M	-1.8	100	-1.8	29	0	976.6	NA	0.0000		9999	890	0	0	0
2019/05/17 16:21:00	BASE	0.00	136	M	M	-1.8	100	-1.8	29	0	976.6	NA	0.0000		9999	850	0	0	0
2019/05/17 16:22:00	BASE	0.00	115	M	M	-1.8	100	-1.8	29	0	976.6	NA	0.0000		9999	920	0	0	0
2019/05/17 16:23:00	BASE	0.00	102	M	M	-1.8	100	-1.8	29	0	976.6	NA	0.0000		9999	890	0	0	0
2019/05/17 16:24:00	BASE	0.00	101	M	M	-1.8	100	-1.8	30	0	976.6	NA	0.0000		9999	890	0	0	0
2019/05/17 16:25:00	BASE	0.00	107	M	M	-1.8	100	-1.8	30	0	976.6	NA	0.0000		9999	950	0	0	0
2019/05/17 16:26:00	BASE	0.00	110	M	M	-1.8	100	-1.8	31	0	976.6	NA	0.0000		9999	1020	0	0	0
2019/05/17 16:27:00	BASE	0.00	122	M	M	-1.8	100	-1.8	31	0	976.6	NA	0.0000		9999	890	0	0	0
2019/05/17 16:28:00	BASE	0.00	249	M	M	-1.8	100	-1.8	31	0	976.5	NA	0.0000		9999	890	0	0	0
2019/05/17 16:29:00	BASE	0.00	272	M	M	-1.8	100	-1.8	31	0	976.5	NA	0.0000		9999	820	0	0	0
2019/05/17 16:30:00	BASE	0.00	257	M	M	-1.8	100	-1.8	31	0	976.5	NA	0.0000		9999	750	0	0	0
2019/05/17 16:31:00	BASE	0.00	249	M	M	-1.8	100	-1.8	32	0	976.4	NA	0.0000		9999	1020	0	0	0
2019/05/17 16:32:00	BASE	0.00	250	M	M	-1.8	100	-1.8	32	0	976.4	NA	0.0000		9999	1120	0	0	0
2019/05/17 16:33:00	BASE	0.00	250	M	M	-1.8	100	-1.8	32	0	976.4	NA	0.0000		9999	1050	0	0	0
2019/05/17 16:34:00	BASE	0.00	250	M	M	-1.8	100	-1.8	31	0	976.4	NA	0.0000		9999	1150	0	0	0
2019/05/17 16:35:00	BASE	0.00	250	M	M	-1.8	100	-1.8	32	0	976.4	NA	0.0000		9999	1250	0	0	0
2019/05/17 16:36:00	BASE	0.00	269	M	M	-1.8	100	-1.8	32	0	976.4	NA	0.0000		9999	1280	0	0	0
2019/05/17 16:37:00	BASE	0.00	344	M	M	-1.8	100	-1.8	33	0	976.3	NA	0.0000		9999	1210	0	0	0
2019/05/17 16:38:00	BASE	0.23	16	1.18	41	-1.8	100	-1.8	33	0	976.4	NA	0.0000		9999	1250	0	0	0
2019/05/17 16:39:00	BASE	0.94	36	1.65	50	-1.8	100	-1.8	33	0	976.4	NA	0.0000		9999	1150	0	0	0
2019/05/17 16:40:00	BASE	1.58	49	1.80	54	-1.7	100	-1.7	34	0	976.3	NA	0.0000		9999	1210	0	0	0
2019/05/17 16:41:00	BASE	1.72	54	1.80	54	-1.7	100	-1.7	35	0	976.2	NA	0.0000		9999	1180	0	0	0
2019/05/17 16:42:00	BASE	1.59	54	1.80	54	-1.7	100	-1.7	35	0	976.2	NA	0.0000		9999	1080	0	0	0
2019/05/17 16:43:00	BASE	1.36	53	1.80	54	-1.7	100	-1.7	35	0	976.2	NA	0.0000		9999	1080	0	0	0
2019/05/17 16:44:00	BASE	0.89	55	1.80	54	-1.7	100	-1.7	35	0	976.2	NA	0.0000		9999	1050	0	0	0
2019/05/17 16:45:00	BASE	0.59	58	1.80	54	-1.8	100	-1.8	34	0	976.2	NA	0.0000		9999	980	0	0	0
2019/05/17 16:46:00	BASE	0.87	62	1.80	54	-1.8	100	-1.8	33	0	976.2	NA	0.0000		9999	980	0	0	0
2019/05/17 16:47:00	BASE	1.18	66	1.80	54	-1.8	100	-1.8	33	0	976.2	NA	0.0000		9999	980	0	0	0
2019/05/17 16:48:00	BASE	1.37	68	1.80	54	-1.8	100	-1.8	32	0	976.2	NA	0.0000		9999	950	0	0	0
2019/05/17 16:49:00	BASE	1.58	69	1.95	69	-1.8	100	-1.8	31	0	976.2	NA	0.0000		9999	980	0	0	0
2019/05/17 16:50:00	BASE	1.82	73	2.16	76	-1.8	100	-1.8	30	0	976.2	NA	0.0000		9999	980	0	0	0
2019/05/17 16:51:00	BASE	2.06	81	2.52	88	-1.8	100	-1.8	29	0	976.2	NA	0.0000		9999	920	0	0	0
2019/05/17 16:52:00	BASE	1.84	83	2.52	88	-1.8	100	-1.8	28	0	976.2	NA	0.0000		9999	850	0	0	0
2019/05/17 16:53:00	BASE	1.66	82	2.52	88	-1.8	100	-1.8	28	0	976.2	NA	0.0000		9999	790	0	0	0
2019/05/17 16:54:00	BASE	2.09	76	2.88	54	-1.8	100	-1.8	28	0	976.2	NA	0.0000		9999	790	0	0	0
2019/05/17 16:55:00	BASE	2.39	66	2.88	54	-1.8	100	-1.8	29	0	976.2	NA	0.0000		9999	790	0	0	0
2019/05/17 16:56:00	BASE	2.44	67	2.88	54	-1.8	100	-1.8	30	0	976.2	NA	0.0000		9999	820	0	0	0
2019/05/17 16:57:00	BASE	2.33	67	2.88	54	-1.9	100	-1.9	32	0	976.2	NA	0.0000		9999	660	0	0	0
2019/05/17 16:58:00	BASE	2.05	66	2.88	54	-1.9	100	-1.9	34	0	976.1	NA	0.0000		9999	660	0	0	0
2019/05/17 16:59:00	BASE	1.80	70	2.88	54	-1.9	100	-1.9	36	0	976.0	NA	0.0000		9999	1050	0	0	0
2019/05/17 17:00:00	BASE	1.73	75	2.88	54	-1.9	100	-1.9	38	0	976.0	NA	0.0000		9999	1020	0	0	0
2019/05/17 17:01:00	BASE	1.71	80	2.88	54	-1.9	100	-1.9	39	0	976.0	NA	0.0000		9999	790	0	0	0
2019/05/17 17:02:00	BASE	1.61	85	2.88	54	-1.9	100	-1.9	40	0	976.0	NA	0.0000		9999	660	0	0	0
2019/05/17 17:03:00	BASE	1.50	90	2.88	54	-1.9	100	-1.9	40	0	976.0	NA	0.0000		9999	620	0	0	0
2019/05/17 17:04:00	BASE	1.51	88	2.62	65	-1.9	100	-1.9	40	0	976.0	NA	0.0000		9999	750	0	0	0
2019/05/17 17:05:00	BASE	1.57	82	2.62	65	-1.9	100	-1.9	40	0	976.0	NA	0.0000		9999	750	0	0	0
2019/05/17 17:06:00	BASE	1.65	80	2.26	66	-1.9	100	-1.9	39	0	976.0	NA	0.0000		9999	750	0	0	0
2019/05/17 17:07:00	BASE	1.76	77	2.16	62	-1.9	100	-1.9	38	0	976.0	NA	0.0000		9999	560	0	0	0
2019/05/17 17:08:00	BASE	1.64	69	2.01	76	-1.9	100	-1.9	35	0	976.0	NA	0.0000		9999	560	0	0	0
2019/05/17 17:09:00	BASE	1.56	61	2.01	76	-1.9	100	-1.9	32	0	976.0	NA	0.0000		9999	590	0	0	0
2019/05/17 17:10:00	BASE	1.61	52	1.90	73	-1.9	100	-1.9	30	0	975.9	NA	0.0000		9999	950	0	0	0
2019/05/17 17:11:00	BASE	1.55	45	1.90	73	-1.9	100	-1.9	28	0	976.0	NA	0.0000		9999	820	0	0	0
2019/05/17 17:12:00	BASE	1.43	40	1.90	73	-1.9	100	-1.9	26	0	976.0	NA	0.0000		9999	750	0	0	0
2019/05/17 17:13:00	BASE	1.23	34	1.90	73	-1.9	100	-1.9	26	0	976.0	NA	0.0000		9999	660	0	0	0
2019/05/17 17:14:00	BASE	1.11	27	1.90	73	-1.9	100	-1.9	25	0	976.0	NA	0.0000		9999	590	0	0	0
2019/05/17 17:15:00	BASE	0.91	21	1.90	73	-1.9	100	-1.9	25	0	976.0	NA	0.0000		9999	520	0	0	0
2019/05/17 17:16:00	BASE	0.37	16	1.90	73	-1.9	100	-1.9	25	0	975.9	NA	0.0000		9999	430	0	0	0
2019/05/17 17:17:00	BASE	0.00	15	1.75	49	-1.9	100	-1.9	25	0	975.9	NA	0.0000		9999	430	0	0	0
2019/05/17 17:18:00	BASE	0.00	14	1.75	49	-1.9	100	-1.9	24	0	975.9	NA	0.0000		9999	460	0	0	0
2019/05/17 17:19:00	BASE	0.00	10	1.70	44	-1.9	100	-1.9	24	0	975.9	NA	0.0000		9999	460	0	0	0
2019/05/17 17:20:00	BASE	0.00	7	1.70	44	-1.9	100	-1.9	24	0	975.9	NA	0.0000		9999	520	0	0	0
2019/05/17 17:21:00	BASE	0.00	7	1.44	31	-1.9	100	-1.9	24	0	975.9	NA	0.0000		9999	660	0	0	0
2019/05/17 17:22:00	BASE	0.00	7	1.44	31	-1.9	100	-1.9	24	0	975.9	NA	0.0000		9999	390	1050	0	0
2019/05/17 17:23:00	BASE	0.00	7	1.29	23	-1.9	100	-1.9	24	0	975.9	NA	0.0000		7000	330	0	0	0
2019/05/17 17:24:00	BASE	0.00	7	1.13	14	-1.9	100	-1.9	24	0	975.8	NA	0.0000		6000	390	0	0	0
2019/05/17 17:25:00	BASE	0.00	6	M	M	-1.9	100	-1.9	24	0	975.8	NA	0.0000	UP BR	8000	390	0	0	0
2019/05/17 17:26:00	BASE	0.00	3	M	M	-1.9	100	-1.9	24	0	975.8	NA	0.0000	UP BR	8000	360	1080	0	0
2019/05/17 17:27:00	BASE	0.00	8	M	M	-1.9	100	-1.9	24	0	975.8	NA	0.0000	UP BR	8000	300	1150	0	0
2019/05/17 17:28:00	BASE	0.00	61	M	M	-1.9	100	-1.9	24	0	975.8	NA	0.0000	UP BR	6000	330	1120	0	0
2019/05/17 17:29:00	BASE	0.00	97	M	M	-1.9	100	-1.9	24	0	975.7	NA	0.0000	UP BR	5000	300	0	0	0
2019/05/17 17:30:00	BASE	0.00	88	M	M	-1.9	100	-1.9	25	0	975.7	NA	0.0000	UP BR	4300	300	1020	0	0
2019/05/17 17:31:00	BASE	0.00	90	M	M	-1.9	100	-1.9	25	0	975.6	NA	0.0000	UP BR	3900	330	1120	0	0
2019/05/17 17:32:00	BASE	0.00	98	M	M	-2.0	100	-2.0	25	0	975.6	NA	0.0000	UP BR	4600	360	0	0	0
2019/05/17 17:33:00	BASE	0.00	97	M	M	-2.0	100	-2.0	26	0	975.6	NA	0.0000	UP BR	6000	430	1150	0	0
2019/05/17 17:34:00	BASE	0.00	99	M	M	-2.0	100	-2.0	27	0	975.6	NA	0.0000	UP BR	8000	390	1120	0	0
2019/05/17 17:35:00	BASE	0.36	94	1.95	83	-2.0	100	-2.0	27	0	975.6	NA	0.0000	UP BR	8000	390	1080	0	0
2019/05/17 17:36:00	BASE	1.66	83	2.98	71	-2.0	100	-2.0	28	0	975.6	NA	0.0000	UP BR	8000	560	1120	0	0
2019/05/17 17:37:00	BASE	2.66	84	3.09	88	-2.0	100	-2.0	28	0	975.6	NA	0.0000	UP BR	9000	690	0	0	0
2019/05/17 17:38:00	BASE	2.81	80	3.76	67	-2.1	100	-2.1	27	0	975.5	NA	0.0000	UP BR	9999	720	0	0	0
2019/05/17 17:39:00	BASE	2.99	72	3.76	67	-2.2	100	-2.2	27	0	975.4	NA	0.0000	UP BR	9999	590	0	0	0
2019/05/17 17:40:00	BASE	2.97	81	3.76	67	-2.2	100	-2.2	26	0	975.4	NA	0.0000	UP BR	9999	430	0	0	0
2019/05/17 17:41:00	BASE	2.51	85	3.76	67	-2.3	100	-2.3	26	0	975.4	NA	0.0000	UP BR	9999	360	1150	0	0
2019/05/17 17:42:00	BASE	2.23	84	3.76	67	-2.3	100	-2.3	26	0	975.3	NA	0.0000	UP BR	9999	360	0	0	0
2019/05/17 17:43:00	BASE	2.82	84	3.86	88	-2.4	100	-2.4	25	0	975.4	NA	0.0000	BR	9999	390	0	0	0
2019/05/17 17:44:00	BASE	3.51	84	3.96	82	-2.4	100	-2.4	24	0	975.4	NA	0.0000		9999	560	0	0	0
2019/05/17 17:45:00	BASE	3.49	90	3.96	82	-2.4	100	-2.4	23	0	975.3	NA	0.0000		9999	490	0	0	0
2019/05/17 17:46:00	BASE	3.22	98	3.96	82	-2.4	100	-2.4	22	0	975.3	NA	0.0000		9999	460	0	0	0
2019/05/17 17:47:00	BASE	3.11	100	3.96	82	-2.4	100	-2.4	21	0	975.3	NA	0.0000		9999	460	1210	0	0
2019/05/17 17:48:00	BASE	3.14	97	3.96	82	-2.5	100	-2.5	20	0	975.3	NA	0.0000		9000	390	0	0	0
2019/05/17 17:49:00	BASE	3.04	93	3.96	82	-2.5	100	-2.5	19	0	975.2	NA	0.0000		9000	430	0	0	0
2019/05/17 17:50:00	BASE	2.99	90	3.96	82	-2.5	100	-2.5	19	0	975.2	NA	0.0000		9000	390	1180	0	0
2019/05/17 17:51:00	BASE	3.13	89	3.96	82	-2.5	100	-2.5	19	0	975.2	NA	0.0000	UP BR	9000	360	1180	0	0
2019/05/17 17:52:00	BASE	2.85	91	3.96	82	-2.5	100	-2.5	19	0	975.1	NA	0.0000	UP BR	9000	330	1150	0	0
2019/05/17 17:53:00	BASE	2.92	93	3.96	82	-2.5	100	-2.5	19	0	975.1	NA	0.0000	UP BR	9000	330	0	0	0
2019/05/17 17:54:00	BASE	3.19	96	3.76	86	-2.5	100	-2.5	20	0	975.1	NA	0.0000	UP BR	9000	360	0	0	0
2019/05/17 17:55:00	BASE	3.13	99	3.55	89	-2.5	100	-2.5	20	0	975.1	NA	0.0000	UP BR	9000	330	0	0	0
2019/05/17 17:56:00	BASE	3.31	102	4.22	108	-2.5	100	-2.5	21	0	975.1	NA	0.0000	UP BR	6000	360	0	0	0
2019/05/17 17:57:00	BASE	3.48	103	4.22	108	-2.6	100	-2.6	21	0	975.1	NA	0.0000	UP BR	4700	360	0	0	0
2019/05/17 17:58:00	BASE	3.54	97	4.22	108	-2.6	100	-2.6	21	0	975.1	NA	0.0000	UP BR	5000	360	1080	0	0
2019/05/17 17:59:00	BASE	3.60	90	4.22	108	-2.6	100	-2.6	21	0	975.1	NA	0.0000	UP BR	5000	300	0	0	0
2019/05/17 18:00:00	BASE	3.53	89	4.22	108	-2.7	100	-2.7	21	0	975.2	NA	0.0000	UP BR	4400	360	0	0	0
2019/05/17 18:01:00	BASE	3.67	89	4.22	108	-2.7	100	-2.7	21	0	975.1	NA	0.0000	UP BR	5000	360	1150	0	0
2019/05/17 18:02:00	BASE	3.71	94	4.22	108	-2.6	100	-2.6	20	0	975.1	NA	0.0000	UP BR	5000	330	0	0	0
2019/05/17 18:03:00	BASE	3.60	90	4.22	108	-2.6	100	-2.6	20	0	975.1	NA	0.0000	UP BR	6000	330	0	0	0
2019/05/17 18:04:00	BASE	3.58	88	4.22	108	-2.6	100	-2.6	20	0	975.1	NA	0.0000	UP BR	7000	330	1150	0	0
2019/05/17 18:05:00	BASE	3.54	98	4.22	108	-2.5	100	-2.5	20	0	975.0	NA	0.0000	UP BR	7000	360	1180	0	0
2019/05/17 18:06:00	BASE	3.44	102	4.17	119	-2.5	100	-2.5	19	0	974.9	NA	0.0000	UP BR	7000	360	1120	0	0
2019/05/17 18:07:00	BASE	3.31	100	4.06	79	-2.5	100	-2.5	19	0	974.9	NA	0.0000	UP BR	7000	360	0	0	0
2019/05/17 18:08:00	BASE	3.27	90	4.06	79	-2.5	100	-2.5	19	0	974.9	NA	0.0000	UP BR	7000	360	0	0	0
2019/05/17 18:09:00	BASE	3.03	80	4.06	79	-2.5	100	-2.5	18	0	974.9	NA	0.0000	UP BR	7000	360	0	0	0
2019/05/17 18:10:00	BASE	2.58	78	4.06	79	-2.5	100	-2.5	18	0	974.9	NA	0.0000	UP BR	7000	390	1020	0	0
2019/05/17 18:11:00	BASE	2.37	79	4.06	79	-2.5	100	-2.5	18	0	974.9	NA	0.0000	UP BR	7000	490	0	0	0
2019/05/17 18:12:00	BASE	2.52	77	4.06	79	-2.5	100	-2.5	17	0	975.0	NA	0.0000	UP BR	8000	660	0	0	0
2019/05/17 18:13:00	BASE	2.42	78	3.81	104	-2.5	100	-2.5	17	0	974.9	NA	0.0000	UP BR	9999	690	0	0	0
2019/05/17 18:14:00	BASE	2.37	80	3.81	104	-2.5	100	-2.5	16	0	974.9	NA	0.0000	BR	9999	720	0	0	0
2019/05/17 18:15:00	BASE	2.42	82	3.65	99	-2.5	100	-2.5	16	0	974.9	NA	0.0000	BR	9999	660	0	0	0
2019/05/17 18:16:00	BASE	2.28	81	3.65	99	-2.5	100	-2.5	15	0	974.8	NA	0.0000	BR	9999	590	0	0	0
2019/05/17 18:17:00	BASE	2.17	81	3.45	81	-2.5	100	-2.5	14	0	974.8	NA	0.0000	BR	9999	590	0	0	0
2019/05/17 18:18:00	BASE	2.23	76	3.14	83	-2.5	100	-2.5	13	0	974.8	NA	0.0000	BR	9999	560	1080	0	0
2019/05/17 18:19:00	BASE	2.51	71	2.93	76	-2.5	100	-2.5	13	0	974.8	NA	0.0000	BR	9999	560	1120	0	0
2019/05/17 18:20:00	BASE	2.83	70	3.19	74	-2.5	100	-2.5	12	0	974.8	NA	0.0000		9999	520	0	0	0
2019/05/17 18:21:00	BASE	2.97	69	3.29	68	-2.4	100	-2.4	11	0	974.8	NA	0.0000		9999	980	0	0	0
2019/05/17 18:22:00	BASE	3.00	71	3.29	68	-2.4	100	-2.4	11	0	974.7	NA	0.0000		9999	890	0	0	0
2019/05/17 18:23:00	BASE	2.82	73	3.29	68	-2.4	100	-2.4	10	0	974.7	NA	0.0000		9999	820	0	0	0
2019/05/17 18:24:00	BASE	2.55	70	3.29	68	-2.4	100	-2.4	10	0	974.7	NA	0.0000		9999	890	0	0	0
2019/05/17 18:25:00	BASE	2.34	71	3.29	68	-2.4	100	-2.4	9	0	974.7	NA	0.0000		9999	920	0	0	0
2019/05/17 18:26:00	BASE	2.31	75	3.29	68	-2.4	100	-2.4	9	0	974.7	NA	0.0000		9999	850	0	0	0
2019/05/17 18:27:00	BASE	2.58	76	3.29	65	-2.3	100	-2.3	9	0	974.7	NA	0.0000		9999	820	0	0	0
2019/05/17 18:28:00	BASE	2.99	73	3.55	76	-2.3	100	-2.3	9	0	974.7	NA	0.0000		9999	790	0	0	0
2019/05/17 18:29:00	BASE	3.37	65	3.96	58	-2.3	100	-2.3	8	0	974.7	NA	0.0000		9999	820	0	0	0
2019/05/17 18:30:00	BASE	3.23	61	3.96	58	-2.3	100	-2.3	8	0	974.7	NA	0.0000		9999	850	0	0	0
2019/05/17 18:31:00	BASE	3.03	61	3.96	58	-2.3	100	-2.3	8	0	974.6	NA	0.0000		9999	850	0	0	0
2019/05/17 18:32:00	BASE	3.38	54	3.96	58	-2.2	100	-2.2	7	0	974.6	NA	0.0000		9999	850	0	0	0
2019/05/17 18:33:00	BASE	3.71	51	3.96	58	-2.2	100	-2.2	7	0	974.6	NA	0.0000		9999	790	0	0	0
2019/05/17 18:34:00	BASE	3.74	48	3.96	58	-2.1	100	-2.1	7	0	974.6	NA	0.0000		9999	790	0	0	0
2019/05/17 18:35:00	BASE	3.65	45	3.96	58	-2.1	100	-2.1	6	0	974.5	NA	0.0000		9999	790	0	0	0
2019/05/17 18:36:00	BASE	3.52	44	3.96	58	-2.1	100	-2.1	6	0	974.5	NA	0.0000		9999	790	0	0	0
2019/05/17 18:37:00	BASE	3.30	43	3.96	58	-2.1	100	-2.1	6	0	974.6	NA	0.0000		9999	820	0	0	0
2019/05/17 18:38:00	BASE	3.04	41	3.96	58	-2.1	100	-2.1	6	0	974.6	NA	0.0000		9999	820	0	0	0
2019/05/17 18:39:00	BASE	3.07	37	3.91	46	-2.1	100	-2.1	5	0	974.6	NA	0.0000		9999	790	0	0	0
2019/05/17 18:40:00	BASE	3.25	36	3.91	46	-2.1	100	-2.1	5	0	974.6	NA	0.0000		9999	790	0	0	0
2019/05/17 18:41:00	BASE	3.30	37	3.91	46	-2.1	100	-2.1	5	0	974.6	NA	0.0000		9999	750	0	0	0
2019/05/17 18:42:00	BASE	3.32	35	3.91	46	-2.1	100	-2.1	5	0	974.6	NA	0.0000		9999	720	0	0	0
2019/05/17 18:43:00	BASE	3.42	29	4.58	28	-2.1	100	-2.1	5	0	974.7	NA	0.0000		9999	720	0	0	0
2019/05/17 18:44:00	BASE	4.00	25	4.84	31	-2.1	100	-2.1	5	0	974.7	NA	0.0000		9999	0	0	0	620
2019/05/17 18:45:00	BASE	4.45	23	4.84	31	-2.2	100	-2.2	5	0	974.7	NA	0.0000		9999	0	0	0	520
2019/05/17 18:46:00	BASE	4.33	19	4.84	31	-2.3	100	-2.3	6	0	974.7	NA	0.0000		9999	0	0	0	850
2019/05/17 18:47:00	BASE	4.02	13	4.84	31	-2.4	100	-2.4	5	0	974.7	NA	0.0000		9999	790	0	0	0
2019/05/17 18:48:00	BASE	3.88	8	4.84	31	-2.4	100	-2.4	5	0	974.7	NA	0.0000		9999	750	0	0	0
2019/05/17 18:49:00	BASE	3.93	9	4.84	31	-2.5	100	-2.5	5	0	974.7	NA	0.0000		9999	13980	0	0	0
2019/05/17 18:50:00	BASE	4.07	10	4.84	31	-2.4	100	-2.4	5	0	974.7	NA	0.0000		9999	14040	0	0	0
2019/05/17 18:51:00	BASE	4.11	1	4.84	31	-2.4	100	-2.4	5	0	974.7	NA	0.0000		9999	13780	0	0	0
2019/05/17 18:52:00	BASE	4.07	349	4.84	31	-2.4	100	-2.4	5	0	974.7	NA	0.0000		9999	13850	0	0	0
2019/05/17 18:53:00	BASE	4.45	346	5.76	351	-2.3	100	-2.3	5	0	974.6	NA	0.0000		9999	13810	0	0	0
2019/05/17 18:54:00	BASE	5.11	346	5.76	351	-2.3	100	-2.3	4	0	974.6	NA	0.0000		9999	13910	0	0	0
2019/05/17 18:55:00	BASE	5.29	343	5.76	337	-2.4	100	-2.4	4	0	974.6	NA	0.0000		9999	13620	0	0	0
2019/05/17 18:56:00	BASE	4.90	341	5.76	337	-2.4	100	-2.4	4	0	974.5	NA	0.0000		9999	13620	0	0	0
2019/05/17 18:57:00	BASE	4.37	340	5.76	337	-2.4	100	-2.4	4	0	974.5	NA	0.0000		9999	13850	0	0	0
2019/05/17 18:58:00	BASE	4.32	342	5.76	337	-2.5	100	-2.5	3	0	974.5	NA	0.0000		9999	13750	0	0	0
2019/05/17 18:59:00	BASE	4.70	342	5.76	337	-2.5	100	-2.5	3	0	974.5	NA	0.0000		9999	13390	0	0	0
2019/05/17 19:00:00	BASE	4.62	340	5.76	337	-2.5	100	-2.5	3	0	974.4	NA	0.0000		9999	13620	0	0	0
2019/05/17 19:01:00	BASE	4.55	337	5.76	337	-2.5	100	-2.5	3	0	974.3	NA	0.0000		9999	13520	0	0	0
2019/05/17 19:02:00	BASE	4.52	338	5.76	337	-2.5	100	-2.5	3	0	974.3	NA	0.0000		9999	13390	0	0	0
2019/05/17 19:03:00	BASE	4.04	345	5.76	337	-2.5	100	-2.5	3	0	974.3	NA	0.0000		9999	13220	0	0	0
2019/05/17 19:04:00	BASE	3.69	355	5.76	337	-2.5	100	-2.5	3	0	974.3	NA	0.0000		9999	13620	0	0	0
2019/05/17 19:05:00	BASE	3.80	355	5.25	341	-2.5	100	-2.5	2	0	974.2	NA	0.0000		9999	13350	0	0	0
2019/05/17 19:06:00	BASE	3.78	348	5.25	341	-2.5	100	-2.5	2	0	974.2	NA	0.0000		9999	13480	0	0	0
2019/05/17 19:07:00	BASE	3.32	348	5.25	341	-2.5	100	-2.5	2	0	974.2	NA	0.0000		9999	13710	0	0	0
2019/05/17 19:08:00	BASE	3.05	349	5.25	341	-2.5	100	-2.5	2	0	974.2	NA	0.0000		9999	13320	0	0	0
2019/05/17 19:09:00	BASE	2.91	350	5.25	341	-2.5	100	-2.5	2	0	974.2	NA	0.0000		9999	13160	0	0	0
2019/05/17 19:10:00	BASE	2.76	350	5.04	337	-2.5	100	-2.5	2	0	974.2	NA	0.0000		9999	13620	0	0	0
2019/05/17 19:11:00	BASE	2.92	344	4.99	336	-2.4	100	-2.4	2	0	974.2	NA	0.0000		9999	13320	0	0	0
2019/05/17 19:12:00	BASE	2.86	341	4.27	353	-2.4	100	-2.4	2	0	974.1	NA	0.0000		9999	13550	0	0	0
2019/05/17 19:13:00	BASE	2.48	341	4.27	353	-2.4	100	-2.4	2	0	974.2	NA	0.0000		9999	13350	0	0	0
2019/05/17 19:14:00	BASE	2.23	346	4.27	353	-2.4	100	-2.4	1	0	974.2	NA	0.0000		9999	13190	0	0	0
2019/05/17 19:15:00	BASE	2.08	344	3.81	352	-2.4	100	-2.4	1	0	974.2	NA	0.0000		9999	13350	0	0	0
2019/05/17 19:16:00	BASE	1.86	343	3.45	348	-2.4	100	-2.4	1	0	974.2	NA	0.0000		9999	13390	0	0	0
2019/05/17 19:17:00	BASE	1.56	348	3.45	348	-2.4	100	-2.4	1	0	974.2	NA	0.0000		9999	13160	0	0	0
2019/05/17 19:18:00	BASE	1.43	354	3.40	341	-2.4	100	-2.4	1	0	974.1	NA	0.0000		9999	13120	0	0	0
2019/05/17 19:19:00	BASE	1.37	359	3.40	341	-2.4	100	-2.4	1	0	974.1	NA	0.0000		9999	13060	0	0	0
2019/05/17 19:20:00	BASE	1.25	1	3.40	341	-2.4	100	-2.4	1	0	974.1	NA	0.0000		9999	12760	0	0	0
2019/05/17 19:21:00	BASE	1.02	1	2.98	338	-2.4	100	-2.4	1	0	974.1	NA	0.0000		9999	12370	0	0	0
2019/05/17 19:22:00	BASE	0.69	10	2.52	339	-2.4	100	-2.4	1	0	974.1	NA	0.0000		9999	13030	0	0	0
2019/05/17 19:23:00	BASE	0.66	16	2.31	355	-2.4	100	-2.4	1	0	974.1	NA	0.0000		9999	12070	0	0	0
2019/05/17 19:24:00	BASE	0.38	7	2.26	345	-2.4	100	-2.4	1	0	974.1	NA	0.0000		9999	0	0	0	0
2019/05/17 19:25:00	BASE	0.00	357	1.95	351	-2.4	100	-2.4	1	0	974.0	NA	0.0000		9999	12010	0	0	0
2019/05/17 19:26:00	BASE	0.00	353	1.65	360	-2.4	100	-2.4	1	0	974.1	NA	0.0000		9999	12860	0	0	0
2019/05/17 19:27:00	BASE	0.00	353	1.65	360	-2.4	100	-2.4	1	0	974.1	NA	0.0000		9999	12500	0	0	0
2019/05/17 19:28:00	BASE	0.00	353	1.39	360	-2.3	100	-2.3	1	0	974.1	NA	0.0000		9999	0	0	0	0
2019/05/17 19:29:00	BASE	0.00	357	1.34	353	-2.3	100	-2.3	1	0	974.1	NA	0.0000		9999	750	0	0	0
2019/05/17 19:30:00	BASE	0.00	15	1.34	353	-2.3	100	-2.3	1	0	974.1	NA	0.0000		9999	750	0	0	0
2019/05/17 19:31:00	BASE	0.00	29	1.29	24	-2.3	100	-2.3	1	0	974.1	NA	0.0000		9999	750	0	0	0
2019/05/17 19:32:00	BASE	0.00	29	1.18	16	-2.3	100	-2.3	1	0	974.1	NA	0.0000		9999	720	0	0	0
2019/05/17 19:33:00	BASE	0.00	28	M	M	-2.3	100	-2.3	0	0	974.1	NA	0.0000		9999	720	0	0	0
2019/05/17 19:34:00	BASE	0.00	26	M	M	-2.3	100	-2.3	0	0	974.1	NA	0.0000		9999	720	0	0	0
2019/05/17 19:35:00	BASE	0.00	25	M	M	-2.3	100	-2.3	0	0	974.1	NA	0.0000		9999	720	0	0	0
2019/05/17 19:36:00	BASE	0.41	23	1.18	22	-2.3	100	-2.3	0	0	974.1	NA	0.0000		9999	690	0	0	0
2019/05/17 19:37:00	BASE	1.05	21	1.44	9	-2.3	100	-2.3	0	0	974.1	NA	0.0000		9999	690	0	0	0
2019/05/17 19:38:00	BASE	1.15	14	1.44	8	-2.3	100	-2.3	0	0	974.1	NA	0.0000		9999	660	0	0	0
2019/05/17 19:39:00	BASE	1.22	13	1.65	17	-2.3	100	-2.3	0	0	974.1	NA	0.0000		9999	690	0	0	0
2019/05/17 19:40:00	BASE	1.40	17	1.65	17	-2.3	100	-2.3	0	0	974.0	NA	0.0000		9999	660	0	0	0
2019/05/17 19:41:00	BASE	1.30	20	1.65	17	-2.3	100	-2.3	0	0	974.0	NA	0.0000		9999	660	0	0	0
2019/05/17 19:42:00	BASE	0.92	30	1.65	17	-2.3	100	-2.3	0	0	973.9	NA	0.0000		9999	660	0	0	0
2019/05/17 19:43:00	BASE	0.74	42	1.65	17	-2.3	100	-2.3	0	0	973.9	NA	0.0000		9999	690	0	0	0
2019/05/17 19:44:00	BASE	1.13	50	1.65	17	-2.3	100	-2.3	0	0	973.8	NA	0.0000		9999	0	0	0	0
2019/05/17 19:45:00	BASE	1.67	59	2.21	66	-2.3	100	-2.3	0	0	973.7	NA	0.0000		9999	0	0	0	0
2019/05/17 19:46:00	BASE	1.95	62	2.31	57	-2.3	100	-2.3	0	0	973.7	NA	0.0000		9999	0	0	0	0
2019/05/17 19:47:00	BASE	2.12	60	2.52	63	-2.3	100	-2.3	0	0	973.7	NA	0.0000		9999	0	0	0	0
2019/05/17 19:48:00	BASE	2.26	60	2.52	63	-2.3	100	-2.3	0	0	973.7	NA	0.0000		9999	0	0	0	0
2019/05/17 19:49:00	BASE	2.31	62	2.68	67	-2.3	100	-2.3	0	0	973.7	NA	0.0000		9999	0	0	0	0
2019/05/17 19:50:00	BASE	2.61	68	3.14	70	-2.3	100	-2.3	0	0	973.7	NA	0.0000		9999	0	0	0	660
2019/05/17 19:51:00	BASE	2.79	73	3.14	70	-2.3	100	-2.3	0	0	973.7	NA	0.0000		9999	720	0	0	0
2019/05/17 19:52:00	BASE	2.59	71	3.14	70	-2.3	100	-2.3	0	0	973.7	NA	0.0000		9999	720	0	0	0
2019/05/17 19:53:00	BASE	2.31	70	3.14	70	-2.3	100	-2.3	0	0	973.6	NA	0.0000		9999	750	0	0	0
2019/05/17 19:54:00	BASE	2.13	74	3.14	70	-2.3	100	-2.3	0	0	973.6	NA	0.0000		9999	750	0	0	0
2019/05/17 19:55:00	BASE	2.12	77	3.14	70	-2.3	100	-2.3	0	0	973.6	NA	0.0000		9999	750	0	0	0
2019/05/17 19:56:00	BASE	2.31	79	3.14	70	-2.3	100	-2.3	0	0	973.6	NA	0.0000		9999	750	0	0	0
2019/05/17 19:57:00	BASE	2.57	83	3.14	70	-2.4	100	-2.4	0	0	973.5	NA	0.0000		9999	750	0	0	0
2019/05/17 19:58:00	BASE	2.78	88	3.14	70	-2.4	100	-2.4	0	0	973.5	NA	0.0000		9999	720	0	0	0
2019/05/17 19:59:00	BASE	2.71	90	3.14	70	-2.4	100	-2.4	0	0	973.5	NA	0.0000		9999	720	0	0	0
2019/05/17 20:00:00	BASE	2.53	91	3.04	92	-2.5	100	-2.5	0	0	973.4	NA	0.0000		9999	690	0	0	0
2019/05/17 20:01:00	BASE	2.50	90	3.04	92	-2.5	100	-2.5	0	0	973.4	NA	0.0000		9999	690	0	0	0
2019/05/17 20:02:00	BASE	2.37	88	3.04	92	-2.5	100	-2.5	0	0	973.4	NA	0.0000		9999	690	0	0	0
2019/05/17 20:03:00	BASE	2.20	86	3.04	92	-2.5	100	-2.5	0	0	973.4	NA	0.0000		9999	620	0	0	0
2019/05/17 20:04:00	BASE	2.06	81	3.04	92	-2.5	100	-2.5	0	0	973.4	NA	0.0000		9999	620	0	0	0
2019/05/17 20:05:00	BASE	1.94	75	3.04	92	-2.4	100	-2.4	0	0	973.4	NA	0.0000		9999	560	0	0	0
2019/05/17 20:06:00	BASE	1.94	72	3.04	92	-2.4	100	-2.4	0	0	973.4	NA	0.0000		9999	0	0	0	430
2019/05/17 20:07:00	BASE	1.96	74	3.04	92	-2.4	100	-2.4	0	0	973.4	NA	0.0000		9999	11580	0	0	0
2019/05/17 20:08:00	BASE	1.95	77	2.68	88	-2.3	100	-2.3	0	0	973.4	NA	0.0000		9999	0	0	0	520
2019/05/17 20:09:00	BASE	2.15	81	2.62	88	-2.3	100	-2.3	0	0	973.3	NA	0.0000		9999	0	0	0	590
2019/05/17 20:10:00	BASE	2.44	85	2.78	85	-2.3	100	-2.3	0	0	973.3	NA	0.0000		9999	1610	0	0	0
2019/05/17 20:11:00	BASE	2.57	90	2.78	85	-2.3	100	-2.3	0	0	973.3	NA	0.0000		9999	850	0	0	0
2019/05/17 20:12:00	BASE	2.62	95	2.78	85	-2.3	100	-2.3	0	0	973.2	NA	0.0000		9999	1020	0	0	0
2019/05/17 20:13:00	BASE	2.64	98	2.78	98	-2.3	100	-2.3	0	0	973.2	NA	0.0000		9999	1080	1540	0	0
2019/05/17 20:14:00	BASE	2.65	97	2.78	96	-2.3	100	-2.3	0	0	973.2	NA	0.0000		9999	1280	0	0	0
2019/05/17 20:15:00	BASE	2.64	93	2.78	96	-2.2	100	-2.2	0	0	973.2	NA	0.0000		9999	1310	0	0	0
2019/05/17 20:16:00	BASE	2.68	90	2.78	88	-2.2	100	-2.2	0	0	973.2	NA	0.0000		9999	1280	0	0	0
2019/05/17 20:17:00	BASE	2.75	88	2.88	85	-2.2	100	-2.2	0	0	973.2	NA	0.0000		9999	1310	0	0	0
2019/05/17 20:18:00	BASE	2.84	86	2.98	86	-2.2	100	-2.2	0	0	973.1	NA	0.0000		9999	1280	0	0	0
2019/05/17 20:19:00	BASE	2.98	85	3.19	83	-2.2	100	-2.3	0	0	973.0	NA	0.0000		9999	1280	0	0	0
2019/05/17 20:20:00	BASE	3.15	85	3.34	84	-2.3	100	-2.3	0	0	973.0	NA	0.0000		9999	1350	0	0	0
2019/05/17 20:21:00	BASE	3.32	84	3.55	83	-2.3	100	-2.3	0	0	972.9	NA	0.0000		9999	1310	0	0	0
2019/05/17 20:22:00	BASE	3.48	80	3.70	77	-2.3	100	-2.3	0	0	972.9	NA	0.0000		9999	1250	1800	0	0
2019/05/17 20:23:00	BASE	3.63	77	3.86	77	-2.3	100	-2.3	0	0	972.9	NA	0.0000		9999	1180	1670	0	0
2019/05/17 20:24:00	BASE	3.63	77	3.86	77	-2.3	100	-2.3	0	0	972.9	NA	0.0000		9999	1180	0	0	0
2019/05/17 20:25:00	BASE	3.40	76	3.86	77	-2.3	100	-2.3	0	0	972.9	NA	0.0000		9999	1210	0	0	0
2019/05/17 20:26:00	BASE	3.15	75	3.86	77	-2.3	100	-2.3	0	0	972.9	NA	0.0000		9999	980	1670	0	0
2019/05/17 20:27:00	BASE	2.94	75	3.86	77	-2.3	100	-2.3	0	0	972.9	NA	0.0000		9999	920	1510	0	0
2019/05/17 20:28:00	BASE	2.74	74	3.86	77	-2.4	100	-2.4	0	0	972.9	NA	0.0000		9999	920	0	0	0
2019/05/17 20:29:00	BASE	2.59	71	3.86	77	-2.4	100	-2.4	0	0	972.9	NA	0.0000		9999	820	0	0	0
2019/05/17 20:30:00	BASE	2.60	69	3.86	77	-2.4	100	-2.4	0	0	972.9	NA	0.0000		9999	850	1570	0	0
2019/05/17 20:31:00	BASE	2.70	66	3.86	77	-2.4	100	-2.4	0	0	972.9	NA	0.0000		9999	790	1640	0	0
2019/05/17 20:32:00	BASE	2.69	62	3.86	77	-2.4	100	-2.4	0	0	972.9	NA	0.0000		9999	720	1670	0	0
2019/05/17 20:33:00	BASE	2.76	58	3.65	76	-2.4	100	-2.4	0	0	972.9	NA	0.0000		9999	620	1770	0	0
2019/05/17 20:34:00	BASE	2.98	57	3.34	75	-2.4	100	-2.4	0	0	972.8	NA	0.0000		9999	560	1610	0	0
2019/05/17 20:35:00	BASE	3.03	57	3.29	55	-2.4	100	-2.4	0	0	972.8	NA	0.0000		9999	490	1540	0	0
2019/05/17 20:36:00	BASE	3.07	59	3.34	62	-2.4	100	-2.4	0	0	972.8	NA	0.0000		9999	490	1380	0	0
2019/05/17 20:37:00	BASE	2.97	64	3.34	62	-2.4	100	-2.4	0	0	972.8	NA	0.0000		9999	430	0	0	0
2019/05/17 20:38:00	BASE	2.78	67	3.34	62	-2.4	100	-2.4	0	0	972.8	NA	0.0000		9999	430	0	0	0
2019/05/17 20:39:00	BASE	2.89	68	3.34	62	-2.4	100	-2.4	0	0	972.8	NA	0.0000		9999	460	0	0	0
2019/05/17 20:40:00	BASE	3.04	67	3.34	62	-2.4	100	-2.4	0	0	972.8	NA	0.0000		9999	460	0	0	0
2019/05/17 20:41:00	BASE	3.18	65	3.45	66	-2.4	100	-2.4	0	0	972.8	NA	0.0000		9999	560	0	0	0
2019/05/17 20:42:00	BASE	3.47	63	3.86	59	-2.4	100	-2.4	0	0	972.8	NA	0.0000		9999	590	0	0	0
2019/05/17 20:43:00	BASE	3.61	61	3.86	59	-2.4	100	-2.4	0	0	972.7	NA	0.0000		9999	660	1350	0	0
2019/05/17 20:44:00	BASE	3.38	59	3.86	59	-2.4	100	-2.4	0	0	972.7	NA	0.0000		9999	620	1350	0	0
2019/05/17 20:45:00	BASE	2.85	52	3.86	59	-2.4	100	-2.4	0	0	972.7	NA	0.0000		9999	560	1350	0	0
2019/05/17 20:46:00	BASE	2.34	46	3.86	59	-2.3	100	-2.3	0	0	972.7	NA	0.0000		9999	590	1280	0	0
2019/05/17 20:47:00	BASE	2.10	56	3.86	59	-2.3	100	-2.3	0	0	972.6	NA	0.0000		9999	590	1310	0	0
2019/05/17 20:48:00	BASE	2.13	67	3.86	59	-2.3	100	-2.3	0	0	972.6	NA	0.0000		9999	560	1410	0	0
2019/05/17 20:49:00	BASE	2.03	67	3.86	59	-2.3	100	-2.3	0	0	972.6	NA	0.0000		9999	490	1440	0	0
2019/05/17 20:50:00	BASE	1.96	65	3.86	59	-2.3	100	-2.3	0	0	972.6	NA	0.0000		9999	460	1440	0	0
2019/05/17 20:51:00	BASE	2.08	67	3.86	59	-2.3	100	-2.3	0	0	972.6	NA	0.0000		9999	460	0	0	0
2019/05/17 20:52:00	BASE	2.16	67	3.76	59	-2.3	100	-2.3	0	0	972.5	NA	0.0000		9999	490	0	0	0
2019/05/17 20:53:00	BASE	2.08	69	3.55	53	-2.3	100	-2.3	0	0	972.4	NA	0.0000		9999	460	0	0	0
2019/05/17 20:54:00	BASE	1.68	66	2.88	50	-2.3	100	-2.3	0	0	972.4	NA	0.0000		9999	890	0	0	0
2019/05/17 20:55:00	BASE	0.91	67	2.52	65	-2.3	100	-2.3	0	0	972.3	NA	0.0000		9999	520	0	0	0
2019/05/17 20:56:00	BASE	0.51	82	2.52	65	-2.3	100	-2.3	0	0	972.3	NA	0.0000		9999	890	0	0	0
2019/05/17 20:57:00	BASE	0.97	90	2.52	65	-2.3	100	-2.3	0	0	972.3	NA	0.0000		9999	890	0	0	0
2019/05/17 20:58:00	BASE	1.10	84	2.52	65	-2.3	100	-2.3	0	0	972.3	NA	0.0000		9999	790	0	0	0
2019/05/17 20:59:00	BASE	1.05	77	2.52	65	-2.3	100	-2.3	0	0	972.4	NA	0.0000		9999	850	0	0	0
2019/05/17 21:00:00	BASE	1.21	74	2.52	65	-2.3	100	-2.3	0	0	972.4	NA	0.0000		9999	980	0	0	0
2019/05/17 21:01:00	BASE	1.32	69	2.52	65	-2.3	100	-2.3	0	0	972.4	NA	0.0000		9999	1050	0	0	0
2019/05/17 21:02:00	BASE	1.30	64	2.31	65	-2.3	100	-2.3	0	0	972.4	NA	0.0000		9999	1020	0	0	0
2019/05/17 21:03:00	BASE	1.12	70	1.70	61	-2.3	100	-2.3	0	0	972.4	NA	0.0000		9999	980	0	0	0
2019/05/17 21:04:00	BASE	1.15	83	1.54	62	-2.3	100	-2.3	0	0	972.4	NA	0.0000		9999	920	0	0	0
2019/05/17 21:05:00	BASE	1.39	93	1.85	100	-2.3	100	-2.3	0	0	972.3	NA	0.0000		9999	950	0	0	0
2019/05/17 21:06:00	BASE	1.65	97	1.90	95	-2.3	100	-2.3	0	0	972.3	NA	0.0000		9999	1180	0	0	0
2019/05/17 21:07:00	BASE	1.86	97	2.06	96	-2.3	100	-2.3	0	0	972.4	NA	0.0000		9999	1150	0	0	0
2019/05/17 21:08:00	BASE	1.87	94	2.06	96	-2.3	100	-2.3	0	0	972.3	NA	0.0000		9999	1250	0	0	0
2019/05/17 21:09:00	BASE	1.82	88	2.06	96	-2.3	100	-2.3	0	0	972.3	NA	0.0000		9999	1280	0	0	0
2019/05/17 21:10:00	BASE	1.93	84	2.06	84	-2.3	100	-2.3	0	0	972.3	NA	0.0000		9999	1210	0	0	0
2019/05/17 21:11:00	BASE	1.88	79	2.06	84	-2.2	100	-2.2	0	0	972.3	NA	0.0000		9999	1180	0	0	0
2019/05/17 21:12:00	BASE	1.75	72	2.06	84	-2.2	100	-2.2	0	0	972.4	NA	0.0000		9999	1180	0	0	0
2019/05/17 21:13:00	BASE	1.76	69	2.06	84	-2.1	100	-2.1	0	0	972.4	NA	0.0000		9999	1180	0	0	0
2019/05/17 21:14:00	BASE	1.75	72	2.06	84	-2.1	100	-2.1	0	0	972.4	NA	0.0000		9999	1150	0	0	0
2019/05/17 21:15:00	BASE	1.61	81	2.06	84	-2.1	100	-2.1	0	0	972.4	NA	0.0000		9999	1120	0	0	0
2019/05/17 21:16:00	BASE	1.35	91	2.06	84	-2.1	100	-2.1	0	0	972.4	NA	0.0000		9999	1080	0	0	0
2019/05/17 21:17:00	BASE	1.24	93	2.06	84	-2.1	100	-2.1	0	0	972.4	NA	0.0000		9999	980	0	0	0
2019/05/17 21:18:00	BASE	1.32	88	2.06	84	-2.1	100	-2.1	0	0	972.4	NA	0.0000		9999	850	1250	0	0
2019/05/17 21:19:00	BASE	1.49	83	2.06	84	-2.1	100	-2.1	0	0	972.4	NA	0.0000		9999	820	0	0	0
2019/05/17 21:20:00	BASE	1.69	83	1.90	66	-2.1	100	-2.1	0	0	972.4	NA	0.0000		9999	790	0	0	0
2019/05/17 21:21:00	BASE	1.64	85	1.90	66	-2.1	100	-2.1	0	0	972.4	NA	0.0000		9999	820	0	0	0
2019/05/17 21:22:00	BASE	1.46	88	1.90	66	-2.1	100	-2.1	0	0	972.4	NA	0.0000		9999	850	0	0	0
2019/05/17 21:23:00	BASE	1.44	93	1.90	103	-2.2	100	-2.2	0	0	972.3	NA	0.0000		9999	850	0	0	0
2019/05/17 21:24:00	BASE	1.57	98	1.90	103	-2.2	100	-2.2	0	0	972.3	NA	0.0000		9999	850	0	0	0
2019/05/17 21:25:00	BASE	1.50	99	1.90	103	-2.2	100	-2.2	0	0	972.3	NA	0.0000		9999	850	0	0	0
2019/05/17 21:26:00	BASE	0.77	98	1.90	103	-2.1	100	-2.1	0	0	972.3	NA	0.0000		9999	850	0	0	0
2019/05/17 21:27:00	BASE	0.09	99	1.90	103	-2.2	100	-2.2	0	0	972.3	NA	0.0000		9999	890	0	0	0
2019/05/17 21:28:00	BASE	0.00	99	1.90	103	-2.1	100	-2.1	0	0	972.3	NA	0.0000		9999	890	0	0	0
2019/05/17 21:29:00	BASE	0.00	99	1.90	103	-2.1	100	-2.1	0	0	972.3	NA	0.0000		9999	820	0	0	0
2019/05/17 21:30:00	BASE	0.00	99	1.90	103	-2.1	100	-2.1	0	0	972.3	NA	0.0000		9999	790	0	0	0
2019/05/17 21:31:00	BASE	0.00	99	1.90	103	-2.1	100	-2.1	0	0	972.3	NA	0.0000		9999	820	0	0	0
2019/05/17 21:32:00	BASE	0.00	99	1.90	103	-2.1	100	-2.1	0	0	972.3	NA	0.0000		9999	850	0	0	0
2019/05/17 21:33:00	BASE	0.00	99	1.85	103	-2.0	100	-2.0	0	0	972.3	NA	0.0000		9999	890	0	0	0
2019/05/17 21:34:00	BASE	0.00	99	1.54	99	-2.0	100	-2.0	0	0	972.3	NA	0.0000		9999	850	0	0	0
2019/05/17 21:35:00	BASE	0.00	77	1.03	100	-2.0	100	-2.0	0	0	972.3	NA	0.0000		9999	850	0	0	0
2019/05/17 21:36:00	BASE	0.00	45	M	M	-2.0	100	-2.0	0	0	972.3	NA	0.0000		9999	850	0	0	0
2019/05/17 21:37:00	BASE	0.00	35	M	M	-2.0	100	-2.0	0	0	972.3	NA	0.0000		9999	850	0	0	0
2019/05/17 21:38:00	BASE	0.00	38	M	M	-2.0	100	-2.0	0	0	972.4	NA	0.0000		9999	850	0	0	0
2019/05/17 21:39:00	BASE	0.00	33	M	M	-2.0	100	-2.0	0	0	972.4	NA	0.0000		9999	820	0	0	0
2019/05/17 21:40:00	BASE	0.19	26	1.18	21	-2.0	100	-2.0	0	0	972.4	NA	0.0000		9999	850	0	0	0
2019/05/17 21:41:00	BASE	0.59	32	1.18	40	-2.1	100	-2.1	0	0	972.4	NA	0.0000		9999	890	0	0	0
2019/05/17 21:42:00	BASE	0.45	44	1.18	40	-2.1	100	-2.1	0	0	972.4	NA	0.0000		9999	890	0	0	0
2019/05/17 21:43:00	BASE	0.04	47	1.18	40	-2.1	100	-2.1	0	0	972.4	NA	0.0000		9999	890	0	0	0
2019/05/17 21:44:00	BASE	0.09	45	1.18	40	-2.1	100	-2.1	0	0	972.4	NA	0.0000		9999	920	0	0	0
2019/05/17 21:45:00	BASE	0.09	37	1.18	40	-2.1	100	-2.1	0	0	972.4	NA	0.0000		9999	920	0	0	0
2019/05/17 21:46:00	BASE	0.00	27	1.18	40	-2.1	100	-2.1	0	0	972.4	NA	0.0000		9999	920	0	0	0
2019/05/17 21:47:00	BASE	0.09	25	1.18	40	-2.1	100	-2.1	0	0	972.4	NA	0.0000		9999	920	0	0	0
2019/05/17 21:48:00	BASE	0.09	23	1.18	40	-2.1	100	-2.1	0	0	972.4	NA	0.0000		9999	920	0	0	0
2019/05/17 21:49:00	BASE	0.04	27	1.18	40	-2.1	100	-2.1	0	0	972.3	NA	0.0000		9999	920	0	0	0
2019/05/17 21:50:00	BASE	0.04	32	1.18	40	-2.1	100	-2.1	0	0	972.3	NA	0.0000		9999	920	0	0	0
2019/05/17 21:51:00	BASE	0.00	29	1.13	24	-2.1	100	-2.1	0	0	972.3	NA	0.0000		9999	920	0	0	0
2019/05/17 21:52:00	BASE	0.34	20	1.29	20	-2.1	100	-2.1	0	0	972.3	NA	0.0000		9999	920	0	0	0
2019/05/17 21:53:00	BASE	0.34	16	1.29	20	-2.1	100	-2.1	0	0	972.3	NA	0.0000		9999	890	0	0	0
2019/05/17 21:54:00	BASE	0.00	33	1.29	20	-2.1	100	-2.1	0	0	972.3	NA	0.0000		9999	890	0	0	0
2019/05/17 21:55:00	BASE	0.00	55	1.29	20	-2.1	100	-2.1	0	0	972.2	NA	0.0000		9999	890	0	0	0
2019/05/17 21:56:00	BASE	0.00	78	1.29	20	-2.1	100	-2.1	0	0	972.2	NA	0.0000		9999	890	0	0	0
2019/05/17 21:57:00	BASE	0.00	96	1.29	20	-2.1	100	-2.1	0	0	972.2	NA	0.0000		9999	890	0	0	0
2019/05/17 21:58:00	BASE	0.00	92	1.29	20	-2.1	100	-2.1	0	0	972.1	NA	0.0000		9999	850	0	0	0
2019/05/17 21:59:00	BASE	0.00	95	1.29	20	-2.1	100	-2.1	0	0	972.1	NA	0.0000		9999	790	0	0	0
2019/05/17 22:00:00	BASE	0.00	102	1.29	20	-2.1	100	-2.1	0	0	972.1	NA	0.0000		9999	750	0	0	0
2019/05/17 22:01:00	BASE	0.00	102	1.29	20	-2.1	100	-2.1	0	0	972.0	NA	0.0000		9999	750	0	0	0
2019/05/17 22:02:00	BASE	0.00	119	M	M	-2.1	100	-2.1	0	0	972.1	NA	0.0000		9999	750	0	0	0
2019/05/17 22:03:00	BASE	0.00	140	M	M	-2.1	100	-2.1	0	0	972.0	NA	0.0000		9999	720	0	0	0
2019/05/17 22:04:00	BASE	0.27	150	1.18	156	-2.1	100	-2.1	0	0	972.0	NA	0.0000		9999	690	0	0	0
2019/05/17 22:05:00	BASE	0.45	156	1.18	156	-2.1	100	-2.1	0	0	972.0	NA	0.0000		9999	660	0	0	0
2019/05/17 22:06:00	BASE	0.77	154	1.34	150	-2.1	100	-2.1	0	0	971.9	NA	0.0000		9999	660	0	0	0
2019/05/17 22:07:00	BASE	1.26	149	1.49	149	-2.1	100	-2.1	0	0	971.9	NA	0.0000		9999	720	0	0	0
2019/05/17 22:08:00	BASE	1.32	146	1.49	149	-2.1	100	-2.1	0	0	971.8	NA	0.0000		9999	790	0	0	0
2019/05/17 22:09:00	BASE	1.31	147	1.54	156	-2.1	100	-2.1	0	0	971.8	NA	0.0000		9999	820	0	0	0
2019/05/17 22:10:00	BASE	1.41	151	1.65	153	-2.1	100	-2.1	0	0	971.8	NA	0.0000		9999	750	0	0	0
2019/05/17 22:11:00	BASE	1.74	152	2.11	148	-2.2	100	-2.2	0	0	971.7	NA	0.0000		9999	750	0	0	0
2019/05/17 22:12:00	BASE	2.11	149	2.37	144	-2.2	100	-2.2	0	0	971.7	NA	0.0000		9999	790	0	0	0
2019/05/17 22:13:00	BASE	2.34	148	2.52	149	-2.2	100	-2.2	0	0	971.7	NA	0.0000		9999	850	0	0	0
2019/05/17 22:14:00	BASE	2.47	149	2.62	152	-2.2	100	-2.2	0	0	971.7	NA	0.0000		9999	790	0	0	0
2019/05/17 22:15:00	BASE	2.55	149	2.68	146	-2.2	100	-2.2	0	0	971.7	NA	0.0000		9999	820	0	0	0
2019/05/17 22:16:00	BASE	2.39	146	2.68	146	-2.2	100	-2.2	0	0	971.7	NA	0.0000		9999	750	0	0	0
2019/05/17 22:17:00	BASE	2.27	143	2.68	146	-2.2	100	-2.2	0	0	971.7	NA	0.0000		9999	820	0	0	0
2019/05/17 22:18:00	BASE	2.35	143	2.68	146	-2.2	100	-2.2	0	0	971.7	NA	0.0000		9999	890	0	0	0
2019/05/17 22:19:00	BASE	2.42	143	2.73	145	-2.1	100	-2.1	0	0	971.7	NA	0.0000		9999	850	0	0	0
2019/05/17 22:20:00	BASE	2.55	139	2.88	138	-2.1	100	-2.1	0	0	971.7	NA	0.0000		9999	890	0	0	0
2019/05/17 22:21:00	BASE	2.59	137	2.88	138	-2.1	100	-2.1	0	0	971.7	NA	0.0000		9999	850	0	0	0
2019/05/17 22:22:00	BASE	2.73	140	3.19	144	-2.1	100	-2.1	0	0	971.7	NA	0.0000		9999	890	0	0	0
2019/05/17 22:23:00	BASE	2.82	142	3.19	144	-2.1	100	-2.1	0	0	971.6	NA	0.0000		9999	890	0	0	0
2019/05/17 22:24:00	BASE	2.88	144	3.40	142	-2.1	100	-2.1	0	0	971.6	NA	0.0000		9999	850	0	0	0
2019/05/17 22:25:00	BASE	3.10	147	3.65	150	-2.1	100	-2.1	0	0	971.6	NA	0.0000		9999	850	0	0	0
2019/05/17 22:26:00	BASE	3.19	148	3.65	150	-2.0	100	-2.0	0	0	971.5	NA	0.0000		9999	850	0	0	0
2019/05/17 22:27:00	BASE	3.43	144	4.22	149	-2.0	100	-2.0	0	0	971.5	NA	0.0000		9999	850	0	0	0
2019/05/17 22:28:00	BASE	3.76	141	4.27	142	-2.0	100	-2.0	0	0	971.5	NA	0.0000		9999	820	0	0	0
2019/05/17 22:29:00	BASE	4.07	141	4.58	141	-2.0	100	-2.0	0	0	971.5	NA	0.0000		9999	790	1250	0	0
2019/05/17 22:30:00	BASE	4.09	140	4.58	141	-2.0	100	-2.0	0	0	971.5	NA	0.0000		9999	850	0	0	0
2019/05/17 22:31:00	BASE	3.75	141	4.58	141	-2.0	100	-2.0	0	0	971.5	NA	0.0000		9999	820	0	0	0
2019/05/17 22:32:00	BASE	3.59	144	4.58	141	-2.1	100	-2.1	0	0	971.5	NA	0.0000		9999	790	0	0	0
2019/05/17 22:33:00	BASE	3.77	143	4.68	140	-2.1	100	-2.1	0	0	971.5	NA	0.0000		9999	1080	0	0	0
2019/05/17 22:34:00	BASE	4.14	144	4.68	155	-2.1	100	-2.1	0	0	971.4	NA	0.0000		9999	1050	0	0	0
2019/05/17 22:35:00	BASE	3.82	146	4.68	155	-2.0	100	-2.0	0	0	971.4	NA	0.0000		9999	1080	0	0	0
2019/05/17 22:36:00	BASE	3.41	143	4.68	155	-2.0	100	-2.0	0	0	971.5	NA	0.0000		9999	1050	1480	0	0
2019/05/17 22:37:00	BASE	3.30	144	4.68	155	-2.0	100	-2.0	0	0	971.5	NA	0.0000		9999	790	1510	0	0
2019/05/17 22:38:00	BASE	3.25	146	4.68	155	-2.0	100	-2.0	0	0	971.4	NA	0.0000		9999	820	0	0	0
2019/05/17 22:39:00	BASE	3.27	142	4.68	155	-2.0	100	-2.0	0	0	971.4	NA	0.0000		9999	950	0	0	0
2019/05/17 22:40:00	BASE	2.80	136	4.68	155	-2.0	100	-2.0	0	0	971.4	NA	0.0000		9999	980	0	0	0
2019/05/17 22:41:00	BASE	2.87	137	4.68	155	-2.0	100	-2.0	0	0	971.4	NA	0.0000		9999	980	0	0	0
2019/05/17 22:42:00	BASE	3.45	137	4.68	155	-2.0	100	-2.0	0	0	971.4	NA	0.0000		9999	1020	0	0	0
2019/05/17 22:43:00	BASE	3.37	134	4.68	155	-2.0	100	-2.0	0	0	971.4	NA	0.0000		9999	950	0	0	0
2019/05/17 22:44:00	BASE	3.52	135	4.37	137	-2.0	100	-2.0	0	0	971.4	NA	0.0000		9999	980	0	0	0
2019/05/17 22:45:00	BASE	4.02	137	4.53	136	-2.0	100	-2.0	0	0	971.4	NA	0.0000		9999	980	0	0	0
2019/05/17 22:46:00	BASE	3.65	137	4.53	136	-2.0	100	-2.0	0	0	971.4	NA	0.0000		9999	980	0	0	0
2019/05/17 22:47:00	BASE	3.34	136	4.53	136	-2.0	100	-2.0	0	0	971.3	NA	0.0000		9999	1020	0	0	0
2019/05/17 22:48:00	BASE	3.37	138	4.53	136	-2.0	100	-2.0	0	0	971.3	NA	0.0000		9999	1020	0	0	0
2019/05/17 22:49:00	BASE	3.02	140	4.53	136	-2.0	100	-2.0	0	0	971.3	NA	0.0000		9999	950	0	0	0
2019/05/17 22:50:00	BASE	3.23	141	4.58	143	-2.0	100	-2.0	0	0	971.3	NA	0.0000		9999	1080	0	0	0
2019/05/17 22:51:00	BASE	3.60	143	4.58	143	-2.0	100	-2.0	0	0	971.3	NA	0.0000		9999	1180	0	0	0
2019/05/17 22:52:00	BASE	3.64	144	4.58	143	-2.0	100	-2.0	0	0	971.3	NA	0.0000		9999	1210	0	0	0
2019/05/17 22:53:00	BASE	3.75	144	4.58	143	-1.9	100	-1.9	0	0	971.3	NA	0.0000		9999	1280	0	0	0
2019/05/17 22:54:00	BASE	3.93	140	4.58	143	-1.9	100	-1.9	0	0	971.3	NA	0.0000		9999	1310	0	0	0
2019/05/17 22:55:00	BASE	3.90	135	4.58	143	-1.9	100	-1.9	0	0	971.3	NA	0.0000		9999	1350	0	0	0
2019/05/17 22:56:00	BASE	3.70	135	4.58	143	-1.9	100	-1.9	0	0	971.3	NA	0.0000		9999	1280	0	0	0
2019/05/17 22:57:00	BASE	3.93	138	4.89	137	-1.9	100	-1.9	0	0	971.3	NA	0.0000		9999	1250	0	0	0
2019/05/17 22:58:00	BASE	3.70	141	4.89	137	-1.9	100	-1.9	0	0	971.3	NA	0.0000		9999	1210	0	0	0
2019/05/17 22:59:00	BASE	3.17	138	4.89	137	-1.9	100	-1.9	0	0	971.3	NA	0.0000		9999	7610	0	0	0
2019/05/17 23:00:00	BASE	3.28	130	4.89	137	-1.9	100	-1.9	0	0	971.3	NA	0.0000		9999	7510	0	0	0
2019/05/17 23:01:00	BASE	3.75	125	5.14	127	-1.9	100	-1.9	0	0	971.3	NA	0.0000		9999	7580	0	0	0
2019/05/17 23:02:00	BASE	4.56	125	5.61	130	-2.0	100	-2.0	0	0	971.3	NA	0.0000		9999	7610	0	0	0
2019/05/17 23:03:00	BASE	4.90	126	5.61	130	-2.0	100	-2.0	0	0	971.3	NA	0.0000		9999	7510	0	0	0
2019/05/17 23:04:00	BASE	4.96	119	5.61	130	-2.0	100	-2.0	0	0	971.3	NA	0.0000		9999	7420	0	0	0
2019/05/17 23:05:00	BASE	4.92	103	5.61	130	-2.1	100	-2.1	0	0	971.3	NA	0.0000		9999	7250	0	0	0
2019/05/17 23:06:00	BASE	4.50	87	5.61	130	-2.2	100	-2.2	0	0	971.3	NA	0.0000		9999	7090	0	0	0
2019/05/17 23:07:00	BASE	4.20	86	5.61	130	-2.3	100	-2.3	0	0	971.3	NA	0.0000		9999	7120	0	0	0
2019/05/17 23:08:00	BASE	4.02	90	5.61	130	-2.3	100	-2.3	0	0	971.3	NA	0.0000		9999	7090	0	0	0
2019/05/17 23:09:00	BASE	4.26	89	5.61	130	-2.4	100	-2.4	0	0	971.4	NA	0.0000		9999	6860	0	0	0
2019/05/17 23:10:00	BASE	4.96	88	5.71	90	-2.5	100	-2.5	0	0	971.3	NA	0.0000		9999	1610	0	0	0
2019/05/17 23:11:00	BASE	5.33	89	5.71	89	-2.6	100	-2.6	0	0	971.3	NA	0.0000		9999	1540	0	0	0
2019/05/17 23:12:00	BASE	5.20	90	5.71	89	-2.6	100	-2.6	0	0	971.3	NA	0.0000		9999	6920	0	0	0
2019/05/17 23:13:00	BASE	5.17	92	5.71	89	-2.7	100	-2.7	0	0	971.3	NA	0.0000		9999	6760	0	0	0
2019/05/17 23:14:00	BASE	5.29	92	5.71	89	-2.7	100	-2.7	0	0	971.2	NA	0.0000		9999	1440	0	0	0
2019/05/17 23:15:00	BASE	5.15	93	5.71	89	-2.8	100	-2.8	0	0	971.2	NA	0.0000		9999	1380	0	0	0
2019/05/17 23:16:00	BASE	4.89	93	5.71	89	-2.8	100	-2.8	0	0	971.2	NA	0.0000		9999	1540	0	0	0
2019/05/17 23:17:00	BASE	4.88	93	5.71	89	-2.8	100	-2.8	0	0	971.2	NA	0.0000		9999	7120	0	0	0
2019/05/17 23:18:00	BASE	5.03	93	5.71	89	-2.7	100	-2.7	0	0	971.2	NA	0.0000		9999	7380	0	0	0
2019/05/17 23:19:00	BASE	5.11	92	5.71	93	-2.7	100	-2.7	0	0	971.2	NA	0.0000		9999	7190	0	0	0
2019/05/17 23:20:00	BASE	5.05	92	5.76	95	-2.6	100	-2.6	0	0	971.2	NA	0.0000		9999	6920	0	0	0
2019/05/17 23:21:00	BASE	4.80	93	5.76	95	-2.6	100	-2.6	0	0	971.2	NA	0.0000		9999	6730	0	0	0
2019/05/17 23:22:00	BASE	4.52	97	5.76	95	-2.5	100	-2.5	0	0	971.1	NA	0.0000		9999	6460	0	0	0
2019/05/17 23:23:00	BASE	4.28	98	5.76	95	-2.5	100	-2.5	0	0	971.1	NA	0.0000		9999	6400	0	0	0
2019/05/17 23:24:00	BASE	4.20	98	5.76	95	-2.5	100	-2.5	0	0	971.1	NA	0.0000		9999	6270	0	0	0
2019/05/17 23:25:00	BASE	4.33	99	5.76	95	-2.5	100	-2.5	0	0	971.1	NA	0.0000		9999	6140	0	0	0
2019/05/17 23:26:00	BASE	4.32	99	5.76	95	-2.5	100	-2.5	0	0	971.1	NA	0.0000		9999	6100	0	0	0
2019/05/17 23:27:00	BASE	4.16	101	5.76	95	-2.5	100	-2.5	0	0	971.0	NA	0.0000		9999	6100	0	0	0
2019/05/17 23:28:00	BASE	4.13	110	5.76	95	-2.5	100	-2.5	0	0	971.0	NA	0.0000		9999	6140	0	0	0
2019/05/17 23:29:00	BASE	4.25	116	5.76	95	-2.5	100	-2.5	0	0	971.0	NA	0.0000		9999	6040	0	0	0
2019/05/17 23:30:00	BASE	4.55	118	4.99	119	-2.5	100	-2.5	0	0	971.0	NA	0.0000		9999	5970	0	0	0
2019/05/17 23:31:00	BASE	4.68	120	4.99	119	-2.4	100	-2.4	0	0	971.0	NA	0.0000		9999	5910	0	0	0
2019/05/17 23:32:00	BASE	4.49	120	4.99	119	-2.4	100	-2.4	0	0	971.0	NA	0.0000		9999	5810	0	0	0
2019/05/17 23:33:00	BASE	4.54	120	5.14	125	-2.4	100	-2.4	0	0	970.9	NA	0.0000		9999	5680	0	0	0
2019/05/17 23:34:00	BASE	4.58	120	5.14	125	-2.3	100	-2.3	0	0	970.9	NA	0.0000		9999	5640	0	0	0
2019/05/17 23:35:00	BASE	4.60	121	5.14	125	-2.3	100	-2.3	0	0	970.9	NA	0.0000		9999	5810	0	0	0
2019/05/17 23:36:00	BASE	4.47	120	5.14	125	-2.2	100	-2.2	0	0	970.9	NA	0.0000		9999	5910	0	0	0
2019/05/17 23:37:00	BASE	4.66	119	5.56	123	-2.2	100	-2.2	0	0	970.9	NA	0.0000		9999	6000	0	0	0
2019/05/17 23:38:00	BASE	5.24	116	6.02	110	-2.2	100	-2.2	0	0	970.9	NA	0.0000		9999	1150	0	0	0
2019/05/17 23:39:00	BASE	5.29	112	6.02	110	-2.2	100	-2.2	0	0	970.9	NA	0.0000		9999	1020	0	0	0
2019/05/17 23:40:00	BASE	5.02	111	6.02	110	-2.1	100	-2.1	0	0	970.9	NA	0.0000		9999	6170	0	0	0
2019/05/17 23:41:00	BASE	4.84	112	6.02	110	-2.1	100	-2.1	0	0	970.9	NA	0.0000		9999	6140	0	0	0
2019/05/17 23:42:00	BASE	5.00	113	6.02	110	-2.1	100	-2.1	0	0	970.9	NA	0.0000		9999	0	0	0	1020
2019/05/17 23:43:00	BASE	4.94	111	6.02	110	-2.1	100	-2.1	0	0	970.9	NA	0.0000		9999	5970	0	0	0
2019/05/17 23:44:00	BASE	4.37	107	6.02	110	-2.1	100	-2.1	0	0	970.8	NA	0.0000		9999	5810	0	0	0
2019/05/17 23:45:00	BASE	4.19	107	6.02	110	-2.1	100	-2.1	0	0	970.8	NA	0.0000		9999	5940	0	0	0
2019/05/17 23:46:00	BASE	4.35	112	6.02	110	-2.1	100	-2.1	0	0	970.8	NA	0.0000		9999	5970	0	0	0
2019/05/17 23:47:00	BASE	4.50	118	6.02	110	-2.2	100	-2.2	0	0	970.8	NA	0.0000		9999	6000	0	0	0
2019/05/17 23:48:00	BASE	4.42	120	5.45	112	-2.2	100	-2.2	0	0	970.7	NA	0.0000		9999	1080	0	0	0
2019/05/17 23:49:00	BASE	4.21	118	5.35	109	-2.2	100	-2.2	0	0	970.6	NA	0.0000		9999	1020	0	0	0
2019/05/17 23:50:00	BASE	4.40	115	5.35	109	-2.2	100	-2.2	0	0	970.6	NA	0.0000		9999	980	0	0	0
2019/05/17 23:51:00	BASE	4.61	112	5.35	109	-2.2	100	-2.2	0	0	970.6	NA	0.0000		9999	980	0	0	0
2019/05/17 23:52:00	BASE	4.47	110	5.09	116	-2.2	100	-2.2	0	0	970.6	NA	0.0000		9999	1050	0	0	0
2019/05/17 23:53:00	BASE	4.45	110	5.09	116	-2.2	100	-2.2	0	0	970.6	NA	0.0000		9999	1080	0	0	0
2019/05/17 23:54:00	BASE	4.43	109	5.09	116	-2.2	100	-2.2	0	0	970.6	NA	0.0000		9999	920	0	0	0
2019/05/17 23:55:00	BASE	4.22	108	5.09	116	-2.3	100	-2.3	0	0	970.6	NA	0.0000		9999	1020	0	0	0
2019/05/17 23:56:00	BASE	4.14	109	4.99	105	-2.3	100	-2.3	0	0	970.6	NA	0.0000		9999	1020	0	0	0
2019/05/17 23:57:00	BASE	4.06	110	4.99	105	-2.3	100	-2.3	0	0	970.6	NA	0.0000		9999	950	0	0	0
2019/05/17 23:58:00	BASE	4.09	113	4.99	105	-2.3	100	-2.3	0	0	970.5	NA	0.0000		9999	890	0	0	0
2019/05/17 23:59:00	BASE	4.30	116	5.14	122	-2.3	100	-2.3	0	0	970.4	NA	0.0000		9999	950	0	0	0